<?xml version="1.0" encoding="UTF-8" standalone="no" ?>
<gpx xmlns="http://www.topografix.com/GPX/1/1" xmlns:xsi="http://www.w3.org/2001/XMLSchema-instance" xsi:schemaLocation="http://www.topografix.com/GPX/1/1 http://www.topografix.com/GPX/1/1/gpx.xsd" version="1.1" creator="VisuGPX - https://www.visugpx.com">
  <metadata>
    <name>st cyr 2018</name>
    <desc><![CDATA[belle randonnée  sur des chemins variés , boueux par temps e pluie ]]></desc>
  </metadata>
  <trk>
    <name><![CDATA[STCYR2018]]></name>
    <trkseg>
      <trkpt lat="47.83311" lon="1.96525">
        <ele>92</ele>
        <time>2018-01-21T07:36:25.000Z</time>
      </trkpt>
      <trkpt lat="47.83312" lon="1.96518">
        <ele>122</ele>
        <time>2018-01-21T07:38:14.000Z</time>
      </trkpt>
      <trkpt lat="47.83306" lon="1.96522">
        <ele>108</ele>
        <time>2018-01-21T07:39:05.000Z</time>
      </trkpt>
      <trkpt lat="47.83303" lon="1.96517">
        <ele>102</ele>
        <time>2018-01-21T07:41:46.000Z</time>
      </trkpt>
      <trkpt lat="47.83305" lon="1.96506">
        <ele>101</ele>
        <time>2018-01-21T07:41:50.000Z</time>
      </trkpt>
      <trkpt lat="47.83308" lon="1.96493">
        <ele>102</ele>
        <time>2018-01-21T07:41:53.000Z</time>
      </trkpt>
      <trkpt lat="47.8331" lon="1.96479">
        <ele>102</ele>
        <time>2018-01-21T07:41:56.000Z</time>
      </trkpt>
      <trkpt lat="47.83308" lon="1.96471">
        <ele>102</ele>
        <time>2018-01-21T07:41:58.000Z</time>
      </trkpt>
      <trkpt lat="47.83301" lon="1.96461">
        <ele>102</ele>
        <time>2018-01-21T07:42:03.000Z</time>
      </trkpt>
      <trkpt lat="47.83286" lon="1.96456">
        <ele>101</ele>
        <time>2018-01-21T07:42:11.000Z</time>
      </trkpt>
      <trkpt lat="47.83284" lon="1.96464">
        <ele>100</ele>
        <time>2018-01-21T07:42:15.000Z</time>
      </trkpt>
      <trkpt lat="47.83275" lon="1.96486">
        <ele>103</ele>
        <time>2018-01-21T07:43:35.000Z</time>
      </trkpt>
      <trkpt lat="47.83282" lon="1.96488">
        <ele>101</ele>
        <time>2018-01-21T07:49:05.000Z</time>
      </trkpt>
      <trkpt lat="47.83278" lon="1.96485">
        <ele>102</ele>
        <time>2018-01-21T07:51:47.000Z</time>
      </trkpt>
      <trkpt lat="47.83272" lon="1.96471">
        <ele>101</ele>
        <time>2018-01-21T07:51:55.000Z</time>
      </trkpt>
      <trkpt lat="47.83271" lon="1.96453">
        <ele>102</ele>
        <time>2018-01-21T07:52:01.000Z</time>
      </trkpt>
      <trkpt lat="47.83263" lon="1.96445">
        <ele>102</ele>
        <time>2018-01-21T07:52:05.000Z</time>
      </trkpt>
      <trkpt lat="47.83252" lon="1.96443">
        <ele>102</ele>
        <time>2018-01-21T07:52:09.000Z</time>
      </trkpt>
      <trkpt lat="47.83206" lon="1.96446">
        <ele>101</ele>
        <time>2018-01-21T07:52:22.000Z</time>
      </trkpt>
      <trkpt lat="47.83202" lon="1.96446">
        <ele>101</ele>
        <time>2018-01-21T07:52:23.000Z</time>
      </trkpt>
      <trkpt lat="47.83155" lon="1.96446">
        <ele>99</ele>
        <time>2018-01-21T07:52:34.000Z</time>
      </trkpt>
      <trkpt lat="47.83152" lon="1.96446">
        <ele>99</ele>
        <time>2018-01-21T07:52:35.000Z</time>
      </trkpt>
      <trkpt lat="47.83136" lon="1.96451">
        <ele>99</ele>
        <time>2018-01-21T07:52:39.000Z</time>
      </trkpt>
      <trkpt lat="47.83131" lon="1.96461">
        <ele>98</ele>
        <time>2018-01-21T07:52:41.000Z</time>
      </trkpt>
      <trkpt lat="47.83129" lon="1.96487">
        <ele>98</ele>
        <time>2018-01-21T07:52:45.000Z</time>
      </trkpt>
      <trkpt lat="47.8313" lon="1.96561">
        <ele>97</ele>
        <time>2018-01-21T07:52:55.000Z</time>
      </trkpt>
      <trkpt lat="47.8313" lon="1.96569">
        <ele>97</ele>
        <time>2018-01-21T07:52:56.000Z</time>
      </trkpt>
      <trkpt lat="47.83126" lon="1.96601">
        <ele>96</ele>
        <time>2018-01-21T07:53:00.000Z</time>
      </trkpt>
      <trkpt lat="47.83122" lon="1.96627">
        <ele>95</ele>
        <time>2018-01-21T07:53:04.000Z</time>
      </trkpt>
      <trkpt lat="47.83113" lon="1.96644">
        <ele>95</ele>
        <time>2018-01-21T07:53:10.000Z</time>
      </trkpt>
      <trkpt lat="47.83073" lon="1.96616">
        <ele>97</ele>
        <time>2018-01-21T07:53:24.000Z</time>
      </trkpt>
      <trkpt lat="47.8307" lon="1.9662">
        <ele>97</ele>
        <time>2018-01-21T07:53:25.000Z</time>
      </trkpt>
      <trkpt lat="47.83064" lon="1.96637">
        <ele>97</ele>
        <time>2018-01-21T07:53:28.000Z</time>
      </trkpt>
      <trkpt lat="47.83054" lon="1.96666">
        <ele>96</ele>
        <time>2018-01-21T07:53:34.000Z</time>
      </trkpt>
      <trkpt lat="47.83047" lon="1.96675">
        <ele>96</ele>
        <time>2018-01-21T07:53:40.000Z</time>
      </trkpt>
      <trkpt lat="47.83042" lon="1.96674">
        <ele>95</ele>
        <time>2018-01-21T07:53:42.000Z</time>
      </trkpt>
      <trkpt lat="47.83006" lon="1.96652">
        <ele>96</ele>
        <time>2018-01-21T07:53:55.000Z</time>
      </trkpt>
      <trkpt lat="47.82996" lon="1.96643">
        <ele>96</ele>
        <time>2018-01-21T07:54:01.000Z</time>
      </trkpt>
      <trkpt lat="47.82954" lon="1.9661">
        <ele>96</ele>
        <time>2018-01-21T07:54:13.000Z</time>
      </trkpt>
      <trkpt lat="47.8295" lon="1.96607">
        <ele>95</ele>
        <time>2018-01-21T07:54:14.000Z</time>
      </trkpt>
      <trkpt lat="47.82913" lon="1.96587">
        <ele>95</ele>
        <time>2018-01-21T07:54:22.000Z</time>
      </trkpt>
      <trkpt lat="47.8287" lon="1.96565">
        <ele>97</ele>
        <time>2018-01-21T07:54:31.000Z</time>
      </trkpt>
      <trkpt lat="47.82866" lon="1.96562">
        <ele>97</ele>
        <time>2018-01-21T07:54:32.000Z</time>
      </trkpt>
      <trkpt lat="47.82858" lon="1.96559">
        <ele>98</ele>
        <time>2018-01-21T07:54:34.000Z</time>
      </trkpt>
      <trkpt lat="47.82845" lon="1.96567">
        <ele>98</ele>
        <time>2018-01-21T07:54:38.000Z</time>
      </trkpt>
      <trkpt lat="47.82838" lon="1.96562">
        <ele>98</ele>
        <time>2018-01-21T07:54:40.000Z</time>
      </trkpt>
      <trkpt lat="47.82799" lon="1.96517">
        <ele>100</ele>
        <time>2018-01-21T07:54:51.000Z</time>
      </trkpt>
      <trkpt lat="47.82795" lon="1.96513">
        <ele>100</ele>
        <time>2018-01-21T07:54:52.000Z</time>
      </trkpt>
      <trkpt lat="47.8276" lon="1.96469">
        <ele>101</ele>
        <time>2018-01-21T07:55:02.000Z</time>
      </trkpt>
      <trkpt lat="47.82756" lon="1.96465">
        <ele>101</ele>
        <time>2018-01-21T07:55:03.000Z</time>
      </trkpt>
      <trkpt lat="47.82744" lon="1.96446">
        <ele>101</ele>
        <time>2018-01-21T07:55:07.000Z</time>
      </trkpt>
      <trkpt lat="47.82714" lon="1.96394">
        <ele>101</ele>
        <time>2018-01-21T07:55:17.000Z</time>
      </trkpt>
      <trkpt lat="47.82711" lon="1.96388">
        <ele>100</ele>
        <time>2018-01-21T07:55:18.000Z</time>
      </trkpt>
      <trkpt lat="47.82707" lon="1.96377">
        <ele>100</ele>
        <time>2018-01-21T07:55:20.000Z</time>
      </trkpt>
      <trkpt lat="47.82702" lon="1.96366">
        <ele>100</ele>
        <time>2018-01-21T07:55:22.000Z</time>
      </trkpt>
      <trkpt lat="47.82695" lon="1.96359">
        <ele>100</ele>
        <time>2018-01-21T07:55:24.000Z</time>
      </trkpt>
      <trkpt lat="47.82687" lon="1.96358">
        <ele>100</ele>
        <time>2018-01-21T07:55:26.000Z</time>
      </trkpt>
      <trkpt lat="47.82666" lon="1.96361">
        <ele>100</ele>
        <time>2018-01-21T07:55:32.000Z</time>
      </trkpt>
      <trkpt lat="47.82618" lon="1.96349">
        <ele>100</ele>
        <time>2018-01-21T07:55:43.000Z</time>
      </trkpt>
      <trkpt lat="47.82613" lon="1.96347">
        <ele>100</ele>
        <time>2018-01-21T07:55:44.000Z</time>
      </trkpt>
      <trkpt lat="47.82578" lon="1.96337">
        <ele>103</ele>
        <time>2018-01-21T07:55:53.000Z</time>
      </trkpt>
      <trkpt lat="47.82573" lon="1.96331">
        <ele>104</ele>
        <time>2018-01-21T07:55:55.000Z</time>
      </trkpt>
      <trkpt lat="47.82569" lon="1.96319">
        <ele>105</ele>
        <time>2018-01-21T07:55:58.000Z</time>
      </trkpt>
      <trkpt lat="47.82564" lon="1.96304">
        <ele>106</ele>
        <time>2018-01-21T07:56:01.000Z</time>
      </trkpt>
      <trkpt lat="47.82563" lon="1.96295">
        <ele>106</ele>
        <time>2018-01-21T07:56:03.000Z</time>
      </trkpt>
      <trkpt lat="47.82555" lon="1.96282">
        <ele>107</ele>
        <time>2018-01-21T07:56:08.000Z</time>
      </trkpt>
      <trkpt lat="47.82554" lon="1.96269">
        <ele>107</ele>
        <time>2018-01-21T07:56:11.000Z</time>
      </trkpt>
      <trkpt lat="47.82554" lon="1.96259">
        <ele>106</ele>
        <time>2018-01-21T07:56:14.000Z</time>
      </trkpt>
      <trkpt lat="47.82559" lon="1.96241">
        <ele>106</ele>
        <time>2018-01-21T07:56:18.000Z</time>
      </trkpt>
      <trkpt lat="47.82563" lon="1.96225">
        <ele>104</ele>
        <time>2018-01-21T07:56:22.000Z</time>
      </trkpt>
      <trkpt lat="47.82563" lon="1.96207">
        <ele>104</ele>
        <time>2018-01-21T07:56:26.000Z</time>
      </trkpt>
      <trkpt lat="47.8256" lon="1.96191">
        <ele>102</ele>
        <time>2018-01-21T07:56:31.000Z</time>
      </trkpt>
      <trkpt lat="47.82556" lon="1.9618">
        <ele>100</ele>
        <time>2018-01-21T07:56:34.000Z</time>
      </trkpt>
      <trkpt lat="47.8255" lon="1.96165">
        <ele>97</ele>
        <time>2018-01-21T07:56:38.000Z</time>
      </trkpt>
      <trkpt lat="47.82549" lon="1.96155">
        <ele>96</ele>
        <time>2018-01-21T07:56:40.000Z</time>
      </trkpt>
      <trkpt lat="47.82548" lon="1.96147">
        <ele>94</ele>
        <time>2018-01-21T07:56:42.000Z</time>
      </trkpt>
      <trkpt lat="47.82542" lon="1.9613">
        <ele>91</ele>
        <time>2018-01-21T07:56:46.000Z</time>
      </trkpt>
      <trkpt lat="47.82533" lon="1.96109">
        <ele>86</ele>
        <time>2018-01-21T07:56:51.000Z</time>
      </trkpt>
      <trkpt lat="47.82516" lon="1.96085">
        <ele>82</ele>
        <time>2018-01-21T07:56:57.000Z</time>
      </trkpt>
      <trkpt lat="47.82512" lon="1.96068">
        <ele>81</ele>
        <time>2018-01-21T07:57:00.000Z</time>
      </trkpt>
      <trkpt lat="47.82512" lon="1.96056">
        <ele>81</ele>
        <time>2018-01-21T07:57:02.000Z</time>
      </trkpt>
      <trkpt lat="47.82507" lon="1.96025">
        <ele>78</ele>
        <time>2018-01-21T07:57:09.000Z</time>
      </trkpt>
      <trkpt lat="47.82504" lon="1.96005">
        <ele>79</ele>
        <time>2018-01-21T07:57:15.000Z</time>
      </trkpt>
      <trkpt lat="47.825" lon="1.95986">
        <ele>78</ele>
        <time>2018-01-21T07:57:20.000Z</time>
      </trkpt>
      <trkpt lat="47.82498" lon="1.95972">
        <ele>78</ele>
        <time>2018-01-21T07:57:23.000Z</time>
      </trkpt>
      <trkpt lat="47.82495" lon="1.95961">
        <ele>77</ele>
        <time>2018-01-21T07:57:25.000Z</time>
      </trkpt>
      <trkpt lat="47.8249" lon="1.95947">
        <ele>78</ele>
        <time>2018-01-21T07:57:28.000Z</time>
      </trkpt>
      <trkpt lat="47.82484" lon="1.95935">
        <ele>78</ele>
        <time>2018-01-21T07:57:31.000Z</time>
      </trkpt>
      <trkpt lat="47.82479" lon="1.95926">
        <ele>79</ele>
        <time>2018-01-21T07:57:33.000Z</time>
      </trkpt>
      <trkpt lat="47.82473" lon="1.95918">
        <ele>80</ele>
        <time>2018-01-21T07:57:35.000Z</time>
      </trkpt>
      <trkpt lat="47.82468" lon="1.95905">
        <ele>82</ele>
        <time>2018-01-21T07:57:38.000Z</time>
      </trkpt>
      <trkpt lat="47.8246" lon="1.95871">
        <ele>82</ele>
        <time>2018-01-21T07:57:45.000Z</time>
      </trkpt>
      <trkpt lat="47.82443" lon="1.9584">
        <ele>84</ele>
        <time>2018-01-21T07:57:51.000Z</time>
      </trkpt>
      <trkpt lat="47.82426" lon="1.95815">
        <ele>87</ele>
        <time>2018-01-21T07:57:57.000Z</time>
      </trkpt>
      <trkpt lat="47.82416" lon="1.95808">
        <ele>88</ele>
        <time>2018-01-21T07:58:00.000Z</time>
      </trkpt>
      <trkpt lat="47.8241" lon="1.958">
        <ele>89</ele>
        <time>2018-01-21T07:58:02.000Z</time>
      </trkpt>
      <trkpt lat="47.82403" lon="1.95786">
        <ele>90</ele>
        <time>2018-01-21T07:58:05.000Z</time>
      </trkpt>
      <trkpt lat="47.82391" lon="1.95725">
        <ele>90</ele>
        <time>2018-01-21T07:58:14.000Z</time>
      </trkpt>
      <trkpt lat="47.82389" lon="1.9572">
        <ele>91</ele>
        <time>2018-01-21T07:58:15.000Z</time>
      </trkpt>
      <trkpt lat="47.82383" lon="1.95712">
        <ele>91</ele>
        <time>2018-01-21T07:58:17.000Z</time>
      </trkpt>
      <trkpt lat="47.82374" lon="1.95701">
        <ele>93</ele>
        <time>2018-01-21T07:58:20.000Z</time>
      </trkpt>
      <trkpt lat="47.82342" lon="1.95649">
        <ele>97</ele>
        <time>2018-01-21T07:58:30.000Z</time>
      </trkpt>
      <trkpt lat="47.82338" lon="1.95645">
        <ele>98</ele>
        <time>2018-01-21T07:58:31.000Z</time>
      </trkpt>
      <trkpt lat="47.82331" lon="1.95642">
        <ele>98</ele>
        <time>2018-01-21T07:58:33.000Z</time>
      </trkpt>
      <trkpt lat="47.82325" lon="1.95647">
        <ele>99</ele>
        <time>2018-01-21T07:58:35.000Z</time>
      </trkpt>
      <trkpt lat="47.82319" lon="1.95659">
        <ele>100</ele>
        <time>2018-01-21T07:58:38.000Z</time>
      </trkpt>
      <trkpt lat="47.82319" lon="1.9567">
        <ele>100</ele>
        <time>2018-01-21T07:58:40.000Z</time>
      </trkpt>
      <trkpt lat="47.82322" lon="1.9568">
        <ele>101</ele>
        <time>2018-01-21T07:58:42.000Z</time>
      </trkpt>
      <trkpt lat="47.82334" lon="1.95714">
        <ele>103</ele>
        <time>2018-01-21T07:58:48.000Z</time>
      </trkpt>
      <trkpt lat="47.82337" lon="1.95722">
        <ele>104</ele>
        <time>2018-01-21T07:58:50.000Z</time>
      </trkpt>
      <trkpt lat="47.82335" lon="1.95732">
        <ele>105</ele>
        <time>2018-01-21T07:58:53.000Z</time>
      </trkpt>
      <trkpt lat="47.82318" lon="1.95767">
        <ele>109</ele>
        <time>2018-01-21T07:59:01.000Z</time>
      </trkpt>
      <trkpt lat="47.82309" lon="1.95786">
        <ele>110</ele>
        <time>2018-01-21T07:59:05.000Z</time>
      </trkpt>
      <trkpt lat="47.82297" lon="1.95817">
        <ele>112</ele>
        <time>2018-01-21T07:59:12.000Z</time>
      </trkpt>
      <trkpt lat="47.82284" lon="1.95837">
        <ele>114</ele>
        <time>2018-01-21T07:59:17.000Z</time>
      </trkpt>
      <trkpt lat="47.82283" lon="1.9585">
        <ele>114</ele>
        <time>2018-01-21T07:59:19.000Z</time>
      </trkpt>
      <trkpt lat="47.82291" lon="1.95877">
        <ele>115</ele>
        <time>2018-01-21T07:59:23.000Z</time>
      </trkpt>
      <trkpt lat="47.82299" lon="1.95911">
        <ele>118</ele>
        <time>2018-01-21T07:59:28.000Z</time>
      </trkpt>
      <trkpt lat="47.82301" lon="1.95923">
        <ele>120</ele>
        <time>2018-01-21T07:59:30.000Z</time>
      </trkpt>
      <trkpt lat="47.82305" lon="1.9594">
        <ele>121</ele>
        <time>2018-01-21T07:59:33.000Z</time>
      </trkpt>
      <trkpt lat="47.82306" lon="1.95953">
        <ele>123</ele>
        <time>2018-01-21T07:59:36.000Z</time>
      </trkpt>
      <trkpt lat="47.8231" lon="1.95968">
        <ele>124</ele>
        <time>2018-01-21T07:59:39.000Z</time>
      </trkpt>
      <trkpt lat="47.82319" lon="1.95999">
        <ele>124</ele>
        <time>2018-01-21T07:59:43.000Z</time>
      </trkpt>
      <trkpt lat="47.82349" lon="1.96054">
        <ele>123</ele>
        <time>2018-01-21T07:59:51.000Z</time>
      </trkpt>
      <trkpt lat="47.82352" lon="1.9606">
        <ele>124</ele>
        <time>2018-01-21T07:59:52.000Z</time>
      </trkpt>
      <trkpt lat="47.82372" lon="1.96096">
        <ele>125</ele>
        <time>2018-01-21T07:59:57.000Z</time>
      </trkpt>
      <trkpt lat="47.82393" lon="1.96126">
        <ele>124</ele>
        <time>2018-01-21T08:00:02.000Z</time>
      </trkpt>
      <trkpt lat="47.82409" lon="1.96158">
        <ele>121</ele>
        <time>2018-01-21T08:00:07.000Z</time>
      </trkpt>
      <trkpt lat="47.82409" lon="1.96177">
        <ele>118</ele>
        <time>2018-01-21T08:00:11.000Z</time>
      </trkpt>
      <trkpt lat="47.82404" lon="1.96184">
        <ele>117</ele>
        <time>2018-01-21T08:00:13.000Z</time>
      </trkpt>
      <trkpt lat="47.82386" lon="1.96209">
        <ele>112</ele>
        <time>2018-01-21T08:00:17.000Z</time>
      </trkpt>
      <trkpt lat="47.8238" lon="1.96227">
        <ele>111</ele>
        <time>2018-01-21T08:00:19.000Z</time>
      </trkpt>
      <trkpt lat="47.82358" lon="1.96289">
        <ele>108</ele>
        <time>2018-01-21T08:00:27.000Z</time>
      </trkpt>
      <trkpt lat="47.82357" lon="1.96298">
        <ele>108</ele>
        <time>2018-01-21T08:00:28.000Z</time>
      </trkpt>
      <trkpt lat="47.82355" lon="1.96334">
        <ele>106</ele>
        <time>2018-01-21T08:00:33.000Z</time>
      </trkpt>
      <trkpt lat="47.82364" lon="1.96358">
        <ele>106</ele>
        <time>2018-01-21T08:00:37.000Z</time>
      </trkpt>
      <trkpt lat="47.8236" lon="1.96371">
        <ele>106</ele>
        <time>2018-01-21T08:00:40.000Z</time>
      </trkpt>
      <trkpt lat="47.82355" lon="1.96379">
        <ele>106</ele>
        <time>2018-01-21T08:00:42.000Z</time>
      </trkpt>
      <trkpt lat="47.82343" lon="1.96386">
        <ele>107</ele>
        <time>2018-01-21T08:00:45.000Z</time>
      </trkpt>
      <trkpt lat="47.82331" lon="1.96397">
        <ele>107</ele>
        <time>2018-01-21T08:00:48.000Z</time>
      </trkpt>
      <trkpt lat="47.82313" lon="1.96441">
        <ele>108</ele>
        <time>2018-01-21T08:00:55.000Z</time>
      </trkpt>
      <trkpt lat="47.82312" lon="1.96463">
        <ele>108</ele>
        <time>2018-01-21T08:00:59.000Z</time>
      </trkpt>
      <trkpt lat="47.82307" lon="1.96473">
        <ele>109</ele>
        <time>2018-01-21T08:01:01.000Z</time>
      </trkpt>
      <trkpt lat="47.82296" lon="1.96487">
        <ele>109</ele>
        <time>2018-01-21T08:01:04.000Z</time>
      </trkpt>
      <trkpt lat="47.82286" lon="1.96556">
        <ele>106</ele>
        <time>2018-01-21T08:01:13.000Z</time>
      </trkpt>
      <trkpt lat="47.82286" lon="1.96563">
        <ele>105</ele>
        <time>2018-01-21T08:01:14.000Z</time>
      </trkpt>
      <trkpt lat="47.82287" lon="1.96578">
        <ele>104</ele>
        <time>2018-01-21T08:01:16.000Z</time>
      </trkpt>
      <trkpt lat="47.82285" lon="1.96605">
        <ele>102</ele>
        <time>2018-01-21T08:01:20.000Z</time>
      </trkpt>
      <trkpt lat="47.82279" lon="1.96625">
        <ele>101</ele>
        <time>2018-01-21T08:01:23.000Z</time>
      </trkpt>
      <trkpt lat="47.82262" lon="1.96655">
        <ele>100</ele>
        <time>2018-01-21T08:01:28.000Z</time>
      </trkpt>
      <trkpt lat="47.82247" lon="1.96724">
        <ele>102</ele>
        <time>2018-01-21T08:01:38.000Z</time>
      </trkpt>
      <trkpt lat="47.82245" lon="1.96731">
        <ele>102</ele>
        <time>2018-01-21T08:01:39.000Z</time>
      </trkpt>
      <trkpt lat="47.82239" lon="1.9678">
        <ele>104</ele>
        <time>2018-01-21T08:01:45.000Z</time>
      </trkpt>
      <trkpt lat="47.82236" lon="1.96802">
        <ele>104</ele>
        <time>2018-01-21T08:01:48.000Z</time>
      </trkpt>
      <trkpt lat="47.82233" lon="1.9687">
        <ele>103</ele>
        <time>2018-01-21T08:01:57.000Z</time>
      </trkpt>
      <trkpt lat="47.82232" lon="1.96878">
        <ele>103</ele>
        <time>2018-01-21T08:01:58.000Z</time>
      </trkpt>
      <trkpt lat="47.82232" lon="1.96903">
        <ele>103</ele>
        <time>2018-01-21T08:02:03.000Z</time>
      </trkpt>
      <trkpt lat="47.82237" lon="1.96916">
        <ele>103</ele>
        <time>2018-01-21T08:02:06.000Z</time>
      </trkpt>
      <trkpt lat="47.82242" lon="1.96921">
        <ele>103</ele>
        <time>2018-01-21T08:02:09.000Z</time>
      </trkpt>
      <trkpt lat="47.82248" lon="1.96915">
        <ele>103</ele>
        <time>2018-01-21T08:02:12.000Z</time>
      </trkpt>
      <trkpt lat="47.82249" lon="1.96905">
        <ele>102</ele>
        <time>2018-01-21T08:02:14.000Z</time>
      </trkpt>
      <trkpt lat="47.8226" lon="1.96834">
        <ele>97</ele>
        <time>2018-01-21T08:02:24.000Z</time>
      </trkpt>
      <trkpt lat="47.82262" lon="1.96826">
        <ele>97</ele>
        <time>2018-01-21T08:02:25.000Z</time>
      </trkpt>
      <trkpt lat="47.82264" lon="1.96819">
        <ele>96</ele>
        <time>2018-01-21T08:02:26.000Z</time>
      </trkpt>
      <trkpt lat="47.82269" lon="1.96794">
        <ele>95</ele>
        <time>2018-01-21T08:02:30.000Z</time>
      </trkpt>
      <trkpt lat="47.82272" lon="1.96771">
        <ele>93</ele>
        <time>2018-01-21T08:02:34.000Z</time>
      </trkpt>
      <trkpt lat="47.82272" lon="1.96755">
        <ele>92</ele>
        <time>2018-01-21T08:02:37.000Z</time>
      </trkpt>
      <trkpt lat="47.82275" lon="1.96736">
        <ele>90</ele>
        <time>2018-01-21T08:02:40.000Z</time>
      </trkpt>
      <trkpt lat="47.82281" lon="1.96714">
        <ele>89</ele>
        <time>2018-01-21T08:02:43.000Z</time>
      </trkpt>
      <trkpt lat="47.82306" lon="1.9667">
        <ele>88</ele>
        <time>2018-01-21T08:02:50.000Z</time>
      </trkpt>
      <trkpt lat="47.82328" lon="1.96651">
        <ele>87</ele>
        <time>2018-01-21T08:02:55.000Z</time>
      </trkpt>
      <trkpt lat="47.82351" lon="1.96643">
        <ele>87</ele>
        <time>2018-01-21T08:03:01.000Z</time>
      </trkpt>
      <trkpt lat="47.82357" lon="1.96649">
        <ele>88</ele>
        <time>2018-01-21T08:03:04.000Z</time>
      </trkpt>
      <trkpt lat="47.82381" lon="1.96659">
        <ele>93</ele>
        <time>2018-01-21T08:03:14.000Z</time>
      </trkpt>
      <trkpt lat="47.82426" lon="1.96662">
        <ele>99</ele>
        <time>2018-01-21T08:03:27.000Z</time>
      </trkpt>
      <trkpt lat="47.82429" lon="1.96664">
        <ele>99</ele>
        <time>2018-01-21T08:03:28.000Z</time>
      </trkpt>
      <trkpt lat="47.8244" lon="1.96669">
        <ele>99</ele>
        <time>2018-01-21T08:03:31.000Z</time>
      </trkpt>
      <trkpt lat="47.82463" lon="1.96669">
        <ele>102</ele>
        <time>2018-01-21T08:03:38.000Z</time>
      </trkpt>
      <trkpt lat="47.82468" lon="1.96676">
        <ele>103</ele>
        <time>2018-01-21T08:03:40.000Z</time>
      </trkpt>
      <trkpt lat="47.82476" lon="1.96689">
        <ele>106</ele>
        <time>2018-01-21T08:03:44.000Z</time>
      </trkpt>
      <trkpt lat="47.82486" lon="1.96691">
        <ele>108</ele>
        <time>2018-01-21T08:03:48.000Z</time>
      </trkpt>
      <trkpt lat="47.82497" lon="1.96699">
        <ele>112</ele>
        <time>2018-01-21T08:03:53.000Z</time>
      </trkpt>
      <trkpt lat="47.82517" lon="1.96698">
        <ele>114</ele>
        <time>2018-01-21T08:03:59.000Z</time>
      </trkpt>
      <trkpt lat="47.8254" lon="1.96712">
        <ele>117</ele>
        <time>2018-01-21T08:04:06.000Z</time>
      </trkpt>
      <trkpt lat="47.82549" lon="1.96713">
        <ele>117</ele>
        <time>2018-01-21T08:04:09.000Z</time>
      </trkpt>
      <trkpt lat="47.82558" lon="1.96717">
        <ele>118</ele>
        <time>2018-01-21T08:04:12.000Z</time>
      </trkpt>
      <trkpt lat="47.82565" lon="1.9672">
        <ele>118</ele>
        <time>2018-01-21T08:04:14.000Z</time>
      </trkpt>
      <trkpt lat="47.82592" lon="1.96723">
        <ele>118</ele>
        <time>2018-01-21T08:04:22.000Z</time>
      </trkpt>
      <trkpt lat="47.82611" lon="1.96718">
        <ele>118</ele>
        <time>2018-01-21T08:04:27.000Z</time>
      </trkpt>
      <trkpt lat="47.8262" lon="1.96723">
        <ele>118</ele>
        <time>2018-01-21T08:04:30.000Z</time>
      </trkpt>
      <trkpt lat="47.82635" lon="1.96743">
        <ele>120</ele>
        <time>2018-01-21T08:04:37.000Z</time>
      </trkpt>
      <trkpt lat="47.82632" lon="1.96755">
        <ele>120</ele>
        <time>2018-01-21T08:04:41.000Z</time>
      </trkpt>
      <trkpt lat="47.8259" lon="1.96784">
        <ele>118</ele>
        <time>2018-01-21T08:04:53.000Z</time>
      </trkpt>
      <trkpt lat="47.82586" lon="1.96788">
        <ele>118</ele>
        <time>2018-01-21T08:04:54.000Z</time>
      </trkpt>
      <trkpt lat="47.82544" lon="1.96816">
        <ele>118</ele>
        <time>2018-01-21T08:05:04.000Z</time>
      </trkpt>
      <trkpt lat="47.82539" lon="1.96818">
        <ele>118</ele>
        <time>2018-01-21T08:05:05.000Z</time>
      </trkpt>
      <trkpt lat="47.82497" lon="1.96844">
        <ele>116</ele>
        <time>2018-01-21T08:05:14.000Z</time>
      </trkpt>
      <trkpt lat="47.82492" lon="1.96846">
        <ele>116</ele>
        <time>2018-01-21T08:05:15.000Z</time>
      </trkpt>
      <trkpt lat="47.82448" lon="1.96872">
        <ele>113</ele>
        <time>2018-01-21T08:05:24.000Z</time>
      </trkpt>
      <trkpt lat="47.82444" lon="1.96875">
        <ele>112</ele>
        <time>2018-01-21T08:05:25.000Z</time>
      </trkpt>
      <trkpt lat="47.82401" lon="1.96899">
        <ele>110</ele>
        <time>2018-01-21T08:05:34.000Z</time>
      </trkpt>
      <trkpt lat="47.82396" lon="1.96902">
        <ele>109</ele>
        <time>2018-01-21T08:05:35.000Z</time>
      </trkpt>
      <trkpt lat="47.82367" lon="1.96924">
        <ele>109</ele>
        <time>2018-01-21T08:05:41.000Z</time>
      </trkpt>
      <trkpt lat="47.82362" lon="1.96939">
        <ele>109</ele>
        <time>2018-01-21T08:05:43.000Z</time>
      </trkpt>
      <trkpt lat="47.82351" lon="1.9701">
        <ele>109</ele>
        <time>2018-01-21T08:05:52.000Z</time>
      </trkpt>
      <trkpt lat="47.82349" lon="1.97018">
        <ele>108</ele>
        <time>2018-01-21T08:05:53.000Z</time>
      </trkpt>
      <trkpt lat="47.82341" lon="1.97076">
        <ele>106</ele>
        <time>2018-01-21T08:06:01.000Z</time>
      </trkpt>
      <trkpt lat="47.82349" lon="1.97081">
        <ele>106</ele>
        <time>2018-01-21T08:06:05.000Z</time>
      </trkpt>
      <trkpt lat="47.82386" lon="1.97083">
        <ele>106</ele>
        <time>2018-01-21T08:06:14.000Z</time>
      </trkpt>
      <trkpt lat="47.82393" lon="1.97083">
        <ele>107</ele>
        <time>2018-01-21T08:06:16.000Z</time>
      </trkpt>
      <trkpt lat="47.82403" lon="1.97088">
        <ele>107</ele>
        <time>2018-01-21T08:06:19.000Z</time>
      </trkpt>
      <trkpt lat="47.8241" lon="1.97094">
        <ele>107</ele>
        <time>2018-01-21T08:06:21.000Z</time>
      </trkpt>
      <trkpt lat="47.82412" lon="1.97103">
        <ele>107</ele>
        <time>2018-01-21T08:06:23.000Z</time>
      </trkpt>
      <trkpt lat="47.82412" lon="1.97116">
        <ele>108</ele>
        <time>2018-01-21T08:06:26.000Z</time>
      </trkpt>
      <trkpt lat="47.82417" lon="1.9712">
        <ele>108</ele>
        <time>2018-01-21T08:06:28.000Z</time>
      </trkpt>
      <trkpt lat="47.8243" lon="1.97119">
        <ele>108</ele>
        <time>2018-01-21T08:06:31.000Z</time>
      </trkpt>
      <trkpt lat="47.82478" lon="1.97128">
        <ele>109</ele>
        <time>2018-01-21T08:06:40.000Z</time>
      </trkpt>
      <trkpt lat="47.82484" lon="1.97129">
        <ele>109</ele>
        <time>2018-01-21T08:06:41.000Z</time>
      </trkpt>
      <trkpt lat="47.82517" lon="1.97131">
        <ele>108</ele>
        <time>2018-01-21T08:06:47.000Z</time>
      </trkpt>
      <trkpt lat="47.82536" lon="1.97131">
        <ele>108</ele>
        <time>2018-01-21T08:06:51.000Z</time>
      </trkpt>
      <trkpt lat="47.82542" lon="1.97144">
        <ele>108</ele>
        <time>2018-01-21T08:06:55.000Z</time>
      </trkpt>
      <trkpt lat="47.82535" lon="1.97171">
        <ele>107</ele>
        <time>2018-01-21T08:07:01.000Z</time>
      </trkpt>
      <trkpt lat="47.82516" lon="1.97237">
        <ele>107</ele>
        <time>2018-01-21T08:07:13.000Z</time>
      </trkpt>
      <trkpt lat="47.82514" lon="1.97242">
        <ele>107</ele>
        <time>2018-01-21T08:07:14.000Z</time>
      </trkpt>
      <trkpt lat="47.82493" lon="1.97303">
        <ele>107</ele>
        <time>2018-01-21T08:07:26.000Z</time>
      </trkpt>
      <trkpt lat="47.82491" lon="1.97309">
        <ele>107</ele>
        <time>2018-01-21T08:07:27.000Z</time>
      </trkpt>
      <trkpt lat="47.82471" lon="1.97373">
        <ele>107</ele>
        <time>2018-01-21T08:07:39.000Z</time>
      </trkpt>
      <trkpt lat="47.82469" lon="1.97379">
        <ele>107</ele>
        <time>2018-01-21T08:07:40.000Z</time>
      </trkpt>
      <trkpt lat="47.82463" lon="1.97401">
        <ele>107</ele>
        <time>2018-01-21T08:07:44.000Z</time>
      </trkpt>
      <trkpt lat="47.82444" lon="1.97465">
        <ele>108</ele>
        <time>2018-01-21T08:07:54.000Z</time>
      </trkpt>
      <trkpt lat="47.82441" lon="1.97472">
        <ele>108</ele>
        <time>2018-01-21T08:07:55.000Z</time>
      </trkpt>
      <trkpt lat="47.82428" lon="1.97513">
        <ele>107</ele>
        <time>2018-01-21T08:08:01.000Z</time>
      </trkpt>
      <trkpt lat="47.82404" lon="1.97549">
        <ele>107</ele>
        <time>2018-01-21T08:08:07.000Z</time>
      </trkpt>
      <trkpt lat="47.82366" lon="1.97594">
        <ele>107</ele>
        <time>2018-01-21T08:08:15.000Z</time>
      </trkpt>
      <trkpt lat="47.82362" lon="1.97599">
        <ele>107</ele>
        <time>2018-01-21T08:08:16.000Z</time>
      </trkpt>
      <trkpt lat="47.82327" lon="1.97647">
        <ele>107</ele>
        <time>2018-01-21T08:08:25.000Z</time>
      </trkpt>
      <trkpt lat="47.82324" lon="1.97653">
        <ele>107</ele>
        <time>2018-01-21T08:08:26.000Z</time>
      </trkpt>
      <trkpt lat="47.82321" lon="1.9766">
        <ele>107</ele>
        <time>2018-01-21T08:08:27.000Z</time>
      </trkpt>
      <trkpt lat="47.82295" lon="1.97722">
        <ele>106</ele>
        <time>2018-01-21T08:08:36.000Z</time>
      </trkpt>
      <trkpt lat="47.82292" lon="1.97726">
        <ele>106</ele>
        <time>2018-01-21T08:08:37.000Z</time>
      </trkpt>
      <trkpt lat="47.82271" lon="1.97743">
        <ele>108</ele>
        <time>2018-01-21T08:08:42.000Z</time>
      </trkpt>
      <trkpt lat="47.82253" lon="1.97759">
        <ele>109</ele>
        <time>2018-01-21T08:08:46.000Z</time>
      </trkpt>
      <trkpt lat="47.82246" lon="1.97766">
        <ele>109</ele>
        <time>2018-01-21T08:08:48.000Z</time>
      </trkpt>
      <trkpt lat="47.82222" lon="1.97782">
        <ele>109</ele>
        <time>2018-01-21T08:08:54.000Z</time>
      </trkpt>
      <trkpt lat="47.82214" lon="1.97778">
        <ele>109</ele>
        <time>2018-01-21T08:08:56.000Z</time>
      </trkpt>
      <trkpt lat="47.82204" lon="1.97759">
        <ele>108</ele>
        <time>2018-01-21T08:08:59.000Z</time>
      </trkpt>
      <trkpt lat="47.82195" lon="1.97738">
        <ele>106</ele>
        <time>2018-01-21T08:09:03.000Z</time>
      </trkpt>
      <trkpt lat="47.82186" lon="1.97727">
        <ele>105</ele>
        <time>2018-01-21T08:09:06.000Z</time>
      </trkpt>
      <trkpt lat="47.82181" lon="1.97721">
        <ele>105</ele>
        <time>2018-01-21T08:09:08.000Z</time>
      </trkpt>
      <trkpt lat="47.82173" lon="1.97714">
        <ele>104</ele>
        <time>2018-01-21T08:09:11.000Z</time>
      </trkpt>
      <trkpt lat="47.82166" lon="1.97705">
        <ele>103</ele>
        <time>2018-01-21T08:09:14.000Z</time>
      </trkpt>
      <trkpt lat="47.82159" lon="1.977">
        <ele>102</ele>
        <time>2018-01-21T08:09:16.000Z</time>
      </trkpt>
      <trkpt lat="47.82125" lon="1.9766">
        <ele>101</ele>
        <time>2018-01-21T08:09:24.000Z</time>
      </trkpt>
      <trkpt lat="47.82119" lon="1.97657">
        <ele>101</ele>
        <time>2018-01-21T08:09:25.000Z</time>
      </trkpt>
      <trkpt lat="47.82085" lon="1.97648">
        <ele>101</ele>
        <time>2018-01-21T08:09:31.000Z</time>
      </trkpt>
      <trkpt lat="47.8207" lon="1.97642">
        <ele>101</ele>
        <time>2018-01-21T08:09:34.000Z</time>
      </trkpt>
      <trkpt lat="47.82027" lon="1.97617">
        <ele>101</ele>
        <time>2018-01-21T08:09:42.000Z</time>
      </trkpt>
      <trkpt lat="47.82021" lon="1.97614">
        <ele>101</ele>
        <time>2018-01-21T08:09:43.000Z</time>
      </trkpt>
      <trkpt lat="47.82004" lon="1.97606">
        <ele>102</ele>
        <time>2018-01-21T08:09:46.000Z</time>
      </trkpt>
      <trkpt lat="47.81993" lon="1.97606">
        <ele>102</ele>
        <time>2018-01-21T08:09:49.000Z</time>
      </trkpt>
      <trkpt lat="47.81986" lon="1.97617">
        <ele>102</ele>
        <time>2018-01-21T08:09:52.000Z</time>
      </trkpt>
      <trkpt lat="47.81982" lon="1.97625">
        <ele>102</ele>
        <time>2018-01-21T08:09:54.000Z</time>
      </trkpt>
      <trkpt lat="47.81976" lon="1.97627">
        <ele>102</ele>
        <time>2018-01-21T08:09:56.000Z</time>
      </trkpt>
      <trkpt lat="47.81953" lon="1.97623">
        <ele>104</ele>
        <time>2018-01-21T08:10:01.000Z</time>
      </trkpt>
      <trkpt lat="47.81939" lon="1.97619">
        <ele>105</ele>
        <time>2018-01-21T08:10:04.000Z</time>
      </trkpt>
      <trkpt lat="47.81924" lon="1.97623">
        <ele>106</ele>
        <time>2018-01-21T08:10:07.000Z</time>
      </trkpt>
      <trkpt lat="47.8188" lon="1.97635">
        <ele>109</ele>
        <time>2018-01-21T08:10:16.000Z</time>
      </trkpt>
      <trkpt lat="47.81875" lon="1.97637">
        <ele>110</ele>
        <time>2018-01-21T08:10:17.000Z</time>
      </trkpt>
      <trkpt lat="47.81831" lon="1.97653">
        <ele>115</ele>
        <time>2018-01-21T08:10:28.000Z</time>
      </trkpt>
      <trkpt lat="47.81827" lon="1.97654">
        <ele>115</ele>
        <time>2018-01-21T08:10:29.000Z</time>
      </trkpt>
      <trkpt lat="47.81794" lon="1.9767">
        <ele>116</ele>
        <time>2018-01-21T08:10:38.000Z</time>
      </trkpt>
      <trkpt lat="47.81755" lon="1.97709">
        <ele>118</ele>
        <time>2018-01-21T08:10:51.000Z</time>
      </trkpt>
      <trkpt lat="47.81752" lon="1.97713">
        <ele>118</ele>
        <time>2018-01-21T08:10:52.000Z</time>
      </trkpt>
      <trkpt lat="47.81749" lon="1.97717">
        <ele>118</ele>
        <time>2018-01-21T08:10:53.000Z</time>
      </trkpt>
      <trkpt lat="47.81716" lon="1.97763">
        <ele>114</ele>
        <time>2018-01-21T08:11:03.000Z</time>
      </trkpt>
      <trkpt lat="47.81712" lon="1.97768">
        <ele>114</ele>
        <time>2018-01-21T08:11:04.000Z</time>
      </trkpt>
      <trkpt lat="47.81677" lon="1.97814">
        <ele>111</ele>
        <time>2018-01-21T08:11:12.000Z</time>
      </trkpt>
      <trkpt lat="47.81673" lon="1.97818">
        <ele>111</ele>
        <time>2018-01-21T08:11:13.000Z</time>
      </trkpt>
      <trkpt lat="47.81669" lon="1.97819">
        <ele>111</ele>
        <time>2018-01-21T08:11:14.000Z</time>
      </trkpt>
      <trkpt lat="47.81658" lon="1.97817">
        <ele>111</ele>
        <time>2018-01-21T08:11:16.000Z</time>
      </trkpt>
      <trkpt lat="47.81613" lon="1.97802">
        <ele>108</ele>
        <time>2018-01-21T08:11:23.000Z</time>
      </trkpt>
      <trkpt lat="47.81609" lon="1.97804">
        <ele>107</ele>
        <time>2018-01-21T08:11:24.000Z</time>
      </trkpt>
      <trkpt lat="47.81596" lon="1.97815">
        <ele>106</ele>
        <time>2018-01-21T08:11:27.000Z</time>
      </trkpt>
      <trkpt lat="47.81577" lon="1.9784">
        <ele>105</ele>
        <time>2018-01-21T08:11:33.000Z</time>
      </trkpt>
      <trkpt lat="47.81557" lon="1.97855">
        <ele>106</ele>
        <time>2018-01-21T08:11:38.000Z</time>
      </trkpt>
      <trkpt lat="47.81551" lon="1.97861">
        <ele>106</ele>
        <time>2018-01-21T08:11:40.000Z</time>
      </trkpt>
      <trkpt lat="47.81532" lon="1.97876">
        <ele>107</ele>
        <time>2018-01-21T08:11:45.000Z</time>
      </trkpt>
      <trkpt lat="47.81508" lon="1.97898">
        <ele>108</ele>
        <time>2018-01-21T08:11:55.000Z</time>
      </trkpt>
      <trkpt lat="47.81458" lon="1.97896">
        <ele>107</ele>
        <time>2018-01-21T08:12:04.000Z</time>
      </trkpt>
      <trkpt lat="47.81452" lon="1.97897">
        <ele>106</ele>
        <time>2018-01-21T08:12:05.000Z</time>
      </trkpt>
      <trkpt lat="47.81404" lon="1.97898">
        <ele>102</ele>
        <time>2018-01-21T08:12:14.000Z</time>
      </trkpt>
      <trkpt lat="47.81399" lon="1.97898">
        <ele>101</ele>
        <time>2018-01-21T08:12:15.000Z</time>
      </trkpt>
      <trkpt lat="47.81349" lon="1.97904">
        <ele>100</ele>
        <time>2018-01-21T08:12:25.000Z</time>
      </trkpt>
      <trkpt lat="47.81345" lon="1.97905">
        <ele>100</ele>
        <time>2018-01-21T08:12:26.000Z</time>
      </trkpt>
      <trkpt lat="47.81298" lon="1.97915">
        <ele>100</ele>
        <time>2018-01-21T08:12:36.000Z</time>
      </trkpt>
      <trkpt lat="47.81295" lon="1.97917">
        <ele>100</ele>
        <time>2018-01-21T08:12:37.000Z</time>
      </trkpt>
      <trkpt lat="47.81284" lon="1.97924">
        <ele>101</ele>
        <time>2018-01-21T08:12:40.000Z</time>
      </trkpt>
      <trkpt lat="47.81279" lon="1.9793">
        <ele>102</ele>
        <time>2018-01-21T08:12:42.000Z</time>
      </trkpt>
      <trkpt lat="47.81272" lon="1.97937">
        <ele>104</ele>
        <time>2018-01-21T08:12:45.000Z</time>
      </trkpt>
      <trkpt lat="47.81265" lon="1.97945">
        <ele>105</ele>
        <time>2018-01-21T08:12:48.000Z</time>
      </trkpt>
      <trkpt lat="47.81256" lon="1.97958">
        <ele>106</ele>
        <time>2018-01-21T08:12:52.000Z</time>
      </trkpt>
      <trkpt lat="47.81244" lon="1.97963">
        <ele>107</ele>
        <time>2018-01-21T08:12:58.000Z</time>
      </trkpt>
      <trkpt lat="47.81218" lon="1.97908">
        <ele>105</ele>
        <time>2018-01-21T08:13:09.000Z</time>
      </trkpt>
      <trkpt lat="47.81216" lon="1.97903">
        <ele>105</ele>
        <time>2018-01-21T08:13:10.000Z</time>
      </trkpt>
      <trkpt lat="47.81193" lon="1.97841">
        <ele>106</ele>
        <time>2018-01-21T08:13:24.000Z</time>
      </trkpt>
      <trkpt lat="47.81192" lon="1.97837">
        <ele>106</ele>
        <time>2018-01-21T08:13:25.000Z</time>
      </trkpt>
      <trkpt lat="47.81171" lon="1.97773">
        <ele>106</ele>
        <time>2018-01-21T08:13:38.000Z</time>
      </trkpt>
      <trkpt lat="47.81169" lon="1.97768">
        <ele>106</ele>
        <time>2018-01-21T08:13:39.000Z</time>
      </trkpt>
      <trkpt lat="47.81149" lon="1.97705">
        <ele>107</ele>
        <time>2018-01-21T08:13:52.000Z</time>
      </trkpt>
      <trkpt lat="47.81147" lon="1.977">
        <ele>107</ele>
        <time>2018-01-21T08:13:53.000Z</time>
      </trkpt>
      <trkpt lat="47.81128" lon="1.97639">
        <ele>108</ele>
        <time>2018-01-21T08:14:06.000Z</time>
      </trkpt>
      <trkpt lat="47.81126" lon="1.97634">
        <ele>108</ele>
        <time>2018-01-21T08:14:07.000Z</time>
      </trkpt>
      <trkpt lat="47.8111" lon="1.97576">
        <ele>107</ele>
        <time>2018-01-21T08:14:19.000Z</time>
      </trkpt>
      <trkpt lat="47.81109" lon="1.97571">
        <ele>107</ele>
        <time>2018-01-21T08:14:20.000Z</time>
      </trkpt>
      <trkpt lat="47.81093" lon="1.97524">
        <ele>107</ele>
        <time>2018-01-21T08:14:29.000Z</time>
      </trkpt>
      <trkpt lat="47.81088" lon="1.97526">
        <ele>107</ele>
        <time>2018-01-21T08:14:31.000Z</time>
      </trkpt>
      <trkpt lat="47.81059" lon="1.97571">
        <ele>107</ele>
        <time>2018-01-21T08:14:40.000Z</time>
      </trkpt>
      <trkpt lat="47.81055" lon="1.97577">
        <ele>107</ele>
        <time>2018-01-21T08:14:41.000Z</time>
      </trkpt>
      <trkpt lat="47.81027" lon="1.97617">
        <ele>107</ele>
        <time>2018-01-21T08:14:48.000Z</time>
      </trkpt>
      <trkpt lat="47.81012" lon="1.97627">
        <ele>106</ele>
        <time>2018-01-21T08:14:51.000Z</time>
      </trkpt>
      <trkpt lat="47.80968" lon="1.97652">
        <ele>106</ele>
        <time>2018-01-21T08:14:59.000Z</time>
      </trkpt>
      <trkpt lat="47.80962" lon="1.97655">
        <ele>106</ele>
        <time>2018-01-21T08:15:00.000Z</time>
      </trkpt>
      <trkpt lat="47.80917" lon="1.97678">
        <ele>106</ele>
        <time>2018-01-21T08:15:09.000Z</time>
      </trkpt>
      <trkpt lat="47.80912" lon="1.97681">
        <ele>106</ele>
        <time>2018-01-21T08:15:10.000Z</time>
      </trkpt>
      <trkpt lat="47.80869" lon="1.97705">
        <ele>106</ele>
        <time>2018-01-21T08:15:19.000Z</time>
      </trkpt>
      <trkpt lat="47.80864" lon="1.97708">
        <ele>106</ele>
        <time>2018-01-21T08:15:20.000Z</time>
      </trkpt>
      <trkpt lat="47.80821" lon="1.97733">
        <ele>106</ele>
        <time>2018-01-21T08:15:29.000Z</time>
      </trkpt>
      <trkpt lat="47.80816" lon="1.97736">
        <ele>106</ele>
        <time>2018-01-21T08:15:30.000Z</time>
      </trkpt>
      <trkpt lat="47.80798" lon="1.9774">
        <ele>107</ele>
        <time>2018-01-21T08:15:36.000Z</time>
      </trkpt>
      <trkpt lat="47.80801" lon="1.97745">
        <ele>107</ele>
        <time>2018-01-21T08:15:41.000Z</time>
      </trkpt>
      <trkpt lat="47.80797" lon="1.97755">
        <ele>108</ele>
        <time>2018-01-21T08:15:44.000Z</time>
      </trkpt>
      <trkpt lat="47.80755" lon="1.97792">
        <ele>109</ele>
        <time>2018-01-21T08:15:54.000Z</time>
      </trkpt>
      <trkpt lat="47.8075" lon="1.97798">
        <ele>109</ele>
        <time>2018-01-21T08:15:55.000Z</time>
      </trkpt>
      <trkpt lat="47.80745" lon="1.97803">
        <ele>109</ele>
        <time>2018-01-21T08:15:56.000Z</time>
      </trkpt>
      <trkpt lat="47.8071" lon="1.97847">
        <ele>109</ele>
        <time>2018-01-21T08:16:03.000Z</time>
      </trkpt>
      <trkpt lat="47.80705" lon="1.97853">
        <ele>109</ele>
        <time>2018-01-21T08:16:04.000Z</time>
      </trkpt>
      <trkpt lat="47.80669" lon="1.979">
        <ele>108</ele>
        <time>2018-01-21T08:16:11.000Z</time>
      </trkpt>
      <trkpt lat="47.80664" lon="1.97907">
        <ele>108</ele>
        <time>2018-01-21T08:16:12.000Z</time>
      </trkpt>
      <trkpt lat="47.80622" lon="1.9795">
        <ele>107</ele>
        <time>2018-01-21T08:16:19.000Z</time>
      </trkpt>
      <trkpt lat="47.80616" lon="1.97956">
        <ele>107</ele>
        <time>2018-01-21T08:16:20.000Z</time>
      </trkpt>
      <trkpt lat="47.80597" lon="1.97971">
        <ele>107</ele>
        <time>2018-01-21T08:16:23.000Z</time>
      </trkpt>
      <trkpt lat="47.80553" lon="1.98004">
        <ele>107</ele>
        <time>2018-01-21T08:16:30.000Z</time>
      </trkpt>
      <trkpt lat="47.80546" lon="1.98008">
        <ele>107</ele>
        <time>2018-01-21T08:16:31.000Z</time>
      </trkpt>
      <trkpt lat="47.80505" lon="1.98039">
        <ele>107</ele>
        <time>2018-01-21T08:16:38.000Z</time>
      </trkpt>
      <trkpt lat="47.80499" lon="1.98044">
        <ele>107</ele>
        <time>2018-01-21T08:16:39.000Z</time>
      </trkpt>
      <trkpt lat="47.80487" lon="1.9805">
        <ele>108</ele>
        <time>2018-01-21T08:16:41.000Z</time>
      </trkpt>
      <trkpt lat="47.80468" lon="1.98046">
        <ele>108</ele>
        <time>2018-01-21T08:16:44.000Z</time>
      </trkpt>
      <trkpt lat="47.80425" lon="1.98028">
        <ele>109</ele>
        <time>2018-01-21T08:16:51.000Z</time>
      </trkpt>
      <trkpt lat="47.80419" lon="1.98025">
        <ele>109</ele>
        <time>2018-01-21T08:16:52.000Z</time>
      </trkpt>
      <trkpt lat="47.80371" lon="1.98002">
        <ele>109</ele>
        <time>2018-01-21T08:17:00.000Z</time>
      </trkpt>
      <trkpt lat="47.80366" lon="1.97999">
        <ele>109</ele>
        <time>2018-01-21T08:17:01.000Z</time>
      </trkpt>
      <trkpt lat="47.80319" lon="1.97978">
        <ele>110</ele>
        <time>2018-01-21T08:17:09.000Z</time>
      </trkpt>
      <trkpt lat="47.80313" lon="1.97976">
        <ele>110</ele>
        <time>2018-01-21T08:17:10.000Z</time>
      </trkpt>
      <trkpt lat="47.80265" lon="1.97955">
        <ele>111</ele>
        <time>2018-01-21T08:17:18.000Z</time>
      </trkpt>
      <trkpt lat="47.80259" lon="1.97952">
        <ele>111</ele>
        <time>2018-01-21T08:17:19.000Z</time>
      </trkpt>
      <trkpt lat="47.8021" lon="1.97932">
        <ele>112</ele>
        <time>2018-01-21T08:17:27.000Z</time>
      </trkpt>
      <trkpt lat="47.80204" lon="1.97929">
        <ele>112</ele>
        <time>2018-01-21T08:17:28.000Z</time>
      </trkpt>
      <trkpt lat="47.80161" lon="1.97906">
        <ele>113</ele>
        <time>2018-01-21T08:17:35.000Z</time>
      </trkpt>
      <trkpt lat="47.80155" lon="1.97903">
        <ele>114</ele>
        <time>2018-01-21T08:17:36.000Z</time>
      </trkpt>
      <trkpt lat="47.80112" lon="1.97879">
        <ele>114</ele>
        <time>2018-01-21T08:17:43.000Z</time>
      </trkpt>
      <trkpt lat="47.80106" lon="1.97876">
        <ele>114</ele>
        <time>2018-01-21T08:17:44.000Z</time>
      </trkpt>
      <trkpt lat="47.80059" lon="1.97851">
        <ele>114</ele>
        <time>2018-01-21T08:17:51.000Z</time>
      </trkpt>
      <trkpt lat="47.80053" lon="1.97847">
        <ele>114</ele>
        <time>2018-01-21T08:17:52.000Z</time>
      </trkpt>
      <trkpt lat="47.80009" lon="1.97824">
        <ele>115</ele>
        <time>2018-01-21T08:17:59.000Z</time>
      </trkpt>
      <trkpt lat="47.80003" lon="1.9782">
        <ele>115</ele>
        <time>2018-01-21T08:18:00.000Z</time>
      </trkpt>
      <trkpt lat="47.7996" lon="1.97797">
        <ele>115</ele>
        <time>2018-01-21T08:18:07.000Z</time>
      </trkpt>
      <trkpt lat="47.79954" lon="1.97793">
        <ele>115</ele>
        <time>2018-01-21T08:18:08.000Z</time>
      </trkpt>
      <trkpt lat="47.7991" lon="1.9777">
        <ele>115</ele>
        <time>2018-01-21T08:18:15.000Z</time>
      </trkpt>
      <trkpt lat="47.79903" lon="1.97767">
        <ele>115</ele>
        <time>2018-01-21T08:18:16.000Z</time>
      </trkpt>
      <trkpt lat="47.79865" lon="1.97754">
        <ele>116</ele>
        <time>2018-01-21T08:18:22.000Z</time>
      </trkpt>
      <trkpt lat="47.79858" lon="1.97754">
        <ele>116</ele>
        <time>2018-01-21T08:18:23.000Z</time>
      </trkpt>
      <trkpt lat="47.79846" lon="1.97758">
        <ele>116</ele>
        <time>2018-01-21T08:18:25.000Z</time>
      </trkpt>
      <trkpt lat="47.79804" lon="1.97787">
        <ele>116</ele>
        <time>2018-01-21T08:18:32.000Z</time>
      </trkpt>
      <trkpt lat="47.79798" lon="1.97792">
        <ele>116</ele>
        <time>2018-01-21T08:18:33.000Z</time>
      </trkpt>
      <trkpt lat="47.79755" lon="1.97826">
        <ele>116</ele>
        <time>2018-01-21T08:18:40.000Z</time>
      </trkpt>
      <trkpt lat="47.79749" lon="1.97831">
        <ele>116</ele>
        <time>2018-01-21T08:18:41.000Z</time>
      </trkpt>
      <trkpt lat="47.79704" lon="1.97866">
        <ele>115</ele>
        <time>2018-01-21T08:18:48.000Z</time>
      </trkpt>
      <trkpt lat="47.79698" lon="1.97871">
        <ele>115</ele>
        <time>2018-01-21T08:18:49.000Z</time>
      </trkpt>
      <trkpt lat="47.79691" lon="1.97877">
        <ele>115</ele>
        <time>2018-01-21T08:18:50.000Z</time>
      </trkpt>
      <trkpt lat="47.79651" lon="1.97923">
        <ele>114</ele>
        <time>2018-01-21T08:18:57.000Z</time>
      </trkpt>
      <trkpt lat="47.79646" lon="1.9793">
        <ele>114</ele>
        <time>2018-01-21T08:18:58.000Z</time>
      </trkpt>
      <trkpt lat="47.79641" lon="1.97937">
        <ele>114</ele>
        <time>2018-01-21T08:18:59.000Z</time>
      </trkpt>
      <trkpt lat="47.79608" lon="1.97985">
        <ele>115</ele>
        <time>2018-01-21T08:19:06.000Z</time>
      </trkpt>
      <trkpt lat="47.79604" lon="1.97992">
        <ele>115</ele>
        <time>2018-01-21T08:19:07.000Z</time>
      </trkpt>
      <trkpt lat="47.7957" lon="1.98038">
        <ele>115</ele>
        <time>2018-01-21T08:19:14.000Z</time>
      </trkpt>
      <trkpt lat="47.79564" lon="1.98045">
        <ele>115</ele>
        <time>2018-01-21T08:19:15.000Z</time>
      </trkpt>
      <trkpt lat="47.79542" lon="1.98068">
        <ele>115</ele>
        <time>2018-01-21T08:19:19.000Z</time>
      </trkpt>
      <trkpt lat="47.79505" lon="1.98094">
        <ele>115</ele>
        <time>2018-01-21T08:19:25.000Z</time>
      </trkpt>
      <trkpt lat="47.79498" lon="1.98097">
        <ele>115</ele>
        <time>2018-01-21T08:19:26.000Z</time>
      </trkpt>
      <trkpt lat="47.7947" lon="1.98102">
        <ele>115</ele>
        <time>2018-01-21T08:19:30.000Z</time>
      </trkpt>
      <trkpt lat="47.79421" lon="1.98095">
        <ele>114</ele>
        <time>2018-01-21T08:19:37.000Z</time>
      </trkpt>
      <trkpt lat="47.79414" lon="1.98093">
        <ele>114</ele>
        <time>2018-01-21T08:19:38.000Z</time>
      </trkpt>
      <trkpt lat="47.79367" lon="1.98081">
        <ele>113</ele>
        <time>2018-01-21T08:19:45.000Z</time>
      </trkpt>
      <trkpt lat="47.7936" lon="1.9808">
        <ele>113</ele>
        <time>2018-01-21T08:19:46.000Z</time>
      </trkpt>
      <trkpt lat="47.79315" lon="1.9807">
        <ele>113</ele>
        <time>2018-01-21T08:19:53.000Z</time>
      </trkpt>
      <trkpt lat="47.79309" lon="1.98068">
        <ele>113</ele>
        <time>2018-01-21T08:19:54.000Z</time>
      </trkpt>
      <trkpt lat="47.79285" lon="1.9807">
        <ele>113</ele>
        <time>2018-01-21T08:19:58.000Z</time>
      </trkpt>
      <trkpt lat="47.79273" lon="1.98082">
        <ele>113</ele>
        <time>2018-01-21T08:20:01.000Z</time>
      </trkpt>
      <trkpt lat="47.79271" lon="1.981">
        <ele>113</ele>
        <time>2018-01-21T08:20:04.000Z</time>
      </trkpt>
      <trkpt lat="47.79266" lon="1.98124">
        <ele>113</ele>
        <time>2018-01-21T08:20:08.000Z</time>
      </trkpt>
      <trkpt lat="47.79247" lon="1.98143">
        <ele>113</ele>
        <time>2018-01-21T08:20:13.000Z</time>
      </trkpt>
      <trkpt lat="47.79235" lon="1.98148">
        <ele>113</ele>
        <time>2018-01-21T08:20:16.000Z</time>
      </trkpt>
      <trkpt lat="47.7923" lon="1.98144">
        <ele>113</ele>
        <time>2018-01-21T08:20:18.000Z</time>
      </trkpt>
      <trkpt lat="47.79224" lon="1.98141">
        <ele>113</ele>
        <time>2018-01-21T08:20:20.000Z</time>
      </trkpt>
      <trkpt lat="47.79218" lon="1.98144">
        <ele>113</ele>
        <time>2018-01-21T08:20:22.000Z</time>
      </trkpt>
      <trkpt lat="47.79202" lon="1.98154">
        <ele>113</ele>
        <time>2018-01-21T08:20:26.000Z</time>
      </trkpt>
      <trkpt lat="47.79193" lon="1.98168">
        <ele>114</ele>
        <time>2018-01-21T08:20:29.000Z</time>
      </trkpt>
      <trkpt lat="47.79182" lon="1.98201">
        <ele>114</ele>
        <time>2018-01-21T08:20:35.000Z</time>
      </trkpt>
      <trkpt lat="47.79177" lon="1.98232">
        <ele>115</ele>
        <time>2018-01-21T08:20:41.000Z</time>
      </trkpt>
      <trkpt lat="47.79172" lon="1.98253">
        <ele>115</ele>
        <time>2018-01-21T08:20:45.000Z</time>
      </trkpt>
      <trkpt lat="47.79147" lon="1.98311">
        <ele>115</ele>
        <time>2018-01-21T08:20:56.000Z</time>
      </trkpt>
      <trkpt lat="47.79145" lon="1.98317">
        <ele>115</ele>
        <time>2018-01-21T08:20:57.000Z</time>
      </trkpt>
      <trkpt lat="47.7912" lon="1.98378">
        <ele>115</ele>
        <time>2018-01-21T08:21:09.000Z</time>
      </trkpt>
      <trkpt lat="47.79118" lon="1.98382">
        <ele>115</ele>
        <time>2018-01-21T08:21:10.000Z</time>
      </trkpt>
      <trkpt lat="47.79109" lon="1.98415">
        <ele>115</ele>
        <time>2018-01-21T08:21:16.000Z</time>
      </trkpt>
      <trkpt lat="47.79104" lon="1.98438">
        <ele>115</ele>
        <time>2018-01-21T08:21:20.000Z</time>
      </trkpt>
      <trkpt lat="47.79102" lon="1.98451">
        <ele>115</ele>
        <time>2018-01-21T08:21:22.000Z</time>
      </trkpt>
      <trkpt lat="47.79088" lon="1.9852">
        <ele>116</ele>
        <time>2018-01-21T08:21:33.000Z</time>
      </trkpt>
      <trkpt lat="47.79087" lon="1.98526">
        <ele>116</ele>
        <time>2018-01-21T08:21:34.000Z</time>
      </trkpt>
      <trkpt lat="47.79081" lon="1.98549">
        <ele>116</ele>
        <time>2018-01-21T08:21:38.000Z</time>
      </trkpt>
      <trkpt lat="47.79065" lon="1.98582">
        <ele>116</ele>
        <time>2018-01-21T08:21:45.000Z</time>
      </trkpt>
      <trkpt lat="47.79035" lon="1.98634">
        <ele>114</ele>
        <time>2018-01-21T08:21:54.000Z</time>
      </trkpt>
      <trkpt lat="47.79031" lon="1.9864">
        <ele>114</ele>
        <time>2018-01-21T08:21:55.000Z</time>
      </trkpt>
      <trkpt lat="47.79001" lon="1.98693">
        <ele>113</ele>
        <time>2018-01-21T08:22:05.000Z</time>
      </trkpt>
      <trkpt lat="47.78999" lon="1.98698">
        <ele>113</ele>
        <time>2018-01-21T08:22:06.000Z</time>
      </trkpt>
      <trkpt lat="47.78964" lon="1.9875">
        <ele>116</ele>
        <time>2018-01-21T08:22:16.000Z</time>
      </trkpt>
      <trkpt lat="47.78961" lon="1.98755">
        <ele>116</ele>
        <time>2018-01-21T08:22:17.000Z</time>
      </trkpt>
      <trkpt lat="47.7893" lon="1.98806">
        <ele>116</ele>
        <time>2018-01-21T08:22:29.000Z</time>
      </trkpt>
      <trkpt lat="47.78926" lon="1.98811">
        <ele>115</ele>
        <time>2018-01-21T08:22:30.000Z</time>
      </trkpt>
      <trkpt lat="47.78894" lon="1.9886">
        <ele>114</ele>
        <time>2018-01-21T08:22:41.000Z</time>
      </trkpt>
      <trkpt lat="47.78891" lon="1.98865">
        <ele>114</ele>
        <time>2018-01-21T08:22:42.000Z</time>
      </trkpt>
      <trkpt lat="47.78858" lon="1.98913">
        <ele>114</ele>
        <time>2018-01-21T08:22:51.000Z</time>
      </trkpt>
      <trkpt lat="47.78854" lon="1.98919">
        <ele>114</ele>
        <time>2018-01-21T08:22:52.000Z</time>
      </trkpt>
      <trkpt lat="47.78822" lon="1.98965">
        <ele>113</ele>
        <time>2018-01-21T08:23:02.000Z</time>
      </trkpt>
      <trkpt lat="47.78818" lon="1.98969">
        <ele>113</ele>
        <time>2018-01-21T08:23:03.000Z</time>
      </trkpt>
      <trkpt lat="47.78782" lon="1.9902">
        <ele>113</ele>
        <time>2018-01-21T08:23:14.000Z</time>
      </trkpt>
      <trkpt lat="47.78779" lon="1.99024">
        <ele>113</ele>
        <time>2018-01-21T08:23:15.000Z</time>
      </trkpt>
      <trkpt lat="47.78761" lon="1.99049">
        <ele>112</ele>
        <time>2018-01-21T08:23:21.000Z</time>
      </trkpt>
      <trkpt lat="47.78748" lon="1.99049">
        <ele>113</ele>
        <time>2018-01-21T08:23:24.000Z</time>
      </trkpt>
      <trkpt lat="47.78724" lon="1.99016">
        <ele>114</ele>
        <time>2018-01-21T08:23:31.000Z</time>
      </trkpt>
      <trkpt lat="47.7869" lon="1.98966">
        <ele>116</ele>
        <time>2018-01-21T08:23:40.000Z</time>
      </trkpt>
      <trkpt lat="47.78686" lon="1.9896">
        <ele>116</ele>
        <time>2018-01-21T08:23:41.000Z</time>
      </trkpt>
      <trkpt lat="47.78653" lon="1.98911">
        <ele>118</ele>
        <time>2018-01-21T08:23:50.000Z</time>
      </trkpt>
      <trkpt lat="47.7865" lon="1.98905">
        <ele>118</ele>
        <time>2018-01-21T08:23:51.000Z</time>
      </trkpt>
      <trkpt lat="47.78643" lon="1.98893">
        <ele>119</ele>
        <time>2018-01-21T08:23:53.000Z</time>
      </trkpt>
      <trkpt lat="47.78619" lon="1.98836">
        <ele>122</ele>
        <time>2018-01-21T08:24:02.000Z</time>
      </trkpt>
      <trkpt lat="47.78616" lon="1.9883">
        <ele>122</ele>
        <time>2018-01-21T08:24:03.000Z</time>
      </trkpt>
      <trkpt lat="47.78591" lon="1.9877">
        <ele>121</ele>
        <time>2018-01-21T08:24:13.000Z</time>
      </trkpt>
      <trkpt lat="47.78589" lon="1.98764">
        <ele>121</ele>
        <time>2018-01-21T08:24:14.000Z</time>
      </trkpt>
      <trkpt lat="47.78584" lon="1.98746">
        <ele>121</ele>
        <time>2018-01-21T08:24:17.000Z</time>
      </trkpt>
      <trkpt lat="47.7858" lon="1.98728">
        <ele>120</ele>
        <time>2018-01-21T08:24:20.000Z</time>
      </trkpt>
      <trkpt lat="47.7858" lon="1.98657">
        <ele>119</ele>
        <time>2018-01-21T08:24:31.000Z</time>
      </trkpt>
      <trkpt lat="47.7858" lon="1.98651">
        <ele>118</ele>
        <time>2018-01-21T08:24:32.000Z</time>
      </trkpt>
      <trkpt lat="47.7858" lon="1.98633">
        <ele>118</ele>
        <time>2018-01-21T08:24:35.000Z</time>
      </trkpt>
      <trkpt lat="47.78579" lon="1.98613">
        <ele>117</ele>
        <time>2018-01-21T08:24:39.000Z</time>
      </trkpt>
      <trkpt lat="47.78574" lon="1.98605">
        <ele>117</ele>
        <time>2018-01-21T08:24:42.000Z</time>
      </trkpt>
      <trkpt lat="47.78572" lon="1.98607">
        <ele>116</ele>
        <time>2018-01-21T08:24:53.000Z</time>
      </trkpt>
      <trkpt lat="47.78575" lon="1.98597">
        <ele>119</ele>
        <time>2018-01-21T08:26:43.000Z</time>
      </trkpt>
      <trkpt lat="47.78578" lon="1.98586">
        <ele>118</ele>
        <time>2018-01-21T08:26:51.000Z</time>
      </trkpt>
      <trkpt lat="47.78576" lon="1.98575">
        <ele>117</ele>
        <time>2018-01-21T08:26:53.000Z</time>
      </trkpt>
      <trkpt lat="47.78569" lon="1.9855">
        <ele>115</ele>
        <time>2018-01-21T08:26:57.000Z</time>
      </trkpt>
      <trkpt lat="47.78556" lon="1.98527">
        <ele>113</ele>
        <time>2018-01-21T08:27:01.000Z</time>
      </trkpt>
      <trkpt lat="47.78523" lon="1.98476">
        <ele>111</ele>
        <time>2018-01-21T08:27:09.000Z</time>
      </trkpt>
      <trkpt lat="47.78518" lon="1.9847">
        <ele>111</ele>
        <time>2018-01-21T08:27:10.000Z</time>
      </trkpt>
      <trkpt lat="47.78513" lon="1.98465">
        <ele>111</ele>
        <time>2018-01-21T08:27:11.000Z</time>
      </trkpt>
      <trkpt lat="47.78476" lon="1.98424">
        <ele>113</ele>
        <time>2018-01-21T08:27:19.000Z</time>
      </trkpt>
      <trkpt lat="47.78472" lon="1.98419">
        <ele>113</ele>
        <time>2018-01-21T08:27:20.000Z</time>
      </trkpt>
      <trkpt lat="47.78434" lon="1.98373">
        <ele>114</ele>
        <time>2018-01-21T08:27:29.000Z</time>
      </trkpt>
      <trkpt lat="47.7843" lon="1.98368">
        <ele>114</ele>
        <time>2018-01-21T08:27:30.000Z</time>
      </trkpt>
      <trkpt lat="47.78393" lon="1.98319">
        <ele>117</ele>
        <time>2018-01-21T08:27:39.000Z</time>
      </trkpt>
      <trkpt lat="47.78389" lon="1.98314">
        <ele>117</ele>
        <time>2018-01-21T08:27:40.000Z</time>
      </trkpt>
      <trkpt lat="47.78353" lon="1.9827">
        <ele>120</ele>
        <time>2018-01-21T08:27:49.000Z</time>
      </trkpt>
      <trkpt lat="47.78348" lon="1.98266">
        <ele>120</ele>
        <time>2018-01-21T08:27:50.000Z</time>
      </trkpt>
      <trkpt lat="47.78306" lon="1.98225">
        <ele>121</ele>
        <time>2018-01-21T08:27:59.000Z</time>
      </trkpt>
      <trkpt lat="47.78302" lon="1.98221">
        <ele>121</ele>
        <time>2018-01-21T08:28:00.000Z</time>
      </trkpt>
      <trkpt lat="47.78259" lon="1.98182">
        <ele>121</ele>
        <time>2018-01-21T08:28:09.000Z</time>
      </trkpt>
      <trkpt lat="47.78254" lon="1.98177">
        <ele>121</ele>
        <time>2018-01-21T08:28:10.000Z</time>
      </trkpt>
      <trkpt lat="47.78228" lon="1.98143">
        <ele>121</ele>
        <time>2018-01-21T08:28:16.000Z</time>
      </trkpt>
      <trkpt lat="47.78202" lon="1.98083">
        <ele>122</ele>
        <time>2018-01-21T08:28:24.000Z</time>
      </trkpt>
      <trkpt lat="47.78199" lon="1.98075">
        <ele>122</ele>
        <time>2018-01-21T08:28:25.000Z</time>
      </trkpt>
      <trkpt lat="47.78197" lon="1.98066">
        <ele>122</ele>
        <time>2018-01-21T08:28:26.000Z</time>
      </trkpt>
      <trkpt lat="47.78176" lon="1.97999">
        <ele>123</ele>
        <time>2018-01-21T08:28:34.000Z</time>
      </trkpt>
      <trkpt lat="47.78173" lon="1.97991">
        <ele>123</ele>
        <time>2018-01-21T08:28:35.000Z</time>
      </trkpt>
      <trkpt lat="47.78156" lon="1.97927">
        <ele>123</ele>
        <time>2018-01-21T08:28:43.000Z</time>
      </trkpt>
      <trkpt lat="47.78153" lon="1.97919">
        <ele>122</ele>
        <time>2018-01-21T08:28:44.000Z</time>
      </trkpt>
      <trkpt lat="47.78127" lon="1.97856">
        <ele>120</ele>
        <time>2018-01-21T08:28:53.000Z</time>
      </trkpt>
      <trkpt lat="47.78124" lon="1.97848">
        <ele>120</ele>
        <time>2018-01-21T08:28:54.000Z</time>
      </trkpt>
      <trkpt lat="47.78102" lon="1.97787">
        <ele>119</ele>
        <time>2018-01-21T08:29:02.000Z</time>
      </trkpt>
      <trkpt lat="47.781" lon="1.97779">
        <ele>120</ele>
        <time>2018-01-21T08:29:03.000Z</time>
      </trkpt>
      <trkpt lat="47.78081" lon="1.97714">
        <ele>120</ele>
        <time>2018-01-21T08:29:11.000Z</time>
      </trkpt>
      <trkpt lat="47.78079" lon="1.97705">
        <ele>120</ele>
        <time>2018-01-21T08:29:12.000Z</time>
      </trkpt>
      <trkpt lat="47.78062" lon="1.97641">
        <ele>119</ele>
        <time>2018-01-21T08:29:20.000Z</time>
      </trkpt>
      <trkpt lat="47.78059" lon="1.97634">
        <ele>119</ele>
        <time>2018-01-21T08:29:21.000Z</time>
      </trkpt>
      <trkpt lat="47.78044" lon="1.97597">
        <ele>119</ele>
        <time>2018-01-21T08:29:26.000Z</time>
      </trkpt>
      <trkpt lat="47.78033" lon="1.97578">
        <ele>119</ele>
        <time>2018-01-21T08:29:29.000Z</time>
      </trkpt>
      <trkpt lat="47.78001" lon="1.9752">
        <ele>119</ele>
        <time>2018-01-21T08:29:38.000Z</time>
      </trkpt>
      <trkpt lat="47.77998" lon="1.97514">
        <ele>119</ele>
        <time>2018-01-21T08:29:39.000Z</time>
      </trkpt>
      <trkpt lat="47.77995" lon="1.97507">
        <ele>118</ele>
        <time>2018-01-21T08:29:40.000Z</time>
      </trkpt>
      <trkpt lat="47.77971" lon="1.97443">
        <ele>117</ele>
        <time>2018-01-21T08:29:49.000Z</time>
      </trkpt>
      <trkpt lat="47.77967" lon="1.97435">
        <ele>117</ele>
        <time>2018-01-21T08:29:50.000Z</time>
      </trkpt>
      <trkpt lat="47.7794" lon="1.97375">
        <ele>117</ele>
        <time>2018-01-21T08:29:58.000Z</time>
      </trkpt>
      <trkpt lat="47.77937" lon="1.97368">
        <ele>117</ele>
        <time>2018-01-21T08:29:59.000Z</time>
      </trkpt>
      <trkpt lat="47.77912" lon="1.97307">
        <ele>117</ele>
        <time>2018-01-21T08:30:07.000Z</time>
      </trkpt>
      <trkpt lat="47.77909" lon="1.97299">
        <ele>117</ele>
        <time>2018-01-21T08:30:08.000Z</time>
      </trkpt>
      <trkpt lat="47.77887" lon="1.97232">
        <ele>117</ele>
        <time>2018-01-21T08:30:16.000Z</time>
      </trkpt>
      <trkpt lat="47.77885" lon="1.97223">
        <ele>117</ele>
        <time>2018-01-21T08:30:17.000Z</time>
      </trkpt>
      <trkpt lat="47.77869" lon="1.97165">
        <ele>117</ele>
        <time>2018-01-21T08:30:24.000Z</time>
      </trkpt>
      <trkpt lat="47.77868" lon="1.97157">
        <ele>116</ele>
        <time>2018-01-21T08:30:25.000Z</time>
      </trkpt>
      <trkpt lat="47.77855" lon="1.97087">
        <ele>116</ele>
        <time>2018-01-21T08:30:33.000Z</time>
      </trkpt>
      <trkpt lat="47.77854" lon="1.97078">
        <ele>116</ele>
        <time>2018-01-21T08:30:34.000Z</time>
      </trkpt>
      <trkpt lat="47.77844" lon="1.97008">
        <ele>116</ele>
        <time>2018-01-21T08:30:42.000Z</time>
      </trkpt>
      <trkpt lat="47.77843" lon="1.97">
        <ele>116</ele>
        <time>2018-01-21T08:30:43.000Z</time>
      </trkpt>
      <trkpt lat="47.77834" lon="1.96931">
        <ele>117</ele>
        <time>2018-01-21T08:30:51.000Z</time>
      </trkpt>
      <trkpt lat="47.77832" lon="1.96922">
        <ele>117</ele>
        <time>2018-01-21T08:30:52.000Z</time>
      </trkpt>
      <trkpt lat="47.77822" lon="1.96852">
        <ele>117</ele>
        <time>2018-01-21T08:31:00.000Z</time>
      </trkpt>
      <trkpt lat="47.77819" lon="1.96844">
        <ele>117</ele>
        <time>2018-01-21T08:31:01.000Z</time>
      </trkpt>
      <trkpt lat="47.77811" lon="1.96832">
        <ele>117</ele>
        <time>2018-01-21T08:31:03.000Z</time>
      </trkpt>
      <trkpt lat="47.77773" lon="1.96814">
        <ele>117</ele>
        <time>2018-01-21T08:31:10.000Z</time>
      </trkpt>
      <trkpt lat="47.77767" lon="1.9682">
        <ele>117</ele>
        <time>2018-01-21T08:31:12.000Z</time>
      </trkpt>
      <trkpt lat="47.77759" lon="1.96832">
        <ele>117</ele>
        <time>2018-01-21T08:31:15.000Z</time>
      </trkpt>
      <trkpt lat="47.7772" lon="1.96868">
        <ele>118</ele>
        <time>2018-01-21T08:31:33.000Z</time>
      </trkpt>
      <trkpt lat="47.77718" lon="1.9687">
        <ele>118</ele>
        <time>2018-01-21T08:31:34.000Z</time>
      </trkpt>
      <trkpt lat="47.77701" lon="1.96887">
        <ele>118</ele>
        <time>2018-01-21T08:31:42.000Z</time>
      </trkpt>
      <trkpt lat="47.77686" lon="1.969">
        <ele>118</ele>
        <time>2018-01-21T08:31:48.000Z</time>
      </trkpt>
      <trkpt lat="47.77662" lon="1.96922">
        <ele>119</ele>
        <time>2018-01-21T08:31:57.000Z</time>
      </trkpt>
      <trkpt lat="47.77623" lon="1.96959">
        <ele>121</ele>
        <time>2018-01-21T08:32:11.000Z</time>
      </trkpt>
      <trkpt lat="47.7762" lon="1.96962">
        <ele>121</ele>
        <time>2018-01-21T08:32:12.000Z</time>
      </trkpt>
      <trkpt lat="47.77599" lon="1.96983">
        <ele>122</ele>
        <time>2018-01-21T08:32:20.000Z</time>
      </trkpt>
      <trkpt lat="47.77573" lon="1.97018">
        <ele>123</ele>
        <time>2018-01-21T08:32:31.000Z</time>
      </trkpt>
      <trkpt lat="47.77562" lon="1.97036">
        <ele>123</ele>
        <time>2018-01-21T08:32:36.000Z</time>
      </trkpt>
      <trkpt lat="47.77528" lon="1.97083">
        <ele>124</ele>
        <time>2018-01-21T08:32:49.000Z</time>
      </trkpt>
      <trkpt lat="47.77526" lon="1.97086">
        <ele>124</ele>
        <time>2018-01-21T08:32:50.000Z</time>
      </trkpt>
      <trkpt lat="47.77508" lon="1.97113">
        <ele>124</ele>
        <time>2018-01-21T08:32:58.000Z</time>
      </trkpt>
      <trkpt lat="47.77503" lon="1.9712">
        <ele>124</ele>
        <time>2018-01-21T08:33:00.000Z</time>
      </trkpt>
      <trkpt lat="47.77469" lon="1.97169">
        <ele>126</ele>
        <time>2018-01-21T08:33:14.000Z</time>
      </trkpt>
      <trkpt lat="47.77467" lon="1.97173">
        <ele>126</ele>
        <time>2018-01-21T08:33:15.000Z</time>
      </trkpt>
      <trkpt lat="47.77431" lon="1.97222">
        <ele>126</ele>
        <time>2018-01-21T08:33:27.000Z</time>
      </trkpt>
      <trkpt lat="47.77428" lon="1.97226">
        <ele>126</ele>
        <time>2018-01-21T08:33:28.000Z</time>
      </trkpt>
      <trkpt lat="47.77391" lon="1.97274">
        <ele>125</ele>
        <time>2018-01-21T08:33:39.000Z</time>
      </trkpt>
      <trkpt lat="47.77388" lon="1.97278">
        <ele>124</ele>
        <time>2018-01-21T08:33:40.000Z</time>
      </trkpt>
      <trkpt lat="47.77354" lon="1.97322">
        <ele>123</ele>
        <time>2018-01-21T08:33:51.000Z</time>
      </trkpt>
      <trkpt lat="47.77351" lon="1.97327">
        <ele>123</ele>
        <time>2018-01-21T08:33:52.000Z</time>
      </trkpt>
      <trkpt lat="47.77316" lon="1.97373">
        <ele>122</ele>
        <time>2018-01-21T08:34:03.000Z</time>
      </trkpt>
      <trkpt lat="47.77313" lon="1.97377">
        <ele>122</ele>
        <time>2018-01-21T08:34:04.000Z</time>
      </trkpt>
      <trkpt lat="47.77277" lon="1.97423">
        <ele>121</ele>
        <time>2018-01-21T08:34:17.000Z</time>
      </trkpt>
      <trkpt lat="47.77275" lon="1.97426">
        <ele>121</ele>
        <time>2018-01-21T08:34:18.000Z</time>
      </trkpt>
      <trkpt lat="47.77239" lon="1.97475">
        <ele>122</ele>
        <time>2018-01-21T08:34:31.000Z</time>
      </trkpt>
      <trkpt lat="47.77237" lon="1.97479">
        <ele>122</ele>
        <time>2018-01-21T08:34:32.000Z</time>
      </trkpt>
      <trkpt lat="47.77202" lon="1.97528">
        <ele>122</ele>
        <time>2018-01-21T08:34:44.000Z</time>
      </trkpt>
      <trkpt lat="47.77199" lon="1.97532">
        <ele>122</ele>
        <time>2018-01-21T08:34:45.000Z</time>
      </trkpt>
      <trkpt lat="47.77163" lon="1.9758">
        <ele>122</ele>
        <time>2018-01-21T08:34:58.000Z</time>
      </trkpt>
      <trkpt lat="47.7716" lon="1.97583">
        <ele>122</ele>
        <time>2018-01-21T08:34:59.000Z</time>
      </trkpt>
      <trkpt lat="47.77124" lon="1.97629">
        <ele>123</ele>
        <time>2018-01-21T08:35:11.000Z</time>
      </trkpt>
      <trkpt lat="47.7712" lon="1.97634">
        <ele>123</ele>
        <time>2018-01-21T08:35:12.000Z</time>
      </trkpt>
      <trkpt lat="47.77086" lon="1.97679">
        <ele>124</ele>
        <time>2018-01-21T08:35:22.000Z</time>
      </trkpt>
      <trkpt lat="47.77083" lon="1.97684">
        <ele>124</ele>
        <time>2018-01-21T08:35:23.000Z</time>
      </trkpt>
      <trkpt lat="47.77048" lon="1.97732">
        <ele>124</ele>
        <time>2018-01-21T08:35:33.000Z</time>
      </trkpt>
      <trkpt lat="47.77045" lon="1.97737">
        <ele>124</ele>
        <time>2018-01-21T08:35:34.000Z</time>
      </trkpt>
      <trkpt lat="47.7701" lon="1.97783">
        <ele>124</ele>
        <time>2018-01-21T08:35:43.000Z</time>
      </trkpt>
      <trkpt lat="47.77007" lon="1.97788">
        <ele>124</ele>
        <time>2018-01-21T08:35:44.000Z</time>
      </trkpt>
      <trkpt lat="47.76971" lon="1.97835">
        <ele>123</ele>
        <time>2018-01-21T08:35:54.000Z</time>
      </trkpt>
      <trkpt lat="47.76967" lon="1.9784">
        <ele>123</ele>
        <time>2018-01-21T08:35:55.000Z</time>
      </trkpt>
      <trkpt lat="47.76932" lon="1.97886">
        <ele>122</ele>
        <time>2018-01-21T08:36:05.000Z</time>
      </trkpt>
      <trkpt lat="47.76929" lon="1.97891">
        <ele>122</ele>
        <time>2018-01-21T08:36:06.000Z</time>
      </trkpt>
      <trkpt lat="47.76893" lon="1.9794">
        <ele>121</ele>
        <time>2018-01-21T08:36:17.000Z</time>
      </trkpt>
      <trkpt lat="47.76889" lon="1.97944">
        <ele>121</ele>
        <time>2018-01-21T08:36:18.000Z</time>
      </trkpt>
      <trkpt lat="47.76855" lon="1.97988">
        <ele>121</ele>
        <time>2018-01-21T08:36:29.000Z</time>
      </trkpt>
      <trkpt lat="47.76852" lon="1.97992">
        <ele>121</ele>
        <time>2018-01-21T08:36:30.000Z</time>
      </trkpt>
      <trkpt lat="47.76817" lon="1.98041">
        <ele>120</ele>
        <time>2018-01-21T08:36:42.000Z</time>
      </trkpt>
      <trkpt lat="47.76814" lon="1.98045">
        <ele>120</ele>
        <time>2018-01-21T08:36:43.000Z</time>
      </trkpt>
      <trkpt lat="47.76778" lon="1.98093">
        <ele>120</ele>
        <time>2018-01-21T08:36:56.000Z</time>
      </trkpt>
      <trkpt lat="47.76775" lon="1.98097">
        <ele>120</ele>
        <time>2018-01-21T08:36:57.000Z</time>
      </trkpt>
      <trkpt lat="47.76741" lon="1.98143">
        <ele>120</ele>
        <time>2018-01-21T08:37:09.000Z</time>
      </trkpt>
      <trkpt lat="47.76739" lon="1.98146">
        <ele>120</ele>
        <time>2018-01-21T08:37:10.000Z</time>
      </trkpt>
      <trkpt lat="47.76703" lon="1.98195">
        <ele>120</ele>
        <time>2018-01-21T08:37:23.000Z</time>
      </trkpt>
      <trkpt lat="47.76701" lon="1.98198">
        <ele>120</ele>
        <time>2018-01-21T08:37:24.000Z</time>
      </trkpt>
      <trkpt lat="47.76665" lon="1.98246">
        <ele>120</ele>
        <time>2018-01-21T08:37:36.000Z</time>
      </trkpt>
      <trkpt lat="47.76662" lon="1.98249">
        <ele>120</ele>
        <time>2018-01-21T08:37:37.000Z</time>
      </trkpt>
      <trkpt lat="47.76626" lon="1.98297">
        <ele>121</ele>
        <time>2018-01-21T08:37:49.000Z</time>
      </trkpt>
      <trkpt lat="47.76623" lon="1.98301">
        <ele>121</ele>
        <time>2018-01-21T08:37:50.000Z</time>
      </trkpt>
      <trkpt lat="47.766" lon="1.98331">
        <ele>121</ele>
        <time>2018-01-21T08:37:58.000Z</time>
      </trkpt>
      <trkpt lat="47.76592" lon="1.98333">
        <ele>121</ele>
        <time>2018-01-21T08:38:00.000Z</time>
      </trkpt>
      <trkpt lat="47.76569" lon="1.9832">
        <ele>122</ele>
        <time>2018-01-21T08:38:06.000Z</time>
      </trkpt>
      <trkpt lat="47.76527" lon="1.98293">
        <ele>123</ele>
        <time>2018-01-21T08:38:17.000Z</time>
      </trkpt>
      <trkpt lat="47.76523" lon="1.98291">
        <ele>123</ele>
        <time>2018-01-21T08:38:18.000Z</time>
      </trkpt>
      <trkpt lat="47.76481" lon="1.9826">
        <ele>124</ele>
        <time>2018-01-21T08:38:30.000Z</time>
      </trkpt>
      <trkpt lat="47.76477" lon="1.98258">
        <ele>125</ele>
        <time>2018-01-21T08:38:31.000Z</time>
      </trkpt>
      <trkpt lat="47.76448" lon="1.98238">
        <ele>125</ele>
        <time>2018-01-21T08:38:39.000Z</time>
      </trkpt>
      <trkpt lat="47.764" lon="1.98226">
        <ele>126</ele>
        <time>2018-01-21T08:38:50.000Z</time>
      </trkpt>
      <trkpt lat="47.76395" lon="1.98226">
        <ele>126</ele>
        <time>2018-01-21T08:38:51.000Z</time>
      </trkpt>
      <trkpt lat="47.76383" lon="1.98224">
        <ele>126</ele>
        <time>2018-01-21T08:38:54.000Z</time>
      </trkpt>
      <trkpt lat="47.76335" lon="1.9822">
        <ele>126</ele>
        <time>2018-01-21T08:39:07.000Z</time>
      </trkpt>
      <trkpt lat="47.76332" lon="1.98219">
        <ele>126</ele>
        <time>2018-01-21T08:39:08.000Z</time>
      </trkpt>
      <trkpt lat="47.76307" lon="1.98222">
        <ele>126</ele>
        <time>2018-01-21T08:39:15.000Z</time>
      </trkpt>
      <trkpt lat="47.76262" lon="1.98245">
        <ele>128</ele>
        <time>2018-01-21T08:39:28.000Z</time>
      </trkpt>
      <trkpt lat="47.76258" lon="1.98247">
        <ele>128</ele>
        <time>2018-01-21T08:39:29.000Z</time>
      </trkpt>
      <trkpt lat="47.76215" lon="1.98273">
        <ele>130</ele>
        <time>2018-01-21T08:39:41.000Z</time>
      </trkpt>
      <trkpt lat="47.76212" lon="1.98275">
        <ele>129</ele>
        <time>2018-01-21T08:39:42.000Z</time>
      </trkpt>
      <trkpt lat="47.76169" lon="1.98299">
        <ele>127</ele>
        <time>2018-01-21T08:39:53.000Z</time>
      </trkpt>
      <trkpt lat="47.76165" lon="1.98301">
        <ele>127</ele>
        <time>2018-01-21T08:39:54.000Z</time>
      </trkpt>
      <trkpt lat="47.7612" lon="1.98324">
        <ele>125</ele>
        <time>2018-01-21T08:40:05.000Z</time>
      </trkpt>
      <trkpt lat="47.76115" lon="1.98327">
        <ele>124</ele>
        <time>2018-01-21T08:40:06.000Z</time>
      </trkpt>
      <trkpt lat="47.76094" lon="1.98339">
        <ele>124</ele>
        <time>2018-01-21T08:40:11.000Z</time>
      </trkpt>
      <trkpt lat="47.76051" lon="1.98363">
        <ele>126</ele>
        <time>2018-01-21T08:40:22.000Z</time>
      </trkpt>
      <trkpt lat="47.76047" lon="1.98365">
        <ele>126</ele>
        <time>2018-01-21T08:40:23.000Z</time>
      </trkpt>
      <trkpt lat="47.76004" lon="1.98389">
        <ele>128</ele>
        <time>2018-01-21T08:40:34.000Z</time>
      </trkpt>
      <trkpt lat="47.75999" lon="1.98392">
        <ele>127</ele>
        <time>2018-01-21T08:40:35.000Z</time>
      </trkpt>
      <trkpt lat="47.75954" lon="1.98414">
        <ele>128</ele>
        <time>2018-01-21T08:40:45.000Z</time>
      </trkpt>
      <trkpt lat="47.7595" lon="1.98417">
        <ele>128</ele>
        <time>2018-01-21T08:40:46.000Z</time>
      </trkpt>
      <trkpt lat="47.75906" lon="1.98442">
        <ele>127</ele>
        <time>2018-01-21T08:40:57.000Z</time>
      </trkpt>
      <trkpt lat="47.75902" lon="1.98442">
        <ele>127</ele>
        <time>2018-01-21T08:40:58.000Z</time>
      </trkpt>
      <trkpt lat="47.75897" lon="1.9844">
        <ele>128</ele>
        <time>2018-01-21T08:41:00.000Z</time>
      </trkpt>
      <trkpt lat="47.7586" lon="1.9841">
        <ele>128</ele>
        <time>2018-01-21T08:41:09.000Z</time>
      </trkpt>
      <trkpt lat="47.75855" lon="1.98405">
        <ele>129</ele>
        <time>2018-01-21T08:41:10.000Z</time>
      </trkpt>
      <trkpt lat="47.75813" lon="1.98366">
        <ele>131</ele>
        <time>2018-01-21T08:41:18.000Z</time>
      </trkpt>
      <trkpt lat="47.75808" lon="1.98361">
        <ele>131</ele>
        <time>2018-01-21T08:41:19.000Z</time>
      </trkpt>
      <trkpt lat="47.75769" lon="1.98325">
        <ele>130</ele>
        <time>2018-01-21T08:41:26.000Z</time>
      </trkpt>
      <trkpt lat="47.75763" lon="1.98319">
        <ele>130</ele>
        <time>2018-01-21T08:41:27.000Z</time>
      </trkpt>
      <trkpt lat="47.75722" lon="1.98275">
        <ele>127</ele>
        <time>2018-01-21T08:41:34.000Z</time>
      </trkpt>
      <trkpt lat="47.75716" lon="1.98268">
        <ele>126</ele>
        <time>2018-01-21T08:41:35.000Z</time>
      </trkpt>
      <trkpt lat="47.75676" lon="1.98229">
        <ele>122</ele>
        <time>2018-01-21T08:41:41.000Z</time>
      </trkpt>
      <trkpt lat="47.7567" lon="1.98222">
        <ele>122</ele>
        <time>2018-01-21T08:41:42.000Z</time>
      </trkpt>
      <trkpt lat="47.75631" lon="1.98181">
        <ele>118</ele>
        <time>2018-01-21T08:41:51.000Z</time>
      </trkpt>
      <trkpt lat="47.75626" lon="1.98175">
        <ele>117</ele>
        <time>2018-01-21T08:41:52.000Z</time>
      </trkpt>
      <trkpt lat="47.75591" lon="1.98135">
        <ele>116</ele>
        <time>2018-01-21T08:42:00.000Z</time>
      </trkpt>
      <trkpt lat="47.75586" lon="1.9813">
        <ele>116</ele>
        <time>2018-01-21T08:42:01.000Z</time>
      </trkpt>
      <trkpt lat="47.75547" lon="1.98089">
        <ele>116</ele>
        <time>2018-01-21T08:42:11.000Z</time>
      </trkpt>
      <trkpt lat="47.75543" lon="1.98085">
        <ele>117</ele>
        <time>2018-01-21T08:42:12.000Z</time>
      </trkpt>
      <trkpt lat="47.75504" lon="1.98042">
        <ele>117</ele>
        <time>2018-01-21T08:42:23.000Z</time>
      </trkpt>
      <trkpt lat="47.755" lon="1.98038">
        <ele>117</ele>
        <time>2018-01-21T08:42:24.000Z</time>
      </trkpt>
      <trkpt lat="47.7546" lon="1.97997">
        <ele>119</ele>
        <time>2018-01-21T08:42:36.000Z</time>
      </trkpt>
      <trkpt lat="47.75456" lon="1.97993">
        <ele>119</ele>
        <time>2018-01-21T08:42:37.000Z</time>
      </trkpt>
      <trkpt lat="47.75419" lon="1.97952">
        <ele>120</ele>
        <time>2018-01-21T08:42:48.000Z</time>
      </trkpt>
      <trkpt lat="47.75415" lon="1.97949">
        <ele>120</ele>
        <time>2018-01-21T08:42:49.000Z</time>
      </trkpt>
      <trkpt lat="47.75377" lon="1.97908">
        <ele>121</ele>
        <time>2018-01-21T08:42:59.000Z</time>
      </trkpt>
      <trkpt lat="47.75372" lon="1.97905">
        <ele>122</ele>
        <time>2018-01-21T08:43:00.000Z</time>
      </trkpt>
      <trkpt lat="47.75334" lon="1.97864">
        <ele>122</ele>
        <time>2018-01-21T08:43:11.000Z</time>
      </trkpt>
      <trkpt lat="47.7533" lon="1.9786">
        <ele>123</ele>
        <time>2018-01-21T08:43:12.000Z</time>
      </trkpt>
      <trkpt lat="47.75292" lon="1.97822">
        <ele>123</ele>
        <time>2018-01-21T08:43:23.000Z</time>
      </trkpt>
      <trkpt lat="47.75288" lon="1.97817">
        <ele>123</ele>
        <time>2018-01-21T08:43:24.000Z</time>
      </trkpt>
      <trkpt lat="47.75249" lon="1.97782">
        <ele>122</ele>
        <time>2018-01-21T08:43:35.000Z</time>
      </trkpt>
      <trkpt lat="47.75246" lon="1.97778">
        <ele>122</ele>
        <time>2018-01-21T08:43:36.000Z</time>
      </trkpt>
      <trkpt lat="47.75232" lon="1.97762">
        <ele>122</ele>
        <time>2018-01-21T08:43:40.000Z</time>
      </trkpt>
      <trkpt lat="47.75194" lon="1.97719">
        <ele>121</ele>
        <time>2018-01-21T08:43:51.000Z</time>
      </trkpt>
      <trkpt lat="47.75191" lon="1.97715">
        <ele>121</ele>
        <time>2018-01-21T08:43:52.000Z</time>
      </trkpt>
      <trkpt lat="47.75155" lon="1.97673">
        <ele>121</ele>
        <time>2018-01-21T08:44:03.000Z</time>
      </trkpt>
      <trkpt lat="47.75151" lon="1.9767">
        <ele>121</ele>
        <time>2018-01-21T08:44:04.000Z</time>
      </trkpt>
      <trkpt lat="47.75113" lon="1.97631">
        <ele>122</ele>
        <time>2018-01-21T08:44:14.000Z</time>
      </trkpt>
      <trkpt lat="47.75109" lon="1.97628">
        <ele>122</ele>
        <time>2018-01-21T08:44:15.000Z</time>
      </trkpt>
      <trkpt lat="47.75071" lon="1.97584">
        <ele>122</ele>
        <time>2018-01-21T08:44:27.000Z</time>
      </trkpt>
      <trkpt lat="47.75068" lon="1.97582">
        <ele>121</ele>
        <time>2018-01-21T08:44:28.000Z</time>
      </trkpt>
      <trkpt lat="47.7503" lon="1.9754">
        <ele>121</ele>
        <time>2018-01-21T08:44:40.000Z</time>
      </trkpt>
      <trkpt lat="47.75026" lon="1.97537">
        <ele>121</ele>
        <time>2018-01-21T08:44:41.000Z</time>
      </trkpt>
      <trkpt lat="47.74987" lon="1.97494">
        <ele>120</ele>
        <time>2018-01-21T08:44:52.000Z</time>
      </trkpt>
      <trkpt lat="47.74983" lon="1.97489">
        <ele>120</ele>
        <time>2018-01-21T08:44:53.000Z</time>
      </trkpt>
      <trkpt lat="47.74947" lon="1.97447">
        <ele>119</ele>
        <time>2018-01-21T08:45:02.000Z</time>
      </trkpt>
      <trkpt lat="47.74943" lon="1.97443">
        <ele>119</ele>
        <time>2018-01-21T08:45:03.000Z</time>
      </trkpt>
      <trkpt lat="47.74902" lon="1.974">
        <ele>120</ele>
        <time>2018-01-21T08:45:13.000Z</time>
      </trkpt>
      <trkpt lat="47.74898" lon="1.97396">
        <ele>120</ele>
        <time>2018-01-21T08:45:14.000Z</time>
      </trkpt>
      <trkpt lat="47.74859" lon="1.97356">
        <ele>121</ele>
        <time>2018-01-21T08:45:24.000Z</time>
      </trkpt>
      <trkpt lat="47.74855" lon="1.97352">
        <ele>121</ele>
        <time>2018-01-21T08:45:25.000Z</time>
      </trkpt>
      <trkpt lat="47.74819" lon="1.97312">
        <ele>120</ele>
        <time>2018-01-21T08:45:36.000Z</time>
      </trkpt>
      <trkpt lat="47.74818" lon="1.97313">
        <ele>120</ele>
        <time>2018-01-21T08:45:37.000Z</time>
      </trkpt>
      <trkpt lat="47.74814" lon="1.9732">
        <ele>121</ele>
        <time>2018-01-21T08:45:40.000Z</time>
      </trkpt>
      <trkpt lat="47.74807" lon="1.97323">
        <ele>121</ele>
        <time>2018-01-21T08:45:43.000Z</time>
      </trkpt>
      <trkpt lat="47.74784" lon="1.97324">
        <ele>123</ele>
        <time>2018-01-21T08:45:50.000Z</time>
      </trkpt>
      <trkpt lat="47.74772" lon="1.97329">
        <ele>123</ele>
        <time>2018-01-21T08:45:53.000Z</time>
      </trkpt>
      <trkpt lat="47.7473" lon="1.97359">
        <ele>122</ele>
        <time>2018-01-21T08:46:05.000Z</time>
      </trkpt>
      <trkpt lat="47.74725" lon="1.97362">
        <ele>122</ele>
        <time>2018-01-21T08:46:06.000Z</time>
      </trkpt>
      <trkpt lat="47.74682" lon="1.9739">
        <ele>120</ele>
        <time>2018-01-21T08:46:15.000Z</time>
      </trkpt>
      <trkpt lat="47.74677" lon="1.97393">
        <ele>120</ele>
        <time>2018-01-21T08:46:16.000Z</time>
      </trkpt>
      <trkpt lat="47.74633" lon="1.97422">
        <ele>116</ele>
        <time>2018-01-21T08:46:27.000Z</time>
      </trkpt>
      <trkpt lat="47.7463" lon="1.97425">
        <ele>115</ele>
        <time>2018-01-21T08:46:28.000Z</time>
      </trkpt>
      <trkpt lat="47.74596" lon="1.97449">
        <ele>109</ele>
        <time>2018-01-21T08:46:37.000Z</time>
      </trkpt>
      <trkpt lat="47.74577" lon="1.97462">
        <ele>108</ele>
        <time>2018-01-21T08:46:42.000Z</time>
      </trkpt>
      <trkpt lat="47.74533" lon="1.97495">
        <ele>106</ele>
        <time>2018-01-21T08:46:53.000Z</time>
      </trkpt>
      <trkpt lat="47.74529" lon="1.97499">
        <ele>105</ele>
        <time>2018-01-21T08:46:54.000Z</time>
      </trkpt>
      <trkpt lat="47.74487" lon="1.97527">
        <ele>104</ele>
        <time>2018-01-21T08:47:03.000Z</time>
      </trkpt>
      <trkpt lat="47.74482" lon="1.9753">
        <ele>103</ele>
        <time>2018-01-21T08:47:04.000Z</time>
      </trkpt>
      <trkpt lat="47.74471" lon="1.9754">
        <ele>103</ele>
        <time>2018-01-21T08:47:07.000Z</time>
      </trkpt>
      <trkpt lat="47.74454" lon="1.9755">
        <ele>103</ele>
        <time>2018-01-21T08:47:11.000Z</time>
      </trkpt>
      <trkpt lat="47.74444" lon="1.9756">
        <ele>103</ele>
        <time>2018-01-21T08:47:14.000Z</time>
      </trkpt>
      <trkpt lat="47.74399" lon="1.97591">
        <ele>104</ele>
        <time>2018-01-21T08:47:24.000Z</time>
      </trkpt>
      <trkpt lat="47.74395" lon="1.97595">
        <ele>104</ele>
        <time>2018-01-21T08:47:25.000Z</time>
      </trkpt>
      <trkpt lat="47.74353" lon="1.97625">
        <ele>104</ele>
        <time>2018-01-21T08:47:34.000Z</time>
      </trkpt>
      <trkpt lat="47.74348" lon="1.97628">
        <ele>104</ele>
        <time>2018-01-21T08:47:35.000Z</time>
      </trkpt>
      <trkpt lat="47.74304" lon="1.9766">
        <ele>105</ele>
        <time>2018-01-21T08:47:46.000Z</time>
      </trkpt>
      <trkpt lat="47.743" lon="1.97662">
        <ele>105</ele>
        <time>2018-01-21T08:47:47.000Z</time>
      </trkpt>
      <trkpt lat="47.74296" lon="1.97664">
        <ele>105</ele>
        <time>2018-01-21T08:47:48.000Z</time>
      </trkpt>
      <trkpt lat="47.74252" lon="1.97693">
        <ele>104</ele>
        <time>2018-01-21T08:47:59.000Z</time>
      </trkpt>
      <trkpt lat="47.74248" lon="1.97696">
        <ele>104</ele>
        <time>2018-01-21T08:48:00.000Z</time>
      </trkpt>
      <trkpt lat="47.74205" lon="1.97729">
        <ele>103</ele>
        <time>2018-01-21T08:48:12.000Z</time>
      </trkpt>
      <trkpt lat="47.742" lon="1.97731">
        <ele>103</ele>
        <time>2018-01-21T08:48:13.000Z</time>
      </trkpt>
      <trkpt lat="47.74158" lon="1.97761">
        <ele>104</ele>
        <time>2018-01-21T08:48:23.000Z</time>
      </trkpt>
      <trkpt lat="47.74154" lon="1.97765">
        <ele>104</ele>
        <time>2018-01-21T08:48:24.000Z</time>
      </trkpt>
      <trkpt lat="47.7411" lon="1.97791">
        <ele>106</ele>
        <time>2018-01-21T08:48:34.000Z</time>
      </trkpt>
      <trkpt lat="47.74105" lon="1.97792">
        <ele>106</ele>
        <time>2018-01-21T08:48:35.000Z</time>
      </trkpt>
      <trkpt lat="47.7409" lon="1.97797">
        <ele>107</ele>
        <time>2018-01-21T08:48:38.000Z</time>
      </trkpt>
      <trkpt lat="47.74044" lon="1.97828">
        <ele>106</ele>
        <time>2018-01-21T08:48:47.000Z</time>
      </trkpt>
      <trkpt lat="47.74039" lon="1.97832">
        <ele>106</ele>
        <time>2018-01-21T08:48:48.000Z</time>
      </trkpt>
      <trkpt lat="47.73998" lon="1.97863">
        <ele>107</ele>
        <time>2018-01-21T08:48:57.000Z</time>
      </trkpt>
      <trkpt lat="47.73993" lon="1.97866">
        <ele>107</ele>
        <time>2018-01-21T08:48:58.000Z</time>
      </trkpt>
      <trkpt lat="47.73949" lon="1.97899">
        <ele>108</ele>
        <time>2018-01-21T08:49:06.000Z</time>
      </trkpt>
      <trkpt lat="47.73943" lon="1.97903">
        <ele>108</ele>
        <time>2018-01-21T08:49:07.000Z</time>
      </trkpt>
      <trkpt lat="47.739" lon="1.97936">
        <ele>107</ele>
        <time>2018-01-21T08:49:15.000Z</time>
      </trkpt>
      <trkpt lat="47.73897" lon="1.97942">
        <ele>107</ele>
        <time>2018-01-21T08:49:16.000Z</time>
      </trkpt>
      <trkpt lat="47.73896" lon="1.97948">
        <ele>107</ele>
        <time>2018-01-21T08:49:17.000Z</time>
      </trkpt>
      <trkpt lat="47.73898" lon="1.97961">
        <ele>107</ele>
        <time>2018-01-21T08:49:19.000Z</time>
      </trkpt>
      <trkpt lat="47.73922" lon="1.98025">
        <ele>107</ele>
        <time>2018-01-21T08:49:27.000Z</time>
      </trkpt>
      <trkpt lat="47.73925" lon="1.98033">
        <ele>107</ele>
        <time>2018-01-21T08:49:28.000Z</time>
      </trkpt>
      <trkpt lat="47.73951" lon="1.98098">
        <ele>109</ele>
        <time>2018-01-21T08:49:36.000Z</time>
      </trkpt>
      <trkpt lat="47.73954" lon="1.98106">
        <ele>109</ele>
        <time>2018-01-21T08:49:37.000Z</time>
      </trkpt>
      <trkpt lat="47.73972" lon="1.98145">
        <ele>110</ele>
        <time>2018-01-21T08:49:42.000Z</time>
      </trkpt>
      <trkpt lat="47.74005" lon="1.982">
        <ele>112</ele>
        <time>2018-01-21T08:49:50.000Z</time>
      </trkpt>
      <trkpt lat="47.7401" lon="1.98207">
        <ele>112</ele>
        <time>2018-01-21T08:49:51.000Z</time>
      </trkpt>
      <trkpt lat="47.74024" lon="1.98226">
        <ele>112</ele>
        <time>2018-01-21T08:49:54.000Z</time>
      </trkpt>
      <trkpt lat="47.74057" lon="1.98274">
        <ele>112</ele>
        <time>2018-01-21T08:50:01.000Z</time>
      </trkpt>
      <trkpt lat="47.74062" lon="1.98281">
        <ele>112</ele>
        <time>2018-01-21T08:50:02.000Z</time>
      </trkpt>
      <trkpt lat="47.74095" lon="1.98327">
        <ele>111</ele>
        <time>2018-01-21T08:50:09.000Z</time>
      </trkpt>
      <trkpt lat="47.741" lon="1.98334">
        <ele>111</ele>
        <time>2018-01-21T08:50:10.000Z</time>
      </trkpt>
      <trkpt lat="47.74136" lon="1.98384">
        <ele>111</ele>
        <time>2018-01-21T08:50:18.000Z</time>
      </trkpt>
      <trkpt lat="47.7414" lon="1.98391">
        <ele>111</ele>
        <time>2018-01-21T08:50:19.000Z</time>
      </trkpt>
      <trkpt lat="47.74173" lon="1.98436">
        <ele>111</ele>
        <time>2018-01-21T08:50:27.000Z</time>
      </trkpt>
      <trkpt lat="47.74178" lon="1.98442">
        <ele>111</ele>
        <time>2018-01-21T08:50:28.000Z</time>
      </trkpt>
      <trkpt lat="47.742" lon="1.98465">
        <ele>111</ele>
        <time>2018-01-21T08:50:33.000Z</time>
      </trkpt>
      <trkpt lat="47.74217" lon="1.98482">
        <ele>110</ele>
        <time>2018-01-21T08:50:37.000Z</time>
      </trkpt>
      <trkpt lat="47.74221" lon="1.98498">
        <ele>109</ele>
        <time>2018-01-21T08:50:40.000Z</time>
      </trkpt>
      <trkpt lat="47.74228" lon="1.98504">
        <ele>109</ele>
        <time>2018-01-21T08:50:42.000Z</time>
      </trkpt>
      <trkpt lat="47.74271" lon="1.98537">
        <ele>108</ele>
        <time>2018-01-21T08:50:53.000Z</time>
      </trkpt>
      <trkpt lat="47.74274" lon="1.9854">
        <ele>107</ele>
        <time>2018-01-21T08:50:54.000Z</time>
      </trkpt>
      <trkpt lat="47.74314" lon="1.98573">
        <ele>107</ele>
        <time>2018-01-21T08:51:04.000Z</time>
      </trkpt>
      <trkpt lat="47.74318" lon="1.98576">
        <ele>107</ele>
        <time>2018-01-21T08:51:05.000Z</time>
      </trkpt>
      <trkpt lat="47.74337" lon="1.98592">
        <ele>107</ele>
        <time>2018-01-21T08:51:10.000Z</time>
      </trkpt>
      <trkpt lat="47.74378" lon="1.98626">
        <ele>106</ele>
        <time>2018-01-21T08:51:21.000Z</time>
      </trkpt>
      <trkpt lat="47.74382" lon="1.98628">
        <ele>106</ele>
        <time>2018-01-21T08:51:22.000Z</time>
      </trkpt>
      <trkpt lat="47.74424" lon="1.98666">
        <ele>108</ele>
        <time>2018-01-21T08:51:34.000Z</time>
      </trkpt>
      <trkpt lat="47.74429" lon="1.9867">
        <ele>108</ele>
        <time>2018-01-21T08:51:35.000Z</time>
      </trkpt>
      <trkpt lat="47.74441" lon="1.98685">
        <ele>109</ele>
        <time>2018-01-21T08:51:39.000Z</time>
      </trkpt>
      <trkpt lat="47.74441" lon="1.987">
        <ele>109</ele>
        <time>2018-01-21T08:51:42.000Z</time>
      </trkpt>
      <trkpt lat="47.74439" lon="1.98711">
        <ele>109</ele>
        <time>2018-01-21T08:51:44.000Z</time>
      </trkpt>
      <trkpt lat="47.74417" lon="1.98775">
        <ele>105</ele>
        <time>2018-01-21T08:51:55.000Z</time>
      </trkpt>
      <trkpt lat="47.74414" lon="1.9878">
        <ele>105</ele>
        <time>2018-01-21T08:51:56.000Z</time>
      </trkpt>
      <trkpt lat="47.74406" lon="1.98803">
        <ele>104</ele>
        <time>2018-01-21T08:52:00.000Z</time>
      </trkpt>
      <trkpt lat="47.74383" lon="1.98863">
        <ele>103</ele>
        <time>2018-01-21T08:52:10.000Z</time>
      </trkpt>
      <trkpt lat="47.74381" lon="1.98869">
        <ele>103</ele>
        <time>2018-01-21T08:52:11.000Z</time>
      </trkpt>
      <trkpt lat="47.74357" lon="1.98932">
        <ele>103</ele>
        <time>2018-01-21T08:52:22.000Z</time>
      </trkpt>
      <trkpt lat="47.74355" lon="1.98937">
        <ele>103</ele>
        <time>2018-01-21T08:52:23.000Z</time>
      </trkpt>
      <trkpt lat="47.74349" lon="1.9896">
        <ele>104</ele>
        <time>2018-01-21T08:52:29.000Z</time>
      </trkpt>
      <trkpt lat="47.74388" lon="1.98995">
        <ele>106</ele>
        <time>2018-01-21T08:52:42.000Z</time>
      </trkpt>
      <trkpt lat="47.74392" lon="1.98997">
        <ele>106</ele>
        <time>2018-01-21T08:52:43.000Z</time>
      </trkpt>
      <trkpt lat="47.74398" lon="1.99001">
        <ele>106</ele>
        <time>2018-01-21T08:52:45.000Z</time>
      </trkpt>
      <trkpt lat="47.74416" lon="1.99005">
        <ele>107</ele>
        <time>2018-01-21T08:52:55.000Z</time>
      </trkpt>
      <trkpt lat="47.74422" lon="1.99008">
        <ele>107</ele>
        <time>2018-01-21T08:53:03.000Z</time>
      </trkpt>
      <trkpt lat="47.74438" lon="1.9902">
        <ele>106</ele>
        <time>2018-01-21T08:53:08.000Z</time>
      </trkpt>
      <trkpt lat="47.74463" lon="1.99042">
        <ele>108</ele>
        <time>2018-01-21T08:53:16.000Z</time>
      </trkpt>
      <trkpt lat="47.74472" lon="1.99049">
        <ele>108</ele>
        <time>2018-01-21T08:53:19.000Z</time>
      </trkpt>
      <trkpt lat="47.74473" lon="1.99061">
        <ele>108</ele>
        <time>2018-01-21T08:53:22.000Z</time>
      </trkpt>
      <trkpt lat="47.74473" lon="1.99079">
        <ele>106</ele>
        <time>2018-01-21T08:53:25.000Z</time>
      </trkpt>
      <trkpt lat="47.74465" lon="1.99146">
        <ele>104</ele>
        <time>2018-01-21T08:53:34.000Z</time>
      </trkpt>
      <trkpt lat="47.74464" lon="1.99153">
        <ele>103</ele>
        <time>2018-01-21T08:53:35.000Z</time>
      </trkpt>
      <trkpt lat="47.74454" lon="1.99226">
        <ele>103</ele>
        <time>2018-01-21T08:53:45.000Z</time>
      </trkpt>
      <trkpt lat="47.74454" lon="1.99233">
        <ele>103</ele>
        <time>2018-01-21T08:53:46.000Z</time>
      </trkpt>
      <trkpt lat="47.74452" lon="1.99303">
        <ele>103</ele>
        <time>2018-01-21T08:53:56.000Z</time>
      </trkpt>
      <trkpt lat="47.74452" lon="1.9931">
        <ele>104</ele>
        <time>2018-01-21T08:53:57.000Z</time>
      </trkpt>
      <trkpt lat="47.74453" lon="1.99329">
        <ele>104</ele>
        <time>2018-01-21T08:54:00.000Z</time>
      </trkpt>
      <trkpt lat="47.74458" lon="1.99338">
        <ele>105</ele>
        <time>2018-01-21T08:54:02.000Z</time>
      </trkpt>
      <trkpt lat="47.74497" lon="1.99381">
        <ele>107</ele>
        <time>2018-01-21T08:54:13.000Z</time>
      </trkpt>
      <trkpt lat="47.74501" lon="1.99385">
        <ele>107</ele>
        <time>2018-01-21T08:54:14.000Z</time>
      </trkpt>
      <trkpt lat="47.7453" lon="1.99418">
        <ele>108</ele>
        <time>2018-01-21T08:54:22.000Z</time>
      </trkpt>
      <trkpt lat="47.74559" lon="1.99471">
        <ele>109</ele>
        <time>2018-01-21T08:54:32.000Z</time>
      </trkpt>
      <trkpt lat="47.74563" lon="1.99476">
        <ele>109</ele>
        <time>2018-01-21T08:54:33.000Z</time>
      </trkpt>
      <trkpt lat="47.74596" lon="1.99518">
        <ele>109</ele>
        <time>2018-01-21T08:54:42.000Z</time>
      </trkpt>
      <trkpt lat="47.746" lon="1.99522">
        <ele>109</ele>
        <time>2018-01-21T08:54:43.000Z</time>
      </trkpt>
      <trkpt lat="47.74635" lon="1.99573">
        <ele>110</ele>
        <time>2018-01-21T08:54:53.000Z</time>
      </trkpt>
      <trkpt lat="47.74639" lon="1.99578">
        <ele>110</ele>
        <time>2018-01-21T08:54:54.000Z</time>
      </trkpt>
      <trkpt lat="47.74677" lon="1.99626">
        <ele>111</ele>
        <time>2018-01-21T08:55:04.000Z</time>
      </trkpt>
      <trkpt lat="47.7468" lon="1.9963">
        <ele>111</ele>
        <time>2018-01-21T08:55:05.000Z</time>
      </trkpt>
      <trkpt lat="47.74718" lon="1.99678">
        <ele>111</ele>
        <time>2018-01-21T08:55:15.000Z</time>
      </trkpt>
      <trkpt lat="47.74722" lon="1.99684">
        <ele>111</ele>
        <time>2018-01-21T08:55:16.000Z</time>
      </trkpt>
      <trkpt lat="47.74754" lon="1.99731">
        <ele>111</ele>
        <time>2018-01-21T08:55:24.000Z</time>
      </trkpt>
      <trkpt lat="47.74757" lon="1.99737">
        <ele>111</ele>
        <time>2018-01-21T08:55:25.000Z</time>
      </trkpt>
      <trkpt lat="47.74791" lon="1.9978">
        <ele>111</ele>
        <time>2018-01-21T08:55:33.000Z</time>
      </trkpt>
      <trkpt lat="47.74795" lon="1.99785">
        <ele>111</ele>
        <time>2018-01-21T08:55:34.000Z</time>
      </trkpt>
      <trkpt lat="47.74833" lon="1.99833">
        <ele>113</ele>
        <time>2018-01-21T08:55:43.000Z</time>
      </trkpt>
      <trkpt lat="47.74837" lon="1.99838">
        <ele>113</ele>
        <time>2018-01-21T08:55:44.000Z</time>
      </trkpt>
      <trkpt lat="47.74874" lon="1.99882">
        <ele>114</ele>
        <time>2018-01-21T08:55:52.000Z</time>
      </trkpt>
      <trkpt lat="47.74878" lon="1.99887">
        <ele>114</ele>
        <time>2018-01-21T08:55:53.000Z</time>
      </trkpt>
      <trkpt lat="47.74917" lon="1.9993">
        <ele>114</ele>
        <time>2018-01-21T08:56:01.000Z</time>
      </trkpt>
      <trkpt lat="47.74922" lon="1.99936">
        <ele>114</ele>
        <time>2018-01-21T08:56:02.000Z</time>
      </trkpt>
      <trkpt lat="47.74958" lon="1.99978">
        <ele>113</ele>
        <time>2018-01-21T08:56:09.000Z</time>
      </trkpt>
      <trkpt lat="47.74962" lon="1.99984">
        <ele>113</ele>
        <time>2018-01-21T08:56:10.000Z</time>
      </trkpt>
      <trkpt lat="47.74999" lon="2.00027">
        <ele>113</ele>
        <time>2018-01-21T08:56:18.000Z</time>
      </trkpt>
      <trkpt lat="47.75004" lon="2.00032">
        <ele>113</ele>
        <time>2018-01-21T08:56:19.000Z</time>
      </trkpt>
      <trkpt lat="47.7504" lon="2.00073">
        <ele>113</ele>
        <time>2018-01-21T08:56:27.000Z</time>
      </trkpt>
      <trkpt lat="47.75045" lon="2.00078">
        <ele>113</ele>
        <time>2018-01-21T08:56:28.000Z</time>
      </trkpt>
      <trkpt lat="47.75056" lon="2.00094">
        <ele>113</ele>
        <time>2018-01-21T08:56:31.000Z</time>
      </trkpt>
      <trkpt lat="47.75059" lon="2.00107">
        <ele>113</ele>
        <time>2018-01-21T08:56:33.000Z</time>
      </trkpt>
      <trkpt lat="47.75056" lon="2.0012">
        <ele>114</ele>
        <time>2018-01-21T08:56:35.000Z</time>
      </trkpt>
      <trkpt lat="47.75053" lon="2.00139">
        <ele>115</ele>
        <time>2018-01-21T08:56:38.000Z</time>
      </trkpt>
      <trkpt lat="47.75051" lon="2.00206">
        <ele>117</ele>
        <time>2018-01-21T08:56:49.000Z</time>
      </trkpt>
      <trkpt lat="47.75051" lon="2.00213">
        <ele>117</ele>
        <time>2018-01-21T08:56:50.000Z</time>
      </trkpt>
      <trkpt lat="47.75048" lon="2.00242">
        <ele>117</ele>
        <time>2018-01-21T08:56:55.000Z</time>
      </trkpt>
      <trkpt lat="47.75046" lon="2.00286">
        <ele>117</ele>
        <time>2018-01-21T08:57:03.000Z</time>
      </trkpt>
      <trkpt lat="47.75049" lon="2.0032">
        <ele>118</ele>
        <time>2018-01-21T08:57:09.000Z</time>
      </trkpt>
      <trkpt lat="47.75056" lon="2.00341">
        <ele>120</ele>
        <time>2018-01-21T08:57:13.000Z</time>
      </trkpt>
      <trkpt lat="47.75061" lon="2.00356">
        <ele>121</ele>
        <time>2018-01-21T08:57:16.000Z</time>
      </trkpt>
      <trkpt lat="47.75065" lon="2.00372">
        <ele>122</ele>
        <time>2018-01-21T08:57:19.000Z</time>
      </trkpt>
      <trkpt lat="47.75068" lon="2.00387">
        <ele>123</ele>
        <time>2018-01-21T08:57:22.000Z</time>
      </trkpt>
      <trkpt lat="47.75075" lon="2.00402">
        <ele>125</ele>
        <time>2018-01-21T08:57:26.000Z</time>
      </trkpt>
      <trkpt lat="47.75077" lon="2.0041">
        <ele>127</ele>
        <time>2018-01-21T08:57:28.000Z</time>
      </trkpt>
      <trkpt lat="47.75093" lon="2.00477">
        <ele>130</ele>
        <time>2018-01-21T08:57:40.000Z</time>
      </trkpt>
      <trkpt lat="47.75094" lon="2.00483">
        <ele>130</ele>
        <time>2018-01-21T08:57:41.000Z</time>
      </trkpt>
      <trkpt lat="47.751" lon="2.00497">
        <ele>129</ele>
        <time>2018-01-21T08:57:44.000Z</time>
      </trkpt>
      <trkpt lat="47.75105" lon="2.0051">
        <ele>127</ele>
        <time>2018-01-21T08:57:47.000Z</time>
      </trkpt>
      <trkpt lat="47.75124" lon="2.00571">
        <ele>123</ele>
        <time>2018-01-21T08:57:58.000Z</time>
      </trkpt>
      <trkpt lat="47.75126" lon="2.00578">
        <ele>123</ele>
        <time>2018-01-21T08:57:59.000Z</time>
      </trkpt>
      <trkpt lat="47.7514" lon="2.00642">
        <ele>123</ele>
        <time>2018-01-21T08:58:09.000Z</time>
      </trkpt>
      <trkpt lat="47.75141" lon="2.00648">
        <ele>123</ele>
        <time>2018-01-21T08:58:10.000Z</time>
      </trkpt>
      <trkpt lat="47.75154" lon="2.00696">
        <ele>124</ele>
        <time>2018-01-21T08:58:18.000Z</time>
      </trkpt>
      <trkpt lat="47.75166" lon="2.00738">
        <ele>126</ele>
        <time>2018-01-21T08:58:25.000Z</time>
      </trkpt>
      <trkpt lat="47.7518" lon="2.00805">
        <ele>127</ele>
        <time>2018-01-21T08:58:34.000Z</time>
      </trkpt>
      <trkpt lat="47.75181" lon="2.00812">
        <ele>127</ele>
        <time>2018-01-21T08:58:35.000Z</time>
      </trkpt>
      <trkpt lat="47.75189" lon="2.00841">
        <ele>125</ele>
        <time>2018-01-21T08:58:40.000Z</time>
      </trkpt>
      <trkpt lat="47.75192" lon="2.00849">
        <ele>125</ele>
        <time>2018-01-21T08:58:42.000Z</time>
      </trkpt>
      <trkpt lat="47.75196" lon="2.00862">
        <ele>123</ele>
        <time>2018-01-21T08:58:45.000Z</time>
      </trkpt>
      <trkpt lat="47.75203" lon="2.00897">
        <ele>122</ele>
        <time>2018-01-21T08:58:55.000Z</time>
      </trkpt>
      <trkpt lat="47.75203" lon="2.00905">
        <ele>122</ele>
        <time>2018-01-21T08:59:00.000Z</time>
      </trkpt>
      <trkpt lat="47.75207" lon="2.00917">
        <ele>123</ele>
        <time>2018-01-21T08:59:06.000Z</time>
      </trkpt>
      <trkpt lat="47.75208" lon="2.00923">
        <ele>125</ele>
        <time>2018-01-21T08:59:31.000Z</time>
      </trkpt>
      <trkpt lat="47.75207" lon="2.00923">
        <ele>116</ele>
        <time>2018-01-21T09:01:51.000Z</time>
      </trkpt>
      <trkpt lat="47.75195" lon="2.00919">
        <ele>121</ele>
        <time>2018-01-21T09:02:43.000Z</time>
      </trkpt>
      <trkpt lat="47.75175" lon="2.0093">
        <ele>123</ele>
        <time>2018-01-21T09:02:51.000Z</time>
      </trkpt>
      <trkpt lat="47.75137" lon="2.00967">
        <ele>128</ele>
        <time>2018-01-21T09:03:04.000Z</time>
      </trkpt>
      <trkpt lat="47.75135" lon="2.0097">
        <ele>128</ele>
        <time>2018-01-21T09:03:05.000Z</time>
      </trkpt>
      <trkpt lat="47.75121" lon="2.00984">
        <ele>132</ele>
        <time>2018-01-21T09:03:11.000Z</time>
      </trkpt>
      <trkpt lat="47.75079" lon="2.01017">
        <ele>134</ele>
        <time>2018-01-21T09:03:26.000Z</time>
      </trkpt>
      <trkpt lat="47.75076" lon="2.0102">
        <ele>135</ele>
        <time>2018-01-21T09:03:27.000Z</time>
      </trkpt>
      <trkpt lat="47.75042" lon="2.01053">
        <ele>134</ele>
        <time>2018-01-21T09:03:41.000Z</time>
      </trkpt>
      <trkpt lat="47.75034" lon="2.01067">
        <ele>132</ele>
        <time>2018-01-21T09:03:45.000Z</time>
      </trkpt>
      <trkpt lat="47.75004" lon="2.0112">
        <ele>133</ele>
        <time>2018-01-21T09:03:57.000Z</time>
      </trkpt>
      <trkpt lat="47.75001" lon="2.01125">
        <ele>133</ele>
        <time>2018-01-21T09:03:58.000Z</time>
      </trkpt>
      <trkpt lat="47.74981" lon="2.01155">
        <ele>134</ele>
        <time>2018-01-21T09:04:03.000Z</time>
      </trkpt>
      <trkpt lat="47.74944" lon="2.01199">
        <ele>134</ele>
        <time>2018-01-21T09:04:11.000Z</time>
      </trkpt>
      <trkpt lat="47.74937" lon="2.01203">
        <ele>134</ele>
        <time>2018-01-21T09:04:12.000Z</time>
      </trkpt>
      <trkpt lat="47.74891" lon="2.01236">
        <ele>133</ele>
        <time>2018-01-21T09:04:19.000Z</time>
      </trkpt>
      <trkpt lat="47.74884" lon="2.01241">
        <ele>132</ele>
        <time>2018-01-21T09:04:20.000Z</time>
      </trkpt>
      <trkpt lat="47.74839" lon="2.01268">
        <ele>129</ele>
        <time>2018-01-21T09:04:27.000Z</time>
      </trkpt>
      <trkpt lat="47.74831" lon="2.01271">
        <ele>129</ele>
        <time>2018-01-21T09:04:28.000Z</time>
      </trkpt>
      <trkpt lat="47.74789" lon="2.01295">
        <ele>127</ele>
        <time>2018-01-21T09:04:35.000Z</time>
      </trkpt>
      <trkpt lat="47.74784" lon="2.013">
        <ele>126</ele>
        <time>2018-01-21T09:04:36.000Z</time>
      </trkpt>
      <trkpt lat="47.74773" lon="2.01311">
        <ele>126</ele>
        <time>2018-01-21T09:04:38.000Z</time>
      </trkpt>
      <trkpt lat="47.74733" lon="2.0135">
        <ele>127</ele>
        <time>2018-01-21T09:04:45.000Z</time>
      </trkpt>
      <trkpt lat="47.74728" lon="2.01353">
        <ele>127</ele>
        <time>2018-01-21T09:04:46.000Z</time>
      </trkpt>
      <trkpt lat="47.74716" lon="2.01356">
        <ele>127</ele>
        <time>2018-01-21T09:04:48.000Z</time>
      </trkpt>
      <trkpt lat="47.7467" lon="2.01371">
        <ele>127</ele>
        <time>2018-01-21T09:04:56.000Z</time>
      </trkpt>
      <trkpt lat="47.74664" lon="2.01374">
        <ele>127</ele>
        <time>2018-01-21T09:04:57.000Z</time>
      </trkpt>
      <trkpt lat="47.74647" lon="2.01383">
        <ele>126</ele>
        <time>2018-01-21T09:05:00.000Z</time>
      </trkpt>
      <trkpt lat="47.74602" lon="2.01395">
        <ele>123</ele>
        <time>2018-01-21T09:05:07.000Z</time>
      </trkpt>
      <trkpt lat="47.74595" lon="2.01396">
        <ele>123</ele>
        <time>2018-01-21T09:05:08.000Z</time>
      </trkpt>
      <trkpt lat="47.74553" lon="2.01403">
        <ele>120</ele>
        <time>2018-01-21T09:05:14.000Z</time>
      </trkpt>
      <trkpt lat="47.74546" lon="2.01403">
        <ele>119</ele>
        <time>2018-01-21T09:05:15.000Z</time>
      </trkpt>
      <trkpt lat="47.74504" lon="2.0141">
        <ele>117</ele>
        <time>2018-01-21T09:05:22.000Z</time>
      </trkpt>
      <trkpt lat="47.74494" lon="2.01415">
        <ele>116</ele>
        <time>2018-01-21T09:05:26.000Z</time>
      </trkpt>
      <trkpt lat="47.74446" lon="2.01419">
        <ele>115</ele>
        <time>2018-01-21T09:05:35.000Z</time>
      </trkpt>
      <trkpt lat="47.74438" lon="2.01421">
        <ele>115</ele>
        <time>2018-01-21T09:05:36.000Z</time>
      </trkpt>
      <trkpt lat="47.74417" lon="2.0143">
        <ele>114</ele>
        <time>2018-01-21T09:05:39.000Z</time>
      </trkpt>
      <trkpt lat="47.74372" lon="2.01451">
        <ele>113</ele>
        <time>2018-01-21T09:05:45.000Z</time>
      </trkpt>
      <trkpt lat="47.74366" lon="2.01454">
        <ele>112</ele>
        <time>2018-01-21T09:05:46.000Z</time>
      </trkpt>
      <trkpt lat="47.74317" lon="2.01478">
        <ele>112</ele>
        <time>2018-01-21T09:05:53.000Z</time>
      </trkpt>
      <trkpt lat="47.74311" lon="2.01482">
        <ele>111</ele>
        <time>2018-01-21T09:05:54.000Z</time>
      </trkpt>
      <trkpt lat="47.74263" lon="2.01504">
        <ele>111</ele>
        <time>2018-01-21T09:06:01.000Z</time>
      </trkpt>
      <trkpt lat="47.74257" lon="2.01508">
        <ele>111</ele>
        <time>2018-01-21T09:06:02.000Z</time>
      </trkpt>
      <trkpt lat="47.74209" lon="2.01531">
        <ele>110</ele>
        <time>2018-01-21T09:06:09.000Z</time>
      </trkpt>
      <trkpt lat="47.74203" lon="2.01534">
        <ele>110</ele>
        <time>2018-01-21T09:06:10.000Z</time>
      </trkpt>
      <trkpt lat="47.74157" lon="2.01557">
        <ele>110</ele>
        <time>2018-01-21T09:06:17.000Z</time>
      </trkpt>
      <trkpt lat="47.7415" lon="2.01561">
        <ele>110</ele>
        <time>2018-01-21T09:06:18.000Z</time>
      </trkpt>
      <trkpt lat="47.74105" lon="2.01586">
        <ele>110</ele>
        <time>2018-01-21T09:06:25.000Z</time>
      </trkpt>
      <trkpt lat="47.74099" lon="2.0159">
        <ele>109</ele>
        <time>2018-01-21T09:06:26.000Z</time>
      </trkpt>
      <trkpt lat="47.74074" lon="2.01608">
        <ele>109</ele>
        <time>2018-01-21T09:06:30.000Z</time>
      </trkpt>
      <trkpt lat="47.74036" lon="2.01646">
        <ele>111</ele>
        <time>2018-01-21T09:06:37.000Z</time>
      </trkpt>
      <trkpt lat="47.7403" lon="2.01652">
        <ele>111</ele>
        <time>2018-01-21T09:06:38.000Z</time>
      </trkpt>
      <trkpt lat="47.73988" lon="2.01686">
        <ele>112</ele>
        <time>2018-01-21T09:06:45.000Z</time>
      </trkpt>
      <trkpt lat="47.73981" lon="2.01688">
        <ele>112</ele>
        <time>2018-01-21T09:06:46.000Z</time>
      </trkpt>
      <trkpt lat="47.73932" lon="2.01693">
        <ele>113</ele>
        <time>2018-01-21T09:06:53.000Z</time>
      </trkpt>
      <trkpt lat="47.73925" lon="2.01694">
        <ele>113</ele>
        <time>2018-01-21T09:06:54.000Z</time>
      </trkpt>
      <trkpt lat="47.73875" lon="2.01714">
        <ele>112</ele>
        <time>2018-01-21T09:07:01.000Z</time>
      </trkpt>
      <trkpt lat="47.73868" lon="2.01718">
        <ele>112</ele>
        <time>2018-01-21T09:07:02.000Z</time>
      </trkpt>
      <trkpt lat="47.73822" lon="2.01751">
        <ele>111</ele>
        <time>2018-01-21T09:07:09.000Z</time>
      </trkpt>
      <trkpt lat="47.73816" lon="2.01756">
        <ele>111</ele>
        <time>2018-01-21T09:07:10.000Z</time>
      </trkpt>
      <trkpt lat="47.73788" lon="2.01768">
        <ele>110</ele>
        <time>2018-01-21T09:07:14.000Z</time>
      </trkpt>
      <trkpt lat="47.7374" lon="2.01774">
        <ele>110</ele>
        <time>2018-01-21T09:07:21.000Z</time>
      </trkpt>
      <trkpt lat="47.73734" lon="2.01775">
        <ele>110</ele>
        <time>2018-01-21T09:07:22.000Z</time>
      </trkpt>
      <trkpt lat="47.73687" lon="2.01777">
        <ele>110</ele>
        <time>2018-01-21T09:07:29.000Z</time>
      </trkpt>
      <trkpt lat="47.7368" lon="2.01777">
        <ele>110</ele>
        <time>2018-01-21T09:07:30.000Z</time>
      </trkpt>
      <trkpt lat="47.7363" lon="2.0178">
        <ele>111</ele>
        <time>2018-01-21T09:07:38.000Z</time>
      </trkpt>
      <trkpt lat="47.73624" lon="2.0178">
        <ele>111</ele>
        <time>2018-01-21T09:07:39.000Z</time>
      </trkpt>
      <trkpt lat="47.73574" lon="2.01783">
        <ele>111</ele>
        <time>2018-01-21T09:07:47.000Z</time>
      </trkpt>
      <trkpt lat="47.73568" lon="2.01783">
        <ele>111</ele>
        <time>2018-01-21T09:07:48.000Z</time>
      </trkpt>
      <trkpt lat="47.7352" lon="2.01786">
        <ele>112</ele>
        <time>2018-01-21T09:07:56.000Z</time>
      </trkpt>
      <trkpt lat="47.73515" lon="2.01786">
        <ele>112</ele>
        <time>2018-01-21T09:07:57.000Z</time>
      </trkpt>
      <trkpt lat="47.73469" lon="2.01788">
        <ele>113</ele>
        <time>2018-01-21T09:08:05.000Z</time>
      </trkpt>
      <trkpt lat="47.73463" lon="2.01788">
        <ele>113</ele>
        <time>2018-01-21T09:08:06.000Z</time>
      </trkpt>
      <trkpt lat="47.73413" lon="2.01791">
        <ele>114</ele>
        <time>2018-01-21T09:08:15.000Z</time>
      </trkpt>
      <trkpt lat="47.73407" lon="2.01792">
        <ele>114</ele>
        <time>2018-01-21T09:08:16.000Z</time>
      </trkpt>
      <trkpt lat="47.73362" lon="2.01793">
        <ele>115</ele>
        <time>2018-01-21T09:08:24.000Z</time>
      </trkpt>
      <trkpt lat="47.73356" lon="2.01793">
        <ele>115</ele>
        <time>2018-01-21T09:08:25.000Z</time>
      </trkpt>
      <trkpt lat="47.73306" lon="2.01795">
        <ele>115</ele>
        <time>2018-01-21T09:08:34.000Z</time>
      </trkpt>
      <trkpt lat="47.733" lon="2.01796">
        <ele>115</ele>
        <time>2018-01-21T09:08:35.000Z</time>
      </trkpt>
      <trkpt lat="47.73255" lon="2.01798">
        <ele>115</ele>
        <time>2018-01-21T09:08:43.000Z</time>
      </trkpt>
      <trkpt lat="47.73249" lon="2.01798">
        <ele>115</ele>
        <time>2018-01-21T09:08:44.000Z</time>
      </trkpt>
      <trkpt lat="47.73204" lon="2.01801">
        <ele>116</ele>
        <time>2018-01-21T09:08:52.000Z</time>
      </trkpt>
      <trkpt lat="47.73198" lon="2.01801">
        <ele>116</ele>
        <time>2018-01-21T09:08:53.000Z</time>
      </trkpt>
      <trkpt lat="47.73148" lon="2.01803">
        <ele>117</ele>
        <time>2018-01-21T09:09:02.000Z</time>
      </trkpt>
      <trkpt lat="47.73143" lon="2.01804">
        <ele>117</ele>
        <time>2018-01-21T09:09:03.000Z</time>
      </trkpt>
      <trkpt lat="47.73093" lon="2.01806">
        <ele>118</ele>
        <time>2018-01-21T09:09:12.000Z</time>
      </trkpt>
      <trkpt lat="47.73088" lon="2.01807">
        <ele>118</ele>
        <time>2018-01-21T09:09:13.000Z</time>
      </trkpt>
      <trkpt lat="47.73039" lon="2.01809">
        <ele>119</ele>
        <time>2018-01-21T09:09:22.000Z</time>
      </trkpt>
      <trkpt lat="47.73034" lon="2.01809">
        <ele>119</ele>
        <time>2018-01-21T09:09:23.000Z</time>
      </trkpt>
      <trkpt lat="47.72987" lon="2.01811">
        <ele>119</ele>
        <time>2018-01-21T09:09:32.000Z</time>
      </trkpt>
      <trkpt lat="47.72982" lon="2.01811">
        <ele>120</ele>
        <time>2018-01-21T09:09:33.000Z</time>
      </trkpt>
      <trkpt lat="47.72937" lon="2.01813">
        <ele>121</ele>
        <time>2018-01-21T09:09:42.000Z</time>
      </trkpt>
      <trkpt lat="47.72932" lon="2.01813">
        <ele>121</ele>
        <time>2018-01-21T09:09:43.000Z</time>
      </trkpt>
      <trkpt lat="47.72887" lon="2.01815">
        <ele>124</ele>
        <time>2018-01-21T09:09:53.000Z</time>
      </trkpt>
      <trkpt lat="47.72882" lon="2.01815">
        <ele>124</ele>
        <time>2018-01-21T09:09:54.000Z</time>
      </trkpt>
      <trkpt lat="47.72834" lon="2.01818">
        <ele>127</ele>
        <time>2018-01-21T09:10:06.000Z</time>
      </trkpt>
      <trkpt lat="47.7283" lon="2.01818">
        <ele>127</ele>
        <time>2018-01-21T09:10:07.000Z</time>
      </trkpt>
      <trkpt lat="47.72785" lon="2.01819">
        <ele>130</ele>
        <time>2018-01-21T09:10:20.000Z</time>
      </trkpt>
      <trkpt lat="47.72781" lon="2.01818">
        <ele>130</ele>
        <time>2018-01-21T09:10:21.000Z</time>
      </trkpt>
      <trkpt lat="47.72733" lon="2.01818">
        <ele>135</ele>
        <time>2018-01-21T09:10:35.000Z</time>
      </trkpt>
      <trkpt lat="47.72729" lon="2.01819">
        <ele>135</ele>
        <time>2018-01-21T09:10:36.000Z</time>
      </trkpt>
      <trkpt lat="47.72705" lon="2.0183">
        <ele>137</ele>
        <time>2018-01-21T09:10:43.000Z</time>
      </trkpt>
      <trkpt lat="47.72669" lon="2.01862">
        <ele>138</ele>
        <time>2018-01-21T09:10:55.000Z</time>
      </trkpt>
      <trkpt lat="47.72668" lon="2.01871">
        <ele>138</ele>
        <time>2018-01-21T09:10:57.000Z</time>
      </trkpt>
      <trkpt lat="47.7267" lon="2.01888">
        <ele>138</ele>
        <time>2018-01-21T09:11:00.000Z</time>
      </trkpt>
      <trkpt lat="47.72689" lon="2.01952">
        <ele>135</ele>
        <time>2018-01-21T09:11:09.000Z</time>
      </trkpt>
      <trkpt lat="47.72691" lon="2.0196">
        <ele>135</ele>
        <time>2018-01-21T09:11:10.000Z</time>
      </trkpt>
      <trkpt lat="47.72711" lon="2.02026">
        <ele>132</ele>
        <time>2018-01-21T09:11:18.000Z</time>
      </trkpt>
      <trkpt lat="47.72713" lon="2.02033">
        <ele>132</ele>
        <time>2018-01-21T09:11:19.000Z</time>
      </trkpt>
      <trkpt lat="47.72735" lon="2.02097">
        <ele>129</ele>
        <time>2018-01-21T09:11:28.000Z</time>
      </trkpt>
      <trkpt lat="47.72737" lon="2.02104">
        <ele>129</ele>
        <time>2018-01-21T09:11:29.000Z</time>
      </trkpt>
      <trkpt lat="47.72755" lon="2.02172">
        <ele>129</ele>
        <time>2018-01-21T09:11:38.000Z</time>
      </trkpt>
      <trkpt lat="47.72756" lon="2.0218">
        <ele>130</ele>
        <time>2018-01-21T09:11:39.000Z</time>
      </trkpt>
      <trkpt lat="47.7276" lon="2.02248">
        <ele>131</ele>
        <time>2018-01-21T09:11:47.000Z</time>
      </trkpt>
      <trkpt lat="47.7276" lon="2.02257">
        <ele>131</ele>
        <time>2018-01-21T09:11:48.000Z</time>
      </trkpt>
      <trkpt lat="47.72758" lon="2.02266">
        <ele>131</ele>
        <time>2018-01-21T09:11:49.000Z</time>
      </trkpt>
      <trkpt lat="47.72746" lon="2.02334">
        <ele>131</ele>
        <time>2018-01-21T09:11:56.000Z</time>
      </trkpt>
      <trkpt lat="47.72745" lon="2.02344">
        <ele>130</ele>
        <time>2018-01-21T09:11:57.000Z</time>
      </trkpt>
      <trkpt lat="47.72735" lon="2.02416">
        <ele>129</ele>
        <time>2018-01-21T09:12:04.000Z</time>
      </trkpt>
      <trkpt lat="47.72734" lon="2.02426">
        <ele>129</ele>
        <time>2018-01-21T09:12:05.000Z</time>
      </trkpt>
      <trkpt lat="47.72718" lon="2.02487">
        <ele>129</ele>
        <time>2018-01-21T09:12:12.000Z</time>
      </trkpt>
      <trkpt lat="47.72717" lon="2.02495">
        <ele>129</ele>
        <time>2018-01-21T09:12:13.000Z</time>
      </trkpt>
      <trkpt lat="47.72698" lon="2.02558">
        <ele>136</ele>
        <time>2018-01-21T09:12:22.000Z</time>
      </trkpt>
      <trkpt lat="47.72696" lon="2.02565">
        <ele>136</ele>
        <time>2018-01-21T09:12:23.000Z</time>
      </trkpt>
      <trkpt lat="47.72683" lon="2.0263">
        <ele>144</ele>
        <time>2018-01-21T09:12:32.000Z</time>
      </trkpt>
      <trkpt lat="47.72683" lon="2.02638">
        <ele>144</ele>
        <time>2018-01-21T09:12:33.000Z</time>
      </trkpt>
      <trkpt lat="47.72679" lon="2.02712">
        <ele>142</ele>
        <time>2018-01-21T09:12:42.000Z</time>
      </trkpt>
      <trkpt lat="47.72678" lon="2.02719">
        <ele>141</ele>
        <time>2018-01-21T09:12:43.000Z</time>
      </trkpt>
      <trkpt lat="47.72667" lon="2.02764">
        <ele>140</ele>
        <time>2018-01-21T09:12:48.000Z</time>
      </trkpt>
      <trkpt lat="47.72646" lon="2.02826">
        <ele>141</ele>
        <time>2018-01-21T09:12:55.000Z</time>
      </trkpt>
      <trkpt lat="47.72644" lon="2.02836">
        <ele>141</ele>
        <time>2018-01-21T09:12:56.000Z</time>
      </trkpt>
      <trkpt lat="47.72645" lon="2.02853">
        <ele>139</ele>
        <time>2018-01-21T09:12:58.000Z</time>
      </trkpt>
      <trkpt lat="47.72657" lon="2.02878">
        <ele>137</ele>
        <time>2018-01-21T09:13:01.000Z</time>
      </trkpt>
      <trkpt lat="47.72677" lon="2.02942">
        <ele>130</ele>
        <time>2018-01-21T09:13:08.000Z</time>
      </trkpt>
      <trkpt lat="47.72678" lon="2.02952">
        <ele>129</ele>
        <time>2018-01-21T09:13:09.000Z</time>
      </trkpt>
      <trkpt lat="47.72683" lon="2.02993">
        <ele>124</ele>
        <time>2018-01-21T09:13:13.000Z</time>
      </trkpt>
      <trkpt lat="47.72695" lon="2.03059">
        <ele>118</ele>
        <time>2018-01-21T09:13:19.000Z</time>
      </trkpt>
      <trkpt lat="47.72697" lon="2.0307">
        <ele>118</ele>
        <time>2018-01-21T09:13:20.000Z</time>
      </trkpt>
      <trkpt lat="47.72712" lon="2.03124">
        <ele>115</ele>
        <time>2018-01-21T09:13:25.000Z</time>
      </trkpt>
      <trkpt lat="47.72715" lon="2.03134">
        <ele>115</ele>
        <time>2018-01-21T09:13:26.000Z</time>
      </trkpt>
      <trkpt lat="47.72727" lon="2.03177">
        <ele>114</ele>
        <time>2018-01-21T09:13:31.000Z</time>
      </trkpt>
      <trkpt lat="47.72725" lon="2.03187">
        <ele>114</ele>
        <time>2018-01-21T09:13:33.000Z</time>
      </trkpt>
      <trkpt lat="47.7271" lon="2.03195">
        <ele>113</ele>
        <time>2018-01-21T09:13:36.000Z</time>
      </trkpt>
      <trkpt lat="47.72687" lon="2.03199">
        <ele>114</ele>
        <time>2018-01-21T09:13:40.000Z</time>
      </trkpt>
      <trkpt lat="47.72672" lon="2.03191">
        <ele>115</ele>
        <time>2018-01-21T09:13:43.000Z</time>
      </trkpt>
      <trkpt lat="47.7266" lon="2.03176">
        <ele>116</ele>
        <time>2018-01-21T09:13:46.000Z</time>
      </trkpt>
      <trkpt lat="47.72638" lon="2.03144">
        <ele>118</ele>
        <time>2018-01-21T09:13:52.000Z</time>
      </trkpt>
      <trkpt lat="47.72614" lon="2.0312">
        <ele>122</ele>
        <time>2018-01-21T09:13:58.000Z</time>
      </trkpt>
      <trkpt lat="47.72569" lon="2.03099">
        <ele>128</ele>
        <time>2018-01-21T09:14:10.000Z</time>
      </trkpt>
      <trkpt lat="47.72566" lon="2.03099">
        <ele>128</ele>
        <time>2018-01-21T09:14:11.000Z</time>
      </trkpt>
      <trkpt lat="47.72554" lon="2.03101">
        <ele>129</ele>
        <time>2018-01-21T09:14:15.000Z</time>
      </trkpt>
      <trkpt lat="47.72545" lon="2.03103">
        <ele>129</ele>
        <time>2018-01-21T09:14:18.000Z</time>
      </trkpt>
      <trkpt lat="47.72511" lon="2.03125">
        <ele>132</ele>
        <time>2018-01-21T09:14:30.000Z</time>
      </trkpt>
      <trkpt lat="47.72498" lon="2.03126">
        <ele>133</ele>
        <time>2018-01-21T09:14:34.000Z</time>
      </trkpt>
      <trkpt lat="47.72474" lon="2.03121">
        <ele>134</ele>
        <time>2018-01-21T09:14:42.000Z</time>
      </trkpt>
      <trkpt lat="47.72437" lon="2.03105">
        <ele>135</ele>
        <time>2018-01-21T09:14:54.000Z</time>
      </trkpt>
      <trkpt lat="47.72398" lon="2.03099">
        <ele>136</ele>
        <time>2018-01-21T09:15:04.000Z</time>
      </trkpt>
      <trkpt lat="47.7235" lon="2.03103">
        <ele>139</ele>
        <time>2018-01-21T09:15:18.000Z</time>
      </trkpt>
      <trkpt lat="47.72346" lon="2.03103">
        <ele>140</ele>
        <time>2018-01-21T09:15:19.000Z</time>
      </trkpt>
      <trkpt lat="47.72301" lon="2.03106">
        <ele>145</ele>
        <time>2018-01-21T09:15:30.000Z</time>
      </trkpt>
      <trkpt lat="47.72297" lon="2.03106">
        <ele>145</ele>
        <time>2018-01-21T09:15:31.000Z</time>
      </trkpt>
      <trkpt lat="47.72249" lon="2.03106">
        <ele>146</ele>
        <time>2018-01-21T09:15:42.000Z</time>
      </trkpt>
      <trkpt lat="47.72244" lon="2.03106">
        <ele>146</ele>
        <time>2018-01-21T09:15:43.000Z</time>
      </trkpt>
      <trkpt lat="47.72197" lon="2.03106">
        <ele>145</ele>
        <time>2018-01-21T09:15:53.000Z</time>
      </trkpt>
      <trkpt lat="47.72192" lon="2.03107">
        <ele>145</ele>
        <time>2018-01-21T09:15:54.000Z</time>
      </trkpt>
      <trkpt lat="47.72147" lon="2.03107">
        <ele>146</ele>
        <time>2018-01-21T09:16:04.000Z</time>
      </trkpt>
      <trkpt lat="47.72142" lon="2.03107">
        <ele>146</ele>
        <time>2018-01-21T09:16:05.000Z</time>
      </trkpt>
      <trkpt lat="47.72094" lon="2.0311">
        <ele>146</ele>
        <time>2018-01-21T09:16:15.000Z</time>
      </trkpt>
      <trkpt lat="47.7209" lon="2.03112">
        <ele>146</ele>
        <time>2018-01-21T09:16:16.000Z</time>
      </trkpt>
      <trkpt lat="47.72084" lon="2.03122">
        <ele>146</ele>
        <time>2018-01-21T09:16:18.000Z</time>
      </trkpt>
      <trkpt lat="47.72081" lon="2.03135">
        <ele>145</ele>
        <time>2018-01-21T09:16:20.000Z</time>
      </trkpt>
      <trkpt lat="47.72075" lon="2.03205">
        <ele>142</ele>
        <time>2018-01-21T09:16:29.000Z</time>
      </trkpt>
      <trkpt lat="47.72075" lon="2.03214">
        <ele>142</ele>
        <time>2018-01-21T09:16:30.000Z</time>
      </trkpt>
      <trkpt lat="47.7207" lon="2.03282">
        <ele>139</ele>
        <time>2018-01-21T09:16:38.000Z</time>
      </trkpt>
      <trkpt lat="47.7207" lon="2.03291">
        <ele>138</ele>
        <time>2018-01-21T09:16:39.000Z</time>
      </trkpt>
      <trkpt lat="47.72067" lon="2.03362">
        <ele>136</ele>
        <time>2018-01-21T09:16:47.000Z</time>
      </trkpt>
      <trkpt lat="47.72067" lon="2.03371">
        <ele>136</ele>
        <time>2018-01-21T09:16:48.000Z</time>
      </trkpt>
      <trkpt lat="47.72063" lon="2.03443">
        <ele>136</ele>
        <time>2018-01-21T09:16:56.000Z</time>
      </trkpt>
      <trkpt lat="47.72063" lon="2.03452">
        <ele>136</ele>
        <time>2018-01-21T09:16:57.000Z</time>
      </trkpt>
      <trkpt lat="47.72059" lon="2.03522">
        <ele>134</ele>
        <time>2018-01-21T09:17:05.000Z</time>
      </trkpt>
      <trkpt lat="47.72058" lon="2.03531">
        <ele>134</ele>
        <time>2018-01-21T09:17:06.000Z</time>
      </trkpt>
      <trkpt lat="47.72055" lon="2.03602">
        <ele>134</ele>
        <time>2018-01-21T09:17:14.000Z</time>
      </trkpt>
      <trkpt lat="47.72055" lon="2.0361">
        <ele>134</ele>
        <time>2018-01-21T09:17:15.000Z</time>
      </trkpt>
      <trkpt lat="47.72052" lon="2.03682">
        <ele>133</ele>
        <time>2018-01-21T09:17:23.000Z</time>
      </trkpt>
      <trkpt lat="47.72052" lon="2.03691">
        <ele>133</ele>
        <time>2018-01-21T09:17:24.000Z</time>
      </trkpt>
      <trkpt lat="47.72049" lon="2.03762">
        <ele>134</ele>
        <time>2018-01-21T09:17:32.000Z</time>
      </trkpt>
      <trkpt lat="47.72049" lon="2.0377">
        <ele>134</ele>
        <time>2018-01-21T09:17:33.000Z</time>
      </trkpt>
      <trkpt lat="47.72049" lon="2.03779">
        <ele>133</ele>
        <time>2018-01-21T09:17:34.000Z</time>
      </trkpt>
      <trkpt lat="47.72054" lon="2.03811">
        <ele>133</ele>
        <time>2018-01-21T09:17:38.000Z</time>
      </trkpt>
      <trkpt lat="47.72063" lon="2.03819">
        <ele>133</ele>
        <time>2018-01-21T09:17:40.000Z</time>
      </trkpt>
      <trkpt lat="47.72078" lon="2.03823">
        <ele>133</ele>
        <time>2018-01-21T09:17:43.000Z</time>
      </trkpt>
      <trkpt lat="47.72126" lon="2.03836">
        <ele>134</ele>
        <time>2018-01-21T09:17:52.000Z</time>
      </trkpt>
      <trkpt lat="47.7213" lon="2.03838">
        <ele>134</ele>
        <time>2018-01-21T09:17:53.000Z</time>
      </trkpt>
      <trkpt lat="47.72178" lon="2.03858">
        <ele>136</ele>
        <time>2018-01-21T09:18:02.000Z</time>
      </trkpt>
      <trkpt lat="47.72183" lon="2.03861">
        <ele>136</ele>
        <time>2018-01-21T09:18:03.000Z</time>
      </trkpt>
      <trkpt lat="47.72229" lon="2.03882">
        <ele>137</ele>
        <time>2018-01-21T09:18:12.000Z</time>
      </trkpt>
      <trkpt lat="47.72235" lon="2.03885">
        <ele>137</ele>
        <time>2018-01-21T09:18:13.000Z</time>
      </trkpt>
      <trkpt lat="47.7228" lon="2.03906">
        <ele>138</ele>
        <time>2018-01-21T09:18:21.000Z</time>
      </trkpt>
      <trkpt lat="47.72286" lon="2.03909">
        <ele>138</ele>
        <time>2018-01-21T09:18:22.000Z</time>
      </trkpt>
      <trkpt lat="47.72334" lon="2.03932">
        <ele>136</ele>
        <time>2018-01-21T09:18:30.000Z</time>
      </trkpt>
      <trkpt lat="47.7234" lon="2.03934">
        <ele>136</ele>
        <time>2018-01-21T09:18:31.000Z</time>
      </trkpt>
      <trkpt lat="47.72385" lon="2.03954">
        <ele>136</ele>
        <time>2018-01-21T09:18:39.000Z</time>
      </trkpt>
      <trkpt lat="47.7239" lon="2.03956">
        <ele>136</ele>
        <time>2018-01-21T09:18:40.000Z</time>
      </trkpt>
      <trkpt lat="47.72436" lon="2.0398">
        <ele>137</ele>
        <time>2018-01-21T09:18:48.000Z</time>
      </trkpt>
      <trkpt lat="47.72441" lon="2.03985">
        <ele>138</ele>
        <time>2018-01-21T09:18:49.000Z</time>
      </trkpt>
      <trkpt lat="47.72484" lon="2.04028">
        <ele>138</ele>
        <time>2018-01-21T09:18:57.000Z</time>
      </trkpt>
      <trkpt lat="47.7249" lon="2.04032">
        <ele>138</ele>
        <time>2018-01-21T09:18:58.000Z</time>
      </trkpt>
      <trkpt lat="47.72519" lon="2.0405">
        <ele>138</ele>
        <time>2018-01-21T09:19:03.000Z</time>
      </trkpt>
      <trkpt lat="47.72567" lon="2.04074">
        <ele>136</ele>
        <time>2018-01-21T09:19:11.000Z</time>
      </trkpt>
      <trkpt lat="47.72573" lon="2.04078">
        <ele>136</ele>
        <time>2018-01-21T09:19:12.000Z</time>
      </trkpt>
      <trkpt lat="47.7262" lon="2.04107">
        <ele>134</ele>
        <time>2018-01-21T09:19:19.000Z</time>
      </trkpt>
      <trkpt lat="47.72628" lon="2.04112">
        <ele>133</ele>
        <time>2018-01-21T09:19:20.000Z</time>
      </trkpt>
      <trkpt lat="47.7267" lon="2.04139">
        <ele>130</ele>
        <time>2018-01-21T09:19:25.000Z</time>
      </trkpt>
      <trkpt lat="47.72678" lon="2.04145">
        <ele>129</ele>
        <time>2018-01-21T09:19:26.000Z</time>
      </trkpt>
      <trkpt lat="47.72721" lon="2.04172">
        <ele>126</ele>
        <time>2018-01-21T09:19:31.000Z</time>
      </trkpt>
      <trkpt lat="47.72729" lon="2.04177">
        <ele>126</ele>
        <time>2018-01-21T09:19:32.000Z</time>
      </trkpt>
      <trkpt lat="47.72775" lon="2.04201">
        <ele>124</ele>
        <time>2018-01-21T09:19:38.000Z</time>
      </trkpt>
      <trkpt lat="47.72782" lon="2.04203">
        <ele>123</ele>
        <time>2018-01-21T09:19:39.000Z</time>
      </trkpt>
      <trkpt lat="47.7283" lon="2.04224">
        <ele>120</ele>
        <time>2018-01-21T09:19:46.000Z</time>
      </trkpt>
      <trkpt lat="47.72837" lon="2.04229">
        <ele>120</ele>
        <time>2018-01-21T09:19:47.000Z</time>
      </trkpt>
      <trkpt lat="47.72881" lon="2.04257">
        <ele>119</ele>
        <time>2018-01-21T09:19:54.000Z</time>
      </trkpt>
      <trkpt lat="47.72887" lon="2.04262">
        <ele>118</ele>
        <time>2018-01-21T09:19:55.000Z</time>
      </trkpt>
      <trkpt lat="47.72934" lon="2.0429">
        <ele>119</ele>
        <time>2018-01-21T09:20:03.000Z</time>
      </trkpt>
      <trkpt lat="47.7294" lon="2.04293">
        <ele>119</ele>
        <time>2018-01-21T09:20:04.000Z</time>
      </trkpt>
      <trkpt lat="47.72981" lon="2.04307">
        <ele>122</ele>
        <time>2018-01-21T09:20:11.000Z</time>
      </trkpt>
      <trkpt lat="47.72987" lon="2.04308">
        <ele>122</ele>
        <time>2018-01-21T09:20:12.000Z</time>
      </trkpt>
      <trkpt lat="47.73033" lon="2.04309">
        <ele>124</ele>
        <time>2018-01-21T09:20:21.000Z</time>
      </trkpt>
      <trkpt lat="47.73038" lon="2.0431">
        <ele>124</ele>
        <time>2018-01-21T09:20:22.000Z</time>
      </trkpt>
      <trkpt lat="47.7308" lon="2.04316">
        <ele>123</ele>
        <time>2018-01-21T09:20:29.000Z</time>
      </trkpt>
      <trkpt lat="47.73086" lon="2.04322">
        <ele>123</ele>
        <time>2018-01-21T09:20:30.000Z</time>
      </trkpt>
      <trkpt lat="47.7309" lon="2.04329">
        <ele>123</ele>
        <time>2018-01-21T09:20:31.000Z</time>
      </trkpt>
      <trkpt lat="47.7311" lon="2.04397">
        <ele>123</ele>
        <time>2018-01-21T09:20:39.000Z</time>
      </trkpt>
      <trkpt lat="47.73113" lon="2.04405">
        <ele>123</ele>
        <time>2018-01-21T09:20:40.000Z</time>
      </trkpt>
      <trkpt lat="47.73125" lon="2.04427">
        <ele>123</ele>
        <time>2018-01-21T09:20:43.000Z</time>
      </trkpt>
      <trkpt lat="47.73146" lon="2.04445">
        <ele>123</ele>
        <time>2018-01-21T09:20:47.000Z</time>
      </trkpt>
      <trkpt lat="47.73189" lon="2.04465">
        <ele>123</ele>
        <time>2018-01-21T09:20:55.000Z</time>
      </trkpt>
      <trkpt lat="47.73195" lon="2.04468">
        <ele>123</ele>
        <time>2018-01-21T09:20:56.000Z</time>
      </trkpt>
      <trkpt lat="47.73232" lon="2.04491">
        <ele>122</ele>
        <time>2018-01-21T09:21:03.000Z</time>
      </trkpt>
      <trkpt lat="47.73237" lon="2.04496">
        <ele>122</ele>
        <time>2018-01-21T09:21:04.000Z</time>
      </trkpt>
      <trkpt lat="47.73275" lon="2.04541">
        <ele>121</ele>
        <time>2018-01-21T09:21:12.000Z</time>
      </trkpt>
      <trkpt lat="47.73279" lon="2.04546">
        <ele>120</ele>
        <time>2018-01-21T09:21:13.000Z</time>
      </trkpt>
      <trkpt lat="47.73316" lon="2.04596">
        <ele>118</ele>
        <time>2018-01-21T09:21:22.000Z</time>
      </trkpt>
      <trkpt lat="47.73321" lon="2.04601">
        <ele>118</ele>
        <time>2018-01-21T09:21:23.000Z</time>
      </trkpt>
      <trkpt lat="47.73358" lon="2.0464">
        <ele>117</ele>
        <time>2018-01-21T09:21:31.000Z</time>
      </trkpt>
      <trkpt lat="47.73363" lon="2.04644">
        <ele>117</ele>
        <time>2018-01-21T09:21:32.000Z</time>
      </trkpt>
      <trkpt lat="47.73384" lon="2.04658">
        <ele>117</ele>
        <time>2018-01-21T09:21:36.000Z</time>
      </trkpt>
      <trkpt lat="47.73431" lon="2.04675">
        <ele>117</ele>
        <time>2018-01-21T09:21:44.000Z</time>
      </trkpt>
      <trkpt lat="47.73437" lon="2.04677">
        <ele>117</ele>
        <time>2018-01-21T09:21:45.000Z</time>
      </trkpt>
      <trkpt lat="47.73486" lon="2.04694">
        <ele>116</ele>
        <time>2018-01-21T09:21:53.000Z</time>
      </trkpt>
      <trkpt lat="47.73492" lon="2.04696">
        <ele>116</ele>
        <time>2018-01-21T09:21:54.000Z</time>
      </trkpt>
      <trkpt lat="47.7354" lon="2.04713">
        <ele>115</ele>
        <time>2018-01-21T09:22:02.000Z</time>
      </trkpt>
      <trkpt lat="47.73547" lon="2.04716">
        <ele>115</ele>
        <time>2018-01-21T09:22:03.000Z</time>
      </trkpt>
      <trkpt lat="47.73593" lon="2.04749">
        <ele>116</ele>
        <time>2018-01-21T09:22:10.000Z</time>
      </trkpt>
      <trkpt lat="47.73598" lon="2.04754">
        <ele>116</ele>
        <time>2018-01-21T09:22:11.000Z</time>
      </trkpt>
      <trkpt lat="47.73645" lon="2.04788">
        <ele>116</ele>
        <time>2018-01-21T09:22:18.000Z</time>
      </trkpt>
      <trkpt lat="47.73652" lon="2.04793">
        <ele>116</ele>
        <time>2018-01-21T09:22:19.000Z</time>
      </trkpt>
      <trkpt lat="47.73693" lon="2.04821">
        <ele>117</ele>
        <time>2018-01-21T09:22:25.000Z</time>
      </trkpt>
      <trkpt lat="47.73699" lon="2.04827">
        <ele>117</ele>
        <time>2018-01-21T09:22:26.000Z</time>
      </trkpt>
      <trkpt lat="47.73742" lon="2.04867">
        <ele>117</ele>
        <time>2018-01-21T09:22:33.000Z</time>
      </trkpt>
      <trkpt lat="47.73747" lon="2.04872">
        <ele>117</ele>
        <time>2018-01-21T09:22:34.000Z</time>
      </trkpt>
      <trkpt lat="47.73789" lon="2.04908">
        <ele>118</ele>
        <time>2018-01-21T09:22:41.000Z</time>
      </trkpt>
      <trkpt lat="47.73795" lon="2.04913">
        <ele>118</ele>
        <time>2018-01-21T09:22:42.000Z</time>
      </trkpt>
      <trkpt lat="47.73836" lon="2.04946">
        <ele>118</ele>
        <time>2018-01-21T09:22:49.000Z</time>
      </trkpt>
      <trkpt lat="47.73841" lon="2.04952">
        <ele>118</ele>
        <time>2018-01-21T09:22:50.000Z</time>
      </trkpt>
      <trkpt lat="47.73876" lon="2.04995">
        <ele>117</ele>
        <time>2018-01-21T09:22:57.000Z</time>
      </trkpt>
      <trkpt lat="47.73881" lon="2.05002">
        <ele>117</ele>
        <time>2018-01-21T09:22:58.000Z</time>
      </trkpt>
      <trkpt lat="47.73918" lon="2.0505">
        <ele>116</ele>
        <time>2018-01-21T09:23:05.000Z</time>
      </trkpt>
      <trkpt lat="47.73923" lon="2.05056">
        <ele>116</ele>
        <time>2018-01-21T09:23:06.000Z</time>
      </trkpt>
      <trkpt lat="47.7396" lon="2.05097">
        <ele>114</ele>
        <time>2018-01-21T09:23:13.000Z</time>
      </trkpt>
      <trkpt lat="47.73966" lon="2.05101">
        <ele>114</ele>
        <time>2018-01-21T09:23:14.000Z</time>
      </trkpt>
      <trkpt lat="47.73991" lon="2.05114">
        <ele>113</ele>
        <time>2018-01-21T09:23:18.000Z</time>
      </trkpt>
      <trkpt lat="47.74037" lon="2.05128">
        <ele>112</ele>
        <time>2018-01-21T09:23:25.000Z</time>
      </trkpt>
      <trkpt lat="47.74044" lon="2.0513">
        <ele>112</ele>
        <time>2018-01-21T09:23:26.000Z</time>
      </trkpt>
      <trkpt lat="47.7409" lon="2.05145">
        <ele>111</ele>
        <time>2018-01-21T09:23:32.000Z</time>
      </trkpt>
      <trkpt lat="47.74098" lon="2.05147">
        <ele>111</ele>
        <time>2018-01-21T09:23:33.000Z</time>
      </trkpt>
      <trkpt lat="47.74114" lon="2.05147">
        <ele>111</ele>
        <time>2018-01-21T09:23:35.000Z</time>
      </trkpt>
      <trkpt lat="47.74165" lon="2.05153">
        <ele>110</ele>
        <time>2018-01-21T09:23:42.000Z</time>
      </trkpt>
      <trkpt lat="47.74172" lon="2.05154">
        <ele>110</ele>
        <time>2018-01-21T09:23:43.000Z</time>
      </trkpt>
      <trkpt lat="47.74192" lon="2.0516">
        <ele>110</ele>
        <time>2018-01-21T09:23:46.000Z</time>
      </trkpt>
      <trkpt lat="47.7424" lon="2.05171">
        <ele>110</ele>
        <time>2018-01-21T09:23:53.000Z</time>
      </trkpt>
      <trkpt lat="47.74248" lon="2.05173">
        <ele>110</ele>
        <time>2018-01-21T09:23:54.000Z</time>
      </trkpt>
      <trkpt lat="47.74296" lon="2.05184">
        <ele>111</ele>
        <time>2018-01-21T09:24:01.000Z</time>
      </trkpt>
      <trkpt lat="47.74302" lon="2.05186">
        <ele>111</ele>
        <time>2018-01-21T09:24:02.000Z</time>
      </trkpt>
      <trkpt lat="47.74352" lon="2.05197">
        <ele>111</ele>
        <time>2018-01-21T09:24:10.000Z</time>
      </trkpt>
      <trkpt lat="47.74358" lon="2.05199">
        <ele>111</ele>
        <time>2018-01-21T09:24:11.000Z</time>
      </trkpt>
      <trkpt lat="47.74387" lon="2.05202">
        <ele>111</ele>
        <time>2018-01-21T09:24:16.000Z</time>
      </trkpt>
      <trkpt lat="47.74432" lon="2.052">
        <ele>110</ele>
        <time>2018-01-21T09:24:24.000Z</time>
      </trkpt>
      <trkpt lat="47.74438" lon="2.052">
        <ele>110</ele>
        <time>2018-01-21T09:24:25.000Z</time>
      </trkpt>
      <trkpt lat="47.74486" lon="2.05199">
        <ele>108</ele>
        <time>2018-01-21T09:24:33.000Z</time>
      </trkpt>
      <trkpt lat="47.74492" lon="2.05199">
        <ele>108</ele>
        <time>2018-01-21T09:24:34.000Z</time>
      </trkpt>
      <trkpt lat="47.74542" lon="2.05198">
        <ele>108</ele>
        <time>2018-01-21T09:24:42.000Z</time>
      </trkpt>
      <trkpt lat="47.74548" lon="2.05197">
        <ele>108</ele>
        <time>2018-01-21T09:24:43.000Z</time>
      </trkpt>
      <trkpt lat="47.74593" lon="2.05202">
        <ele>110</ele>
        <time>2018-01-21T09:24:50.000Z</time>
      </trkpt>
      <trkpt lat="47.74599" lon="2.05204">
        <ele>110</ele>
        <time>2018-01-21T09:24:51.000Z</time>
      </trkpt>
      <trkpt lat="47.74626" lon="2.0522">
        <ele>110</ele>
        <time>2018-01-21T09:24:56.000Z</time>
      </trkpt>
      <trkpt lat="47.74671" lon="2.05248">
        <ele>112</ele>
        <time>2018-01-21T09:25:05.000Z</time>
      </trkpt>
      <trkpt lat="47.74676" lon="2.05252">
        <ele>112</ele>
        <time>2018-01-21T09:25:06.000Z</time>
      </trkpt>
      <trkpt lat="47.74719" lon="2.0528">
        <ele>115</ele>
        <time>2018-01-21T09:25:15.000Z</time>
      </trkpt>
      <trkpt lat="47.74723" lon="2.05283">
        <ele>115</ele>
        <time>2018-01-21T09:25:16.000Z</time>
      </trkpt>
      <trkpt lat="47.74766" lon="2.05311">
        <ele>117</ele>
        <time>2018-01-21T09:25:25.000Z</time>
      </trkpt>
      <trkpt lat="47.74771" lon="2.05313">
        <ele>117</ele>
        <time>2018-01-21T09:25:26.000Z</time>
      </trkpt>
      <trkpt lat="47.74813" lon="2.05337">
        <ele>119</ele>
        <time>2018-01-21T09:25:35.000Z</time>
      </trkpt>
      <trkpt lat="47.74818" lon="2.0534">
        <ele>119</ele>
        <time>2018-01-21T09:25:36.000Z</time>
      </trkpt>
      <trkpt lat="47.74863" lon="2.05366">
        <ele>121</ele>
        <time>2018-01-21T09:25:46.000Z</time>
      </trkpt>
      <trkpt lat="47.74867" lon="2.05369">
        <ele>122</ele>
        <time>2018-01-21T09:25:47.000Z</time>
      </trkpt>
      <trkpt lat="47.74898" lon="2.05383">
        <ele>122</ele>
        <time>2018-01-21T09:25:54.000Z</time>
      </trkpt>
      <trkpt lat="47.74921" lon="2.05384">
        <ele>121</ele>
        <time>2018-01-21T09:25:59.000Z</time>
      </trkpt>
      <trkpt lat="47.74944" lon="2.05373">
        <ele>119</ele>
        <time>2018-01-21T09:26:04.000Z</time>
      </trkpt>
      <trkpt lat="47.74989" lon="2.05347">
        <ele>118</ele>
        <time>2018-01-21T09:26:15.000Z</time>
      </trkpt>
      <trkpt lat="47.74993" lon="2.05345">
        <ele>118</ele>
        <time>2018-01-21T09:26:16.000Z</time>
      </trkpt>
      <trkpt lat="47.75037" lon="2.05316">
        <ele>119</ele>
        <time>2018-01-21T09:26:27.000Z</time>
      </trkpt>
      <trkpt lat="47.75041" lon="2.05313">
        <ele>119</ele>
        <time>2018-01-21T09:26:28.000Z</time>
      </trkpt>
      <trkpt lat="47.7507" lon="2.053">
        <ele>119</ele>
        <time>2018-01-21T09:26:34.000Z</time>
      </trkpt>
      <trkpt lat="47.751" lon="2.053">
        <ele>119</ele>
        <time>2018-01-21T09:26:40.000Z</time>
      </trkpt>
      <trkpt lat="47.75132" lon="2.05313">
        <ele>121</ele>
        <time>2018-01-21T09:26:47.000Z</time>
      </trkpt>
      <trkpt lat="47.75179" lon="2.05335">
        <ele>122</ele>
        <time>2018-01-21T09:26:57.000Z</time>
      </trkpt>
      <trkpt lat="47.75183" lon="2.05337">
        <ele>122</ele>
        <time>2018-01-21T09:26:58.000Z</time>
      </trkpt>
      <trkpt lat="47.7523" lon="2.05359">
        <ele>123</ele>
        <time>2018-01-21T09:27:08.000Z</time>
      </trkpt>
      <trkpt lat="47.75235" lon="2.0536">
        <ele>123</ele>
        <time>2018-01-21T09:27:09.000Z</time>
      </trkpt>
      <trkpt lat="47.75282" lon="2.05382">
        <ele>123</ele>
        <time>2018-01-21T09:27:19.000Z</time>
      </trkpt>
      <trkpt lat="47.75288" lon="2.05385">
        <ele>122</ele>
        <time>2018-01-21T09:27:20.000Z</time>
      </trkpt>
      <trkpt lat="47.7533" lon="2.05409">
        <ele>121</ele>
        <time>2018-01-21T09:27:29.000Z</time>
      </trkpt>
      <trkpt lat="47.75335" lon="2.05412">
        <ele>121</ele>
        <time>2018-01-21T09:27:30.000Z</time>
      </trkpt>
      <trkpt lat="47.75349" lon="2.05415">
        <ele>121</ele>
        <time>2018-01-21T09:27:33.000Z</time>
      </trkpt>
      <trkpt lat="47.75356" lon="2.05408">
        <ele>120</ele>
        <time>2018-01-21T09:27:35.000Z</time>
      </trkpt>
      <trkpt lat="47.75359" lon="2.0539">
        <ele>120</ele>
        <time>2018-01-21T09:27:38.000Z</time>
      </trkpt>
      <trkpt lat="47.75343" lon="2.05324">
        <ele>121</ele>
        <time>2018-01-21T09:27:48.000Z</time>
      </trkpt>
      <trkpt lat="47.75341" lon="2.05317">
        <ele>122</ele>
        <time>2018-01-21T09:27:49.000Z</time>
      </trkpt>
      <trkpt lat="47.75327" lon="2.05252">
        <ele>127</ele>
        <time>2018-01-21T09:27:59.000Z</time>
      </trkpt>
      <trkpt lat="47.75325" lon="2.05244">
        <ele>127</ele>
        <time>2018-01-21T09:28:00.000Z</time>
      </trkpt>
      <trkpt lat="47.75314" lon="2.05178">
        <ele>132</ele>
        <time>2018-01-21T09:28:10.000Z</time>
      </trkpt>
      <trkpt lat="47.75313" lon="2.05171">
        <ele>132</ele>
        <time>2018-01-21T09:28:11.000Z</time>
      </trkpt>
      <trkpt lat="47.75306" lon="2.051">
        <ele>133</ele>
        <time>2018-01-21T09:28:21.000Z</time>
      </trkpt>
      <trkpt lat="47.75305" lon="2.05093">
        <ele>133</ele>
        <time>2018-01-21T09:28:22.000Z</time>
      </trkpt>
      <trkpt lat="47.75299" lon="2.05021">
        <ele>132</ele>
        <time>2018-01-21T09:28:33.000Z</time>
      </trkpt>
      <trkpt lat="47.75299" lon="2.05014">
        <ele>132</ele>
        <time>2018-01-21T09:28:34.000Z</time>
      </trkpt>
      <trkpt lat="47.75291" lon="2.04943">
        <ele>134</ele>
        <time>2018-01-21T09:28:44.000Z</time>
      </trkpt>
      <trkpt lat="47.7529" lon="2.04936">
        <ele>135</ele>
        <time>2018-01-21T09:28:45.000Z</time>
      </trkpt>
      <trkpt lat="47.75285" lon="2.04906">
        <ele>136</ele>
        <time>2018-01-21T09:28:49.000Z</time>
      </trkpt>
      <trkpt lat="47.75267" lon="2.04837">
        <ele>138</ele>
        <time>2018-01-21T09:28:57.000Z</time>
      </trkpt>
      <trkpt lat="47.75264" lon="2.04829">
        <ele>138</ele>
        <time>2018-01-21T09:28:58.000Z</time>
      </trkpt>
      <trkpt lat="47.75246" lon="2.0477">
        <ele>137</ele>
        <time>2018-01-21T09:29:05.000Z</time>
      </trkpt>
      <trkpt lat="47.75244" lon="2.04763">
        <ele>137</ele>
        <time>2018-01-21T09:29:06.000Z</time>
      </trkpt>
      <trkpt lat="47.75224" lon="2.04694">
        <ele>133</ele>
        <time>2018-01-21T09:29:15.000Z</time>
      </trkpt>
      <trkpt lat="47.75221" lon="2.04686">
        <ele>133</ele>
        <time>2018-01-21T09:29:16.000Z</time>
      </trkpt>
      <trkpt lat="47.752" lon="2.04623">
        <ele>132</ele>
        <time>2018-01-21T09:29:24.000Z</time>
      </trkpt>
      <trkpt lat="47.75197" lon="2.04615">
        <ele>132</ele>
        <time>2018-01-21T09:29:25.000Z</time>
      </trkpt>
      <trkpt lat="47.75177" lon="2.04553">
        <ele>134</ele>
        <time>2018-01-21T09:29:33.000Z</time>
      </trkpt>
      <trkpt lat="47.75174" lon="2.04546">
        <ele>134</ele>
        <time>2018-01-21T09:29:34.000Z</time>
      </trkpt>
      <trkpt lat="47.75153" lon="2.04477">
        <ele>133</ele>
        <time>2018-01-21T09:29:43.000Z</time>
      </trkpt>
      <trkpt lat="47.75151" lon="2.04469">
        <ele>133</ele>
        <time>2018-01-21T09:29:44.000Z</time>
      </trkpt>
      <trkpt lat="47.75132" lon="2.044">
        <ele>131</ele>
        <time>2018-01-21T09:29:53.000Z</time>
      </trkpt>
      <trkpt lat="47.7513" lon="2.04393">
        <ele>131</ele>
        <time>2018-01-21T09:29:54.000Z</time>
      </trkpt>
      <trkpt lat="47.75108" lon="2.04326">
        <ele>132</ele>
        <time>2018-01-21T09:30:03.000Z</time>
      </trkpt>
      <trkpt lat="47.75105" lon="2.04318">
        <ele>132</ele>
        <time>2018-01-21T09:30:04.000Z</time>
      </trkpt>
      <trkpt lat="47.75083" lon="2.04256">
        <ele>132</ele>
        <time>2018-01-21T09:30:12.000Z</time>
      </trkpt>
      <trkpt lat="47.7508" lon="2.04248">
        <ele>131</ele>
        <time>2018-01-21T09:30:13.000Z</time>
      </trkpt>
      <trkpt lat="47.75058" lon="2.04182">
        <ele>132</ele>
        <time>2018-01-21T09:30:22.000Z</time>
      </trkpt>
      <trkpt lat="47.75055" lon="2.04174">
        <ele>132</ele>
        <time>2018-01-21T09:30:23.000Z</time>
      </trkpt>
      <trkpt lat="47.75033" lon="2.04112">
        <ele>136</ele>
        <time>2018-01-21T09:30:31.000Z</time>
      </trkpt>
      <trkpt lat="47.7503" lon="2.04104">
        <ele>137</ele>
        <time>2018-01-21T09:30:32.000Z</time>
      </trkpt>
      <trkpt lat="47.75006" lon="2.04046">
        <ele>140</ele>
        <time>2018-01-21T09:30:39.000Z</time>
      </trkpt>
      <trkpt lat="47.75005" lon="2.04037">
        <ele>141</ele>
        <time>2018-01-21T09:30:40.000Z</time>
      </trkpt>
      <trkpt lat="47.75003" lon="2.04027">
        <ele>141</ele>
        <time>2018-01-21T09:30:41.000Z</time>
      </trkpt>
      <trkpt lat="47.74994" lon="2.03953">
        <ele>140</ele>
        <time>2018-01-21T09:30:48.000Z</time>
      </trkpt>
      <trkpt lat="47.74992" lon="2.03942">
        <ele>140</ele>
        <time>2018-01-21T09:30:49.000Z</time>
      </trkpt>
      <trkpt lat="47.74987" lon="2.03881">
        <ele>136</ele>
        <time>2018-01-21T09:30:55.000Z</time>
      </trkpt>
      <trkpt lat="47.74988" lon="2.0387">
        <ele>135</ele>
        <time>2018-01-21T09:30:56.000Z</time>
      </trkpt>
      <trkpt lat="47.74995" lon="2.03838">
        <ele>132</ele>
        <time>2018-01-21T09:30:59.000Z</time>
      </trkpt>
      <trkpt lat="47.75013" lon="2.03766">
        <ele>126</ele>
        <time>2018-01-21T09:31:05.000Z</time>
      </trkpt>
      <trkpt lat="47.75016" lon="2.03753">
        <ele>124</ele>
        <time>2018-01-21T09:31:06.000Z</time>
      </trkpt>
      <trkpt lat="47.7503" lon="2.03684">
        <ele>119</ele>
        <time>2018-01-21T09:31:12.000Z</time>
      </trkpt>
      <trkpt lat="47.75032" lon="2.03674">
        <ele>118</ele>
        <time>2018-01-21T09:31:13.000Z</time>
      </trkpt>
      <trkpt lat="47.75047" lon="2.036">
        <ele>113</ele>
        <time>2018-01-21T09:31:20.000Z</time>
      </trkpt>
      <trkpt lat="47.75049" lon="2.03589">
        <ele>113</ele>
        <time>2018-01-21T09:31:21.000Z</time>
      </trkpt>
      <trkpt lat="47.75062" lon="2.03524">
        <ele>109</ele>
        <time>2018-01-21T09:31:27.000Z</time>
      </trkpt>
      <trkpt lat="47.75064" lon="2.03514">
        <ele>109</ele>
        <time>2018-01-21T09:31:28.000Z</time>
      </trkpt>
      <trkpt lat="47.75079" lon="2.03444">
        <ele>107</ele>
        <time>2018-01-21T09:31:35.000Z</time>
      </trkpt>
      <trkpt lat="47.7508" lon="2.03433">
        <ele>106</ele>
        <time>2018-01-21T09:31:36.000Z</time>
      </trkpt>
      <trkpt lat="47.75091" lon="2.0336">
        <ele>106</ele>
        <time>2018-01-21T09:31:43.000Z</time>
      </trkpt>
      <trkpt lat="47.75092" lon="2.0335">
        <ele>106</ele>
        <time>2018-01-21T09:31:44.000Z</time>
      </trkpt>
      <trkpt lat="47.75102" lon="2.03283">
        <ele>107</ele>
        <time>2018-01-21T09:31:51.000Z</time>
      </trkpt>
      <trkpt lat="47.75104" lon="2.03274">
        <ele>107</ele>
        <time>2018-01-21T09:31:52.000Z</time>
      </trkpt>
      <trkpt lat="47.75108" lon="2.03245">
        <ele>107</ele>
        <time>2018-01-21T09:31:55.000Z</time>
      </trkpt>
      <trkpt lat="47.7512" lon="2.03175">
        <ele>109</ele>
        <time>2018-01-21T09:32:02.000Z</time>
      </trkpt>
      <trkpt lat="47.75122" lon="2.03166">
        <ele>109</ele>
        <time>2018-01-21T09:32:03.000Z</time>
      </trkpt>
      <trkpt lat="47.75135" lon="2.03096">
        <ele>111</ele>
        <time>2018-01-21T09:32:11.000Z</time>
      </trkpt>
      <trkpt lat="47.75136" lon="2.03087">
        <ele>111</ele>
        <time>2018-01-21T09:32:12.000Z</time>
      </trkpt>
      <trkpt lat="47.75139" lon="2.03052">
        <ele>112</ele>
        <time>2018-01-21T09:32:16.000Z</time>
      </trkpt>
      <trkpt lat="47.75136" lon="2.02979">
        <ele>114</ele>
        <time>2018-01-21T09:32:24.000Z</time>
      </trkpt>
      <trkpt lat="47.75135" lon="2.0297">
        <ele>114</ele>
        <time>2018-01-21T09:32:25.000Z</time>
      </trkpt>
      <trkpt lat="47.75131" lon="2.02934">
        <ele>116</ele>
        <time>2018-01-21T09:32:29.000Z</time>
      </trkpt>
      <trkpt lat="47.75127" lon="2.02908">
        <ele>117</ele>
        <time>2018-01-21T09:32:32.000Z</time>
      </trkpt>
      <trkpt lat="47.75121" lon="2.02835">
        <ele>120</ele>
        <time>2018-01-21T09:32:40.000Z</time>
      </trkpt>
      <trkpt lat="47.7512" lon="2.02826">
        <ele>120</ele>
        <time>2018-01-21T09:32:41.000Z</time>
      </trkpt>
      <trkpt lat="47.75114" lon="2.02756">
        <ele>120</ele>
        <time>2018-01-21T09:32:49.000Z</time>
      </trkpt>
      <trkpt lat="47.75114" lon="2.02747">
        <ele>120</ele>
        <time>2018-01-21T09:32:50.000Z</time>
      </trkpt>
      <trkpt lat="47.7511" lon="2.02673">
        <ele>120</ele>
        <time>2018-01-21T09:32:59.000Z</time>
      </trkpt>
      <trkpt lat="47.75109" lon="2.02665">
        <ele>120</ele>
        <time>2018-01-21T09:33:00.000Z</time>
      </trkpt>
      <trkpt lat="47.75106" lon="2.0259">
        <ele>120</ele>
        <time>2018-01-21T09:33:09.000Z</time>
      </trkpt>
      <trkpt lat="47.75106" lon="2.02581">
        <ele>119</ele>
        <time>2018-01-21T09:33:10.000Z</time>
      </trkpt>
      <trkpt lat="47.75103" lon="2.02511">
        <ele>117</ele>
        <time>2018-01-21T09:33:18.000Z</time>
      </trkpt>
      <trkpt lat="47.75103" lon="2.02502">
        <ele>117</ele>
        <time>2018-01-21T09:33:19.000Z</time>
      </trkpt>
      <trkpt lat="47.75105" lon="2.02467">
        <ele>116</ele>
        <time>2018-01-21T09:33:23.000Z</time>
      </trkpt>
      <trkpt lat="47.75112" lon="2.02424">
        <ele>116</ele>
        <time>2018-01-21T09:33:28.000Z</time>
      </trkpt>
      <trkpt lat="47.75128" lon="2.02396">
        <ele>116</ele>
        <time>2018-01-21T09:33:32.000Z</time>
      </trkpt>
      <trkpt lat="47.75164" lon="2.02353">
        <ele>115</ele>
        <time>2018-01-21T09:33:40.000Z</time>
      </trkpt>
      <trkpt lat="47.75168" lon="2.02347">
        <ele>115</ele>
        <time>2018-01-21T09:33:41.000Z</time>
      </trkpt>
      <trkpt lat="47.75204" lon="2.02306">
        <ele>116</ele>
        <time>2018-01-21T09:33:49.000Z</time>
      </trkpt>
      <trkpt lat="47.75209" lon="2.02301">
        <ele>116</ele>
        <time>2018-01-21T09:33:50.000Z</time>
      </trkpt>
      <trkpt lat="47.75246" lon="2.02258">
        <ele>116</ele>
        <time>2018-01-21T09:33:59.000Z</time>
      </trkpt>
      <trkpt lat="47.75249" lon="2.02253">
        <ele>116</ele>
        <time>2018-01-21T09:34:00.000Z</time>
      </trkpt>
      <trkpt lat="47.75273" lon="2.02214">
        <ele>118</ele>
        <time>2018-01-21T09:34:07.000Z</time>
      </trkpt>
      <trkpt lat="47.75282" lon="2.02181">
        <ele>119</ele>
        <time>2018-01-21T09:34:12.000Z</time>
      </trkpt>
      <trkpt lat="47.75292" lon="2.02109">
        <ele>119</ele>
        <time>2018-01-21T09:34:22.000Z</time>
      </trkpt>
      <trkpt lat="47.75293" lon="2.021">
        <ele>119</ele>
        <time>2018-01-21T09:34:23.000Z</time>
      </trkpt>
      <trkpt lat="47.75302" lon="2.02028">
        <ele>118</ele>
        <time>2018-01-21T09:34:31.000Z</time>
      </trkpt>
      <trkpt lat="47.75303" lon="2.02019">
        <ele>118</ele>
        <time>2018-01-21T09:34:32.000Z</time>
      </trkpt>
      <trkpt lat="47.75312" lon="2.01947">
        <ele>117</ele>
        <time>2018-01-21T09:34:41.000Z</time>
      </trkpt>
      <trkpt lat="47.75314" lon="2.01939">
        <ele>117</ele>
        <time>2018-01-21T09:34:42.000Z</time>
      </trkpt>
      <trkpt lat="47.7532" lon="2.01884">
        <ele>118</ele>
        <time>2018-01-21T09:34:49.000Z</time>
      </trkpt>
      <trkpt lat="47.75325" lon="2.01816">
        <ele>121</ele>
        <time>2018-01-21T09:34:57.000Z</time>
      </trkpt>
      <trkpt lat="47.75325" lon="2.01807">
        <ele>121</ele>
        <time>2018-01-21T09:34:58.000Z</time>
      </trkpt>
      <trkpt lat="47.75325" lon="2.0177">
        <ele>122</ele>
        <time>2018-01-21T09:35:02.000Z</time>
      </trkpt>
      <trkpt lat="47.7532" lon="2.01738">
        <ele>122</ele>
        <time>2018-01-21T09:35:06.000Z</time>
      </trkpt>
      <trkpt lat="47.75303" lon="2.01675">
        <ele>124</ele>
        <time>2018-01-21T09:35:15.000Z</time>
      </trkpt>
      <trkpt lat="47.753" lon="2.01667">
        <ele>124</ele>
        <time>2018-01-21T09:35:16.000Z</time>
      </trkpt>
      <trkpt lat="47.75285" lon="2.01599">
        <ele>124</ele>
        <time>2018-01-21T09:35:24.000Z</time>
      </trkpt>
      <trkpt lat="47.75283" lon="2.01589">
        <ele>124</ele>
        <time>2018-01-21T09:35:25.000Z</time>
      </trkpt>
      <trkpt lat="47.75272" lon="2.01519">
        <ele>125</ele>
        <time>2018-01-21T09:35:32.000Z</time>
      </trkpt>
      <trkpt lat="47.7527" lon="2.01509">
        <ele>125</ele>
        <time>2018-01-21T09:35:33.000Z</time>
      </trkpt>
      <trkpt lat="47.75261" lon="2.01439">
        <ele>125</ele>
        <time>2018-01-21T09:35:40.000Z</time>
      </trkpt>
      <trkpt lat="47.75261" lon="2.01429">
        <ele>125</ele>
        <time>2018-01-21T09:35:41.000Z</time>
      </trkpt>
      <trkpt lat="47.75261" lon="2.01418">
        <ele>125</ele>
        <time>2018-01-21T09:35:42.000Z</time>
      </trkpt>
      <trkpt lat="47.75264" lon="2.01344">
        <ele>123</ele>
        <time>2018-01-21T09:35:49.000Z</time>
      </trkpt>
      <trkpt lat="47.75265" lon="2.01333">
        <ele>123</ele>
        <time>2018-01-21T09:35:50.000Z</time>
      </trkpt>
      <trkpt lat="47.75264" lon="2.01258">
        <ele>121</ele>
        <time>2018-01-21T09:35:57.000Z</time>
      </trkpt>
      <trkpt lat="47.75262" lon="2.01248">
        <ele>121</ele>
        <time>2018-01-21T09:35:58.000Z</time>
      </trkpt>
      <trkpt lat="47.75246" lon="2.01174">
        <ele>123</ele>
        <time>2018-01-21T09:36:05.000Z</time>
      </trkpt>
      <trkpt lat="47.75243" lon="2.01164">
        <ele>123</ele>
        <time>2018-01-21T09:36:06.000Z</time>
      </trkpt>
      <trkpt lat="47.75226" lon="2.01093">
        <ele>124</ele>
        <time>2018-01-21T09:36:13.000Z</time>
      </trkpt>
      <trkpt lat="47.75224" lon="2.01083">
        <ele>124</ele>
        <time>2018-01-21T09:36:14.000Z</time>
      </trkpt>
      <trkpt lat="47.75209" lon="2.01015">
        <ele>124</ele>
        <time>2018-01-21T09:36:21.000Z</time>
      </trkpt>
      <trkpt lat="47.75208" lon="2.01006">
        <ele>124</ele>
        <time>2018-01-21T09:36:22.000Z</time>
      </trkpt>
      <trkpt lat="47.75197" lon="2.00946">
        <ele>122</ele>
        <time>2018-01-21T09:36:30.000Z</time>
      </trkpt>
      <trkpt lat="47.752" lon="2.00927">
        <ele>121</ele>
        <time>2018-01-21T09:36:35.000Z</time>
      </trkpt>
      <trkpt lat="47.75198" lon="2.00929">
        <ele>130</ele>
        <time>2018-01-21T09:36:51.000Z</time>
      </trkpt>
      <trkpt lat="47.75195" lon="2.00941">
        <ele>144</ele>
        <time>2018-01-21T09:37:59.000Z</time>
      </trkpt>
      <trkpt lat="47.75198" lon="2.00933">
        <ele>146</ele>
        <time>2018-01-21T09:39:16.000Z</time>
      </trkpt>
      <trkpt lat="47.75206" lon="2.00916">
        <ele>141</ele>
        <time>2018-01-21T09:39:22.000Z</time>
      </trkpt>
      <trkpt lat="47.75235" lon="2.0088">
        <ele>131</ele>
        <time>2018-01-21T09:39:30.000Z</time>
      </trkpt>
      <trkpt lat="47.75271" lon="2.00834">
        <ele>123</ele>
        <time>2018-01-21T09:39:38.000Z</time>
      </trkpt>
      <trkpt lat="47.75276" lon="2.00827">
        <ele>123</ele>
        <time>2018-01-21T09:39:39.000Z</time>
      </trkpt>
      <trkpt lat="47.75289" lon="2.00804">
        <ele>121</ele>
        <time>2018-01-21T09:39:42.000Z</time>
      </trkpt>
      <trkpt lat="47.75317" lon="2.00747">
        <ele>117</ele>
        <time>2018-01-21T09:39:49.000Z</time>
      </trkpt>
      <trkpt lat="47.75321" lon="2.00739">
        <ele>116</ele>
        <time>2018-01-21T09:39:50.000Z</time>
      </trkpt>
      <trkpt lat="47.7535" lon="2.00679">
        <ele>114</ele>
        <time>2018-01-21T09:39:57.000Z</time>
      </trkpt>
      <trkpt lat="47.75354" lon="2.0067">
        <ele>114</ele>
        <time>2018-01-21T09:39:58.000Z</time>
      </trkpt>
      <trkpt lat="47.75377" lon="2.00614">
        <ele>112</ele>
        <time>2018-01-21T09:40:04.000Z</time>
      </trkpt>
      <trkpt lat="47.75381" lon="2.00604">
        <ele>112</ele>
        <time>2018-01-21T09:40:05.000Z</time>
      </trkpt>
      <trkpt lat="47.75401" lon="2.00543">
        <ele>111</ele>
        <time>2018-01-21T09:40:11.000Z</time>
      </trkpt>
      <trkpt lat="47.75404" lon="2.00533">
        <ele>111</ele>
        <time>2018-01-21T09:40:12.000Z</time>
      </trkpt>
      <trkpt lat="47.75431" lon="2.00475">
        <ele>109</ele>
        <time>2018-01-21T09:40:18.000Z</time>
      </trkpt>
      <trkpt lat="47.75436" lon="2.00465">
        <ele>109</ele>
        <time>2018-01-21T09:40:19.000Z</time>
      </trkpt>
      <trkpt lat="47.75455" lon="2.00401">
        <ele>109</ele>
        <time>2018-01-21T09:40:25.000Z</time>
      </trkpt>
      <trkpt lat="47.75456" lon="2.0039">
        <ele>109</ele>
        <time>2018-01-21T09:40:26.000Z</time>
      </trkpt>
      <trkpt lat="47.75468" lon="2.00324">
        <ele>109</ele>
        <time>2018-01-21T09:40:32.000Z</time>
      </trkpt>
      <trkpt lat="47.75469" lon="2.00313">
        <ele>109</ele>
        <time>2018-01-21T09:40:33.000Z</time>
      </trkpt>
      <trkpt lat="47.75481" lon="2.00243">
        <ele>109</ele>
        <time>2018-01-21T09:40:40.000Z</time>
      </trkpt>
      <trkpt lat="47.75483" lon="2.00234">
        <ele>109</ele>
        <time>2018-01-21T09:40:41.000Z</time>
      </trkpt>
      <trkpt lat="47.75489" lon="2.00217">
        <ele>109</ele>
        <time>2018-01-21T09:40:43.000Z</time>
      </trkpt>
      <trkpt lat="47.75497" lon="2.00203">
        <ele>109</ele>
        <time>2018-01-21T09:40:45.000Z</time>
      </trkpt>
      <trkpt lat="47.75534" lon="2.00158">
        <ele>110</ele>
        <time>2018-01-21T09:40:53.000Z</time>
      </trkpt>
      <trkpt lat="47.75539" lon="2.00153">
        <ele>110</ele>
        <time>2018-01-21T09:40:54.000Z</time>
      </trkpt>
      <trkpt lat="47.75577" lon="2.0011">
        <ele>111</ele>
        <time>2018-01-21T09:41:04.000Z</time>
      </trkpt>
      <trkpt lat="47.7558" lon="2.00106">
        <ele>111</ele>
        <time>2018-01-21T09:41:05.000Z</time>
      </trkpt>
      <trkpt lat="47.75584" lon="2.00103">
        <ele>111</ele>
        <time>2018-01-21T09:41:06.000Z</time>
      </trkpt>
      <trkpt lat="47.75605" lon="2.00088">
        <ele>111</ele>
        <time>2018-01-21T09:41:11.000Z</time>
      </trkpt>
      <trkpt lat="47.7562" lon="2.00087">
        <ele>110</ele>
        <time>2018-01-21T09:41:14.000Z</time>
      </trkpt>
      <trkpt lat="47.75668" lon="2.001">
        <ele>112</ele>
        <time>2018-01-21T09:41:24.000Z</time>
      </trkpt>
      <trkpt lat="47.75673" lon="2.00099">
        <ele>112</ele>
        <time>2018-01-21T09:41:25.000Z</time>
      </trkpt>
      <trkpt lat="47.75688" lon="2.00092">
        <ele>113</ele>
        <time>2018-01-21T09:41:28.000Z</time>
      </trkpt>
      <trkpt lat="47.75728" lon="2.00049">
        <ele>112</ele>
        <time>2018-01-21T09:41:38.000Z</time>
      </trkpt>
      <trkpt lat="47.75732" lon="2.00045">
        <ele>112</ele>
        <time>2018-01-21T09:41:39.000Z</time>
      </trkpt>
      <trkpt lat="47.75751" lon="2.00021">
        <ele>111</ele>
        <time>2018-01-21T09:41:44.000Z</time>
      </trkpt>
      <trkpt lat="47.75784" lon="1.99974">
        <ele>110</ele>
        <time>2018-01-21T09:41:54.000Z</time>
      </trkpt>
      <trkpt lat="47.75787" lon="1.99969">
        <ele>109</ele>
        <time>2018-01-21T09:41:55.000Z</time>
      </trkpt>
      <trkpt lat="47.75798" lon="1.99946">
        <ele>109</ele>
        <time>2018-01-21T09:41:59.000Z</time>
      </trkpt>
      <trkpt lat="47.75822" lon="1.99887">
        <ele>109</ele>
        <time>2018-01-21T09:42:08.000Z</time>
      </trkpt>
      <trkpt lat="47.75825" lon="1.99881">
        <ele>109</ele>
        <time>2018-01-21T09:42:09.000Z</time>
      </trkpt>
      <trkpt lat="47.75849" lon="1.99818">
        <ele>110</ele>
        <time>2018-01-21T09:42:19.000Z</time>
      </trkpt>
      <trkpt lat="47.75851" lon="1.99812">
        <ele>110</ele>
        <time>2018-01-21T09:42:20.000Z</time>
      </trkpt>
      <trkpt lat="47.75871" lon="1.99751">
        <ele>111</ele>
        <time>2018-01-21T09:42:30.000Z</time>
      </trkpt>
      <trkpt lat="47.75873" lon="1.99745">
        <ele>111</ele>
        <time>2018-01-21T09:42:31.000Z</time>
      </trkpt>
      <trkpt lat="47.75878" lon="1.99726">
        <ele>112</ele>
        <time>2018-01-21T09:42:34.000Z</time>
      </trkpt>
      <trkpt lat="47.75886" lon="1.99695">
        <ele>112</ele>
        <time>2018-01-21T09:42:39.000Z</time>
      </trkpt>
      <trkpt lat="47.75913" lon="1.99639">
        <ele>113</ele>
        <time>2018-01-21T09:42:50.000Z</time>
      </trkpt>
      <trkpt lat="47.75916" lon="1.99635">
        <ele>114</ele>
        <time>2018-01-21T09:42:51.000Z</time>
      </trkpt>
      <trkpt lat="47.75945" lon="1.99581">
        <ele>115</ele>
        <time>2018-01-21T09:43:02.000Z</time>
      </trkpt>
      <trkpt lat="47.75947" lon="1.99576">
        <ele>115</ele>
        <time>2018-01-21T09:43:03.000Z</time>
      </trkpt>
      <trkpt lat="47.75976" lon="1.99522">
        <ele>116</ele>
        <time>2018-01-21T09:43:15.000Z</time>
      </trkpt>
      <trkpt lat="47.75978" lon="1.99517">
        <ele>116</ele>
        <time>2018-01-21T09:43:16.000Z</time>
      </trkpt>
      <trkpt lat="47.76006" lon="1.99459">
        <ele>118</ele>
        <time>2018-01-21T09:43:29.000Z</time>
      </trkpt>
      <trkpt lat="47.76009" lon="1.99454">
        <ele>118</ele>
        <time>2018-01-21T09:43:30.000Z</time>
      </trkpt>
      <trkpt lat="47.76023" lon="1.99433">
        <ele>118</ele>
        <time>2018-01-21T09:43:36.000Z</time>
      </trkpt>
      <trkpt lat="47.76064" lon="1.99392">
        <ele>120</ele>
        <time>2018-01-21T09:43:49.000Z</time>
      </trkpt>
      <trkpt lat="47.76067" lon="1.99389">
        <ele>120</ele>
        <time>2018-01-21T09:43:50.000Z</time>
      </trkpt>
      <trkpt lat="47.76108" lon="1.99349">
        <ele>121</ele>
        <time>2018-01-21T09:44:02.000Z</time>
      </trkpt>
      <trkpt lat="47.76111" lon="1.99347">
        <ele>121</ele>
        <time>2018-01-21T09:44:03.000Z</time>
      </trkpt>
      <trkpt lat="47.76129" lon="1.99333">
        <ele>122</ele>
        <time>2018-01-21T09:44:08.000Z</time>
      </trkpt>
      <trkpt lat="47.76171" lon="1.99304">
        <ele>124</ele>
        <time>2018-01-21T09:44:19.000Z</time>
      </trkpt>
      <trkpt lat="47.76175" lon="1.99301">
        <ele>124</ele>
        <time>2018-01-21T09:44:20.000Z</time>
      </trkpt>
      <trkpt lat="47.76217" lon="1.99273">
        <ele>124</ele>
        <time>2018-01-21T09:44:31.000Z</time>
      </trkpt>
      <trkpt lat="47.76221" lon="1.9927">
        <ele>124</ele>
        <time>2018-01-21T09:44:32.000Z</time>
      </trkpt>
      <trkpt lat="47.76239" lon="1.99259">
        <ele>124</ele>
        <time>2018-01-21T09:44:37.000Z</time>
      </trkpt>
      <trkpt lat="47.76244" lon="1.99266">
        <ele>124</ele>
        <time>2018-01-21T09:44:39.000Z</time>
      </trkpt>
      <trkpt lat="47.76254" lon="1.99336">
        <ele>124</ele>
        <time>2018-01-21T09:44:48.000Z</time>
      </trkpt>
      <trkpt lat="47.76256" lon="1.99345">
        <ele>124</ele>
        <time>2018-01-21T09:44:49.000Z</time>
      </trkpt>
      <trkpt lat="47.76269" lon="1.99409">
        <ele>124</ele>
        <time>2018-01-21T09:44:56.000Z</time>
      </trkpt>
      <trkpt lat="47.76271" lon="1.99418">
        <ele>124</ele>
        <time>2018-01-21T09:44:57.000Z</time>
      </trkpt>
      <trkpt lat="47.76288" lon="1.99484">
        <ele>123</ele>
        <time>2018-01-21T09:45:04.000Z</time>
      </trkpt>
      <trkpt lat="47.76291" lon="1.99494">
        <ele>123</ele>
        <time>2018-01-21T09:45:05.000Z</time>
      </trkpt>
      <trkpt lat="47.76309" lon="1.99562">
        <ele>123</ele>
        <time>2018-01-21T09:45:12.000Z</time>
      </trkpt>
      <trkpt lat="47.76311" lon="1.99572">
        <ele>123</ele>
        <time>2018-01-21T09:45:13.000Z</time>
      </trkpt>
      <trkpt lat="47.7633" lon="1.9964">
        <ele>123</ele>
        <time>2018-01-21T09:45:20.000Z</time>
      </trkpt>
      <trkpt lat="47.76332" lon="1.99649">
        <ele>124</ele>
        <time>2018-01-21T09:45:21.000Z</time>
      </trkpt>
      <trkpt lat="47.7635" lon="1.9972">
        <ele>125</ele>
        <time>2018-01-21T09:45:29.000Z</time>
      </trkpt>
      <trkpt lat="47.76352" lon="1.99729">
        <ele>125</ele>
        <time>2018-01-21T09:45:30.000Z</time>
      </trkpt>
      <trkpt lat="47.7637" lon="1.99797">
        <ele>126</ele>
        <time>2018-01-21T09:45:38.000Z</time>
      </trkpt>
      <trkpt lat="47.76373" lon="1.99806">
        <ele>126</ele>
        <time>2018-01-21T09:45:39.000Z</time>
      </trkpt>
      <trkpt lat="47.76389" lon="1.99874">
        <ele>126</ele>
        <time>2018-01-21T09:45:47.000Z</time>
      </trkpt>
      <trkpt lat="47.76391" lon="1.99883">
        <ele>126</ele>
        <time>2018-01-21T09:45:48.000Z</time>
      </trkpt>
      <trkpt lat="47.7641" lon="1.99938">
        <ele>126</ele>
        <time>2018-01-21T09:45:55.000Z</time>
      </trkpt>
      <trkpt lat="47.76416" lon="1.99942">
        <ele>126</ele>
        <time>2018-01-21T09:45:56.000Z</time>
      </trkpt>
      <trkpt lat="47.76426" lon="1.99945">
        <ele>126</ele>
        <time>2018-01-21T09:45:58.000Z</time>
      </trkpt>
      <trkpt lat="47.76475" lon="1.99949">
        <ele>127</ele>
        <time>2018-01-21T09:46:06.000Z</time>
      </trkpt>
      <trkpt lat="47.76481" lon="1.9995">
        <ele>127</ele>
        <time>2018-01-21T09:46:07.000Z</time>
      </trkpt>
      <trkpt lat="47.76531" lon="1.99953">
        <ele>129</ele>
        <time>2018-01-21T09:46:15.000Z</time>
      </trkpt>
      <trkpt lat="47.76537" lon="1.99954">
        <ele>129</ele>
        <time>2018-01-21T09:46:16.000Z</time>
      </trkpt>
      <trkpt lat="47.76585" lon="1.9996">
        <ele>130</ele>
        <time>2018-01-21T09:46:24.000Z</time>
      </trkpt>
      <trkpt lat="47.7659" lon="1.9996">
        <ele>130</ele>
        <time>2018-01-21T09:46:25.000Z</time>
      </trkpt>
      <trkpt lat="47.76639" lon="1.99966">
        <ele>131</ele>
        <time>2018-01-21T09:46:33.000Z</time>
      </trkpt>
      <trkpt lat="47.76646" lon="1.99966">
        <ele>131</ele>
        <time>2018-01-21T09:46:34.000Z</time>
      </trkpt>
      <trkpt lat="47.76691" lon="1.99972">
        <ele>132</ele>
        <time>2018-01-21T09:46:41.000Z</time>
      </trkpt>
      <trkpt lat="47.76698" lon="1.99973">
        <ele>132</ele>
        <time>2018-01-21T09:46:42.000Z</time>
      </trkpt>
      <trkpt lat="47.76743" lon="1.99979">
        <ele>132</ele>
        <time>2018-01-21T09:46:49.000Z</time>
      </trkpt>
      <trkpt lat="47.7675" lon="1.9998">
        <ele>132</ele>
        <time>2018-01-21T09:46:50.000Z</time>
      </trkpt>
      <trkpt lat="47.76797" lon="1.99984">
        <ele>132</ele>
        <time>2018-01-21T09:46:57.000Z</time>
      </trkpt>
      <trkpt lat="47.76804" lon="1.99984">
        <ele>132</ele>
        <time>2018-01-21T09:46:58.000Z</time>
      </trkpt>
      <trkpt lat="47.76851" lon="1.99986">
        <ele>132</ele>
        <time>2018-01-21T09:47:05.000Z</time>
      </trkpt>
      <trkpt lat="47.76857" lon="1.99986">
        <ele>133</ele>
        <time>2018-01-21T09:47:06.000Z</time>
      </trkpt>
      <trkpt lat="47.76905" lon="1.99989">
        <ele>133</ele>
        <time>2018-01-21T09:47:13.000Z</time>
      </trkpt>
      <trkpt lat="47.76912" lon="1.9999">
        <ele>133</ele>
        <time>2018-01-21T09:47:14.000Z</time>
      </trkpt>
      <trkpt lat="47.76962" lon="2">
        <ele>133</ele>
        <time>2018-01-21T09:47:21.000Z</time>
      </trkpt>
      <trkpt lat="47.76969" lon="2.00003">
        <ele>133</ele>
        <time>2018-01-21T09:47:22.000Z</time>
      </trkpt>
      <trkpt lat="47.77017" lon="2.00025">
        <ele>132</ele>
        <time>2018-01-21T09:47:29.000Z</time>
      </trkpt>
      <trkpt lat="47.77024" lon="2.00028">
        <ele>132</ele>
        <time>2018-01-21T09:47:30.000Z</time>
      </trkpt>
      <trkpt lat="47.77071" lon="2.00057">
        <ele>132</ele>
        <time>2018-01-21T09:47:37.000Z</time>
      </trkpt>
      <trkpt lat="47.77078" lon="2.00061">
        <ele>132</ele>
        <time>2018-01-21T09:47:38.000Z</time>
      </trkpt>
      <trkpt lat="47.77122" lon="2.0009">
        <ele>132</ele>
        <time>2018-01-21T09:47:45.000Z</time>
      </trkpt>
      <trkpt lat="47.77129" lon="2.00093">
        <ele>132</ele>
        <time>2018-01-21T09:47:46.000Z</time>
      </trkpt>
      <trkpt lat="47.77149" lon="2.001">
        <ele>132</ele>
        <time>2018-01-21T09:47:49.000Z</time>
      </trkpt>
      <trkpt lat="47.77199" lon="2.00107">
        <ele>132</ele>
        <time>2018-01-21T09:47:56.000Z</time>
      </trkpt>
      <trkpt lat="47.77206" lon="2.00109">
        <ele>132</ele>
        <time>2018-01-21T09:47:57.000Z</time>
      </trkpt>
      <trkpt lat="47.77255" lon="2.00129">
        <ele>132</ele>
        <time>2018-01-21T09:48:04.000Z</time>
      </trkpt>
      <trkpt lat="47.77262" lon="2.00131">
        <ele>132</ele>
        <time>2018-01-21T09:48:05.000Z</time>
      </trkpt>
      <trkpt lat="47.77275" lon="2.00137">
        <ele>132</ele>
        <time>2018-01-21T09:48:07.000Z</time>
      </trkpt>
      <trkpt lat="47.77319" lon="2.00154">
        <ele>131</ele>
        <time>2018-01-21T09:48:14.000Z</time>
      </trkpt>
      <trkpt lat="47.77326" lon="2.00157">
        <ele>131</ele>
        <time>2018-01-21T09:48:15.000Z</time>
      </trkpt>
      <trkpt lat="47.77372" lon="2.00175">
        <ele>130</ele>
        <time>2018-01-21T09:48:22.000Z</time>
      </trkpt>
      <trkpt lat="47.77378" lon="2.00177">
        <ele>130</ele>
        <time>2018-01-21T09:48:23.000Z</time>
      </trkpt>
      <trkpt lat="47.77422" lon="2.00194">
        <ele>130</ele>
        <time>2018-01-21T09:48:30.000Z</time>
      </trkpt>
      <trkpt lat="47.77428" lon="2.00196">
        <ele>129</ele>
        <time>2018-01-21T09:48:31.000Z</time>
      </trkpt>
      <trkpt lat="47.77473" lon="2.00213">
        <ele>129</ele>
        <time>2018-01-21T09:48:39.000Z</time>
      </trkpt>
      <trkpt lat="47.77478" lon="2.00215">
        <ele>129</ele>
        <time>2018-01-21T09:48:40.000Z</time>
      </trkpt>
      <trkpt lat="47.77482" lon="2.00215">
        <ele>129</ele>
        <time>2018-01-21T09:48:41.000Z</time>
      </trkpt>
      <trkpt lat="47.77488" lon="2.0021">
        <ele>129</ele>
        <time>2018-01-21T09:48:43.000Z</time>
      </trkpt>
      <trkpt lat="47.77492" lon="2.00201">
        <ele>129</ele>
        <time>2018-01-21T09:48:45.000Z</time>
      </trkpt>
      <trkpt lat="47.77489" lon="2.00128">
        <ele>128</ele>
        <time>2018-01-21T09:48:54.000Z</time>
      </trkpt>
      <trkpt lat="47.77488" lon="2.0012">
        <ele>128</ele>
        <time>2018-01-21T09:48:55.000Z</time>
      </trkpt>
      <trkpt lat="47.77486" lon="2.0005">
        <ele>128</ele>
        <time>2018-01-21T09:49:04.000Z</time>
      </trkpt>
      <trkpt lat="47.77486" lon="2.00044">
        <ele>128</ele>
        <time>2018-01-21T09:49:05.000Z</time>
      </trkpt>
      <trkpt lat="47.77483" lon="1.99976">
        <ele>129</ele>
        <time>2018-01-21T09:49:15.000Z</time>
      </trkpt>
      <trkpt lat="47.77483" lon="1.99969">
        <ele>129</ele>
        <time>2018-01-21T09:49:16.000Z</time>
      </trkpt>
      <trkpt lat="47.77479" lon="1.99899">
        <ele>129</ele>
        <time>2018-01-21T09:49:27.000Z</time>
      </trkpt>
      <trkpt lat="47.77479" lon="1.99892">
        <ele>129</ele>
        <time>2018-01-21T09:49:28.000Z</time>
      </trkpt>
      <trkpt lat="47.77476" lon="1.99822">
        <ele>129</ele>
        <time>2018-01-21T09:49:39.000Z</time>
      </trkpt>
      <trkpt lat="47.77476" lon="1.99815">
        <ele>129</ele>
        <time>2018-01-21T09:49:40.000Z</time>
      </trkpt>
      <trkpt lat="47.77475" lon="1.99747">
        <ele>129</ele>
        <time>2018-01-21T09:49:51.000Z</time>
      </trkpt>
      <trkpt lat="47.77475" lon="1.99741">
        <ele>129</ele>
        <time>2018-01-21T09:49:52.000Z</time>
      </trkpt>
      <trkpt lat="47.77476" lon="1.99671">
        <ele>129</ele>
        <time>2018-01-21T09:50:04.000Z</time>
      </trkpt>
      <trkpt lat="47.77477" lon="1.99665">
        <ele>129</ele>
        <time>2018-01-21T09:50:05.000Z</time>
      </trkpt>
      <trkpt lat="47.7748" lon="1.99647">
        <ele>129</ele>
        <time>2018-01-21T09:50:08.000Z</time>
      </trkpt>
      <trkpt lat="47.77493" lon="1.99577">
        <ele>128</ele>
        <time>2018-01-21T09:50:19.000Z</time>
      </trkpt>
      <trkpt lat="47.77494" lon="1.99572">
        <ele>128</ele>
        <time>2018-01-21T09:50:20.000Z</time>
      </trkpt>
      <trkpt lat="47.77499" lon="1.99548">
        <ele>128</ele>
        <time>2018-01-21T09:50:24.000Z</time>
      </trkpt>
      <trkpt lat="47.7751" lon="1.99501">
        <ele>128</ele>
        <time>2018-01-21T09:50:33.000Z</time>
      </trkpt>
      <trkpt lat="47.77525" lon="1.99435">
        <ele>127</ele>
        <time>2018-01-21T09:50:45.000Z</time>
      </trkpt>
      <trkpt lat="47.77526" lon="1.9943">
        <ele>127</ele>
        <time>2018-01-21T09:50:46.000Z</time>
      </trkpt>
      <trkpt lat="47.77542" lon="1.99365">
        <ele>127</ele>
        <time>2018-01-21T09:50:59.000Z</time>
      </trkpt>
      <trkpt lat="47.77543" lon="1.99361">
        <ele>127</ele>
        <time>2018-01-21T09:51:00.000Z</time>
      </trkpt>
      <trkpt lat="47.77559" lon="1.99297">
        <ele>126</ele>
        <time>2018-01-21T09:51:13.000Z</time>
      </trkpt>
      <trkpt lat="47.77561" lon="1.99292">
        <ele>126</ele>
        <time>2018-01-21T09:51:14.000Z</time>
      </trkpt>
      <trkpt lat="47.77577" lon="1.99226">
        <ele>126</ele>
        <time>2018-01-21T09:51:27.000Z</time>
      </trkpt>
      <trkpt lat="47.77577" lon="1.99221">
        <ele>126</ele>
        <time>2018-01-21T09:51:28.000Z</time>
      </trkpt>
      <trkpt lat="47.77574" lon="1.99211">
        <ele>126</ele>
        <time>2018-01-21T09:51:30.000Z</time>
      </trkpt>
      <trkpt lat="47.77562" lon="1.99144">
        <ele>126</ele>
        <time>2018-01-21T09:51:42.000Z</time>
      </trkpt>
      <trkpt lat="47.7756" lon="1.99138">
        <ele>126</ele>
        <time>2018-01-21T09:51:43.000Z</time>
      </trkpt>
      <trkpt lat="47.77546" lon="1.99071">
        <ele>126</ele>
        <time>2018-01-21T09:51:56.000Z</time>
      </trkpt>
      <trkpt lat="47.77545" lon="1.99066">
        <ele>126</ele>
        <time>2018-01-21T09:51:57.000Z</time>
      </trkpt>
      <trkpt lat="47.7753" lon="1.98999">
        <ele>126</ele>
        <time>2018-01-21T09:52:12.000Z</time>
      </trkpt>
      <trkpt lat="47.77529" lon="1.98995">
        <ele>126</ele>
        <time>2018-01-21T09:52:13.000Z</time>
      </trkpt>
      <trkpt lat="47.77515" lon="1.9893">
        <ele>126</ele>
        <time>2018-01-21T09:52:27.000Z</time>
      </trkpt>
      <trkpt lat="47.77514" lon="1.98925">
        <ele>126</ele>
        <time>2018-01-21T09:52:28.000Z</time>
      </trkpt>
      <trkpt lat="47.775" lon="1.98861">
        <ele>126</ele>
        <time>2018-01-21T09:52:41.000Z</time>
      </trkpt>
      <trkpt lat="47.77499" lon="1.98856">
        <ele>126</ele>
        <time>2018-01-21T09:52:42.000Z</time>
      </trkpt>
      <trkpt lat="47.77486" lon="1.988">
        <ele>125</ele>
        <time>2018-01-21T09:52:54.000Z</time>
      </trkpt>
      <trkpt lat="47.77472" lon="1.98741">
        <ele>124</ele>
        <time>2018-01-21T09:53:09.000Z</time>
      </trkpt>
      <trkpt lat="47.77467" lon="1.98737">
        <ele>124</ele>
        <time>2018-01-21T09:53:11.000Z</time>
      </trkpt>
      <trkpt lat="47.77421" lon="1.98732">
        <ele>124</ele>
        <time>2018-01-21T09:53:25.000Z</time>
      </trkpt>
      <trkpt lat="47.77417" lon="1.98731">
        <ele>124</ele>
        <time>2018-01-21T09:53:26.000Z</time>
      </trkpt>
      <trkpt lat="47.77371" lon="1.9873">
        <ele>125</ele>
        <time>2018-01-21T09:53:38.000Z</time>
      </trkpt>
      <trkpt lat="47.77367" lon="1.9873">
        <ele>125</ele>
        <time>2018-01-21T09:53:39.000Z</time>
      </trkpt>
      <trkpt lat="47.7733" lon="1.98725">
        <ele>125</ele>
        <time>2018-01-21T09:53:49.000Z</time>
      </trkpt>
      <trkpt lat="47.7729" lon="1.98684">
        <ele>126</ele>
        <time>2018-01-21T09:54:01.000Z</time>
      </trkpt>
      <trkpt lat="47.77288" lon="1.98681">
        <ele>126</ele>
        <time>2018-01-21T09:54:02.000Z</time>
      </trkpt>
      <trkpt lat="47.77285" lon="1.98678">
        <ele>126</ele>
        <time>2018-01-21T09:54:03.000Z</time>
      </trkpt>
      <trkpt lat="47.77285" lon="1.98668">
        <ele>126</ele>
        <time>2018-01-21T09:54:06.000Z</time>
      </trkpt>
      <trkpt lat="47.77295" lon="1.98661">
        <ele>126</ele>
        <time>2018-01-21T09:54:09.000Z</time>
      </trkpt>
      <trkpt lat="47.77339" lon="1.98637">
        <ele>125</ele>
        <time>2018-01-21T09:54:18.000Z</time>
      </trkpt>
      <trkpt lat="47.77345" lon="1.98634">
        <ele>125</ele>
        <time>2018-01-21T09:54:19.000Z</time>
      </trkpt>
      <trkpt lat="47.77392" lon="1.98609">
        <ele>125</ele>
        <time>2018-01-21T09:54:27.000Z</time>
      </trkpt>
      <trkpt lat="47.77398" lon="1.98605">
        <ele>125</ele>
        <time>2018-01-21T09:54:28.000Z</time>
      </trkpt>
      <trkpt lat="47.77441" lon="1.98583">
        <ele>126</ele>
        <time>2018-01-21T09:54:35.000Z</time>
      </trkpt>
      <trkpt lat="47.77448" lon="1.9858">
        <ele>126</ele>
        <time>2018-01-21T09:54:36.000Z</time>
      </trkpt>
      <trkpt lat="47.7749" lon="1.98556">
        <ele>126</ele>
        <time>2018-01-21T09:54:43.000Z</time>
      </trkpt>
      <trkpt lat="47.77496" lon="1.98552">
        <ele>126</ele>
        <time>2018-01-21T09:54:44.000Z</time>
      </trkpt>
      <trkpt lat="47.77538" lon="1.98521">
        <ele>126</ele>
        <time>2018-01-21T09:54:51.000Z</time>
      </trkpt>
      <trkpt lat="47.77544" lon="1.98516">
        <ele>126</ele>
        <time>2018-01-21T09:54:52.000Z</time>
      </trkpt>
      <trkpt lat="47.77588" lon="1.98478">
        <ele>126</ele>
        <time>2018-01-21T09:54:59.000Z</time>
      </trkpt>
      <trkpt lat="47.77594" lon="1.98473">
        <ele>126</ele>
        <time>2018-01-21T09:55:00.000Z</time>
      </trkpt>
      <trkpt lat="47.77636" lon="1.98434">
        <ele>126</ele>
        <time>2018-01-21T09:55:07.000Z</time>
      </trkpt>
      <trkpt lat="47.77642" lon="1.98428">
        <ele>126</ele>
        <time>2018-01-21T09:55:08.000Z</time>
      </trkpt>
      <trkpt lat="47.77684" lon="1.98394">
        <ele>126</ele>
        <time>2018-01-21T09:55:15.000Z</time>
      </trkpt>
      <trkpt lat="47.7769" lon="1.98389">
        <ele>126</ele>
        <time>2018-01-21T09:55:16.000Z</time>
      </trkpt>
      <trkpt lat="47.77732" lon="1.98362">
        <ele>126</ele>
        <time>2018-01-21T09:55:23.000Z</time>
      </trkpt>
      <trkpt lat="47.77739" lon="1.98358">
        <ele>126</ele>
        <time>2018-01-21T09:55:24.000Z</time>
      </trkpt>
      <trkpt lat="47.77782" lon="1.98332">
        <ele>126</ele>
        <time>2018-01-21T09:55:31.000Z</time>
      </trkpt>
      <trkpt lat="47.77789" lon="1.98328">
        <ele>126</ele>
        <time>2018-01-21T09:55:32.000Z</time>
      </trkpt>
      <trkpt lat="47.7783" lon="1.983">
        <ele>127</ele>
        <time>2018-01-21T09:55:39.000Z</time>
      </trkpt>
      <trkpt lat="47.77836" lon="1.98295">
        <ele>128</ele>
        <time>2018-01-21T09:55:40.000Z</time>
      </trkpt>
      <trkpt lat="47.77876" lon="1.98262">
        <ele>129</ele>
        <time>2018-01-21T09:55:47.000Z</time>
      </trkpt>
      <trkpt lat="47.77882" lon="1.98257">
        <ele>129</ele>
        <time>2018-01-21T09:55:48.000Z</time>
      </trkpt>
      <trkpt lat="47.77922" lon="1.98223">
        <ele>130</ele>
        <time>2018-01-21T09:55:55.000Z</time>
      </trkpt>
      <trkpt lat="47.77927" lon="1.98219">
        <ele>130</ele>
        <time>2018-01-21T09:55:56.000Z</time>
      </trkpt>
      <trkpt lat="47.77967" lon="1.98184">
        <ele>129</ele>
        <time>2018-01-21T09:56:03.000Z</time>
      </trkpt>
      <trkpt lat="47.77973" lon="1.98179">
        <ele>129</ele>
        <time>2018-01-21T09:56:04.000Z</time>
      </trkpt>
      <trkpt lat="47.78014" lon="1.98143">
        <ele>128</ele>
        <time>2018-01-21T09:56:11.000Z</time>
      </trkpt>
      <trkpt lat="47.7802" lon="1.98138">
        <ele>127</ele>
        <time>2018-01-21T09:56:12.000Z</time>
      </trkpt>
      <trkpt lat="47.78064" lon="1.98102">
        <ele>126</ele>
        <time>2018-01-21T09:56:19.000Z</time>
      </trkpt>
      <trkpt lat="47.7807" lon="1.98097">
        <ele>126</ele>
        <time>2018-01-21T09:56:20.000Z</time>
      </trkpt>
      <trkpt lat="47.78112" lon="1.98061">
        <ele>125</ele>
        <time>2018-01-21T09:56:27.000Z</time>
      </trkpt>
      <trkpt lat="47.78118" lon="1.98056">
        <ele>125</ele>
        <time>2018-01-21T09:56:28.000Z</time>
      </trkpt>
      <trkpt lat="47.78157" lon="1.98022">
        <ele>124</ele>
        <time>2018-01-21T09:56:35.000Z</time>
      </trkpt>
      <trkpt lat="47.78163" lon="1.98017">
        <ele>124</ele>
        <time>2018-01-21T09:56:36.000Z</time>
      </trkpt>
      <trkpt lat="47.78172" lon="1.98009">
        <ele>123</ele>
        <time>2018-01-21T09:56:38.000Z</time>
      </trkpt>
      <trkpt lat="47.7818" lon="1.97993">
        <ele>122</ele>
        <time>2018-01-21T09:56:41.000Z</time>
      </trkpt>
      <trkpt lat="47.78167" lon="1.97948">
        <ele>120</ele>
        <time>2018-01-21T09:56:48.000Z</time>
      </trkpt>
      <trkpt lat="47.78151" lon="1.97906">
        <ele>120</ele>
        <time>2018-01-21T09:56:54.000Z</time>
      </trkpt>
      <trkpt lat="47.78126" lon="1.97849">
        <ele>120</ele>
        <time>2018-01-21T09:57:03.000Z</time>
      </trkpt>
      <trkpt lat="47.78124" lon="1.97842">
        <ele>120</ele>
        <time>2018-01-21T09:57:04.000Z</time>
      </trkpt>
      <trkpt lat="47.78103" lon="1.9778">
        <ele>119</ele>
        <time>2018-01-21T09:57:13.000Z</time>
      </trkpt>
      <trkpt lat="47.78101" lon="1.97773">
        <ele>119</ele>
        <time>2018-01-21T09:57:14.000Z</time>
      </trkpt>
      <trkpt lat="47.78082" lon="1.97708">
        <ele>119</ele>
        <time>2018-01-21T09:57:23.000Z</time>
      </trkpt>
      <trkpt lat="47.7808" lon="1.97701">
        <ele>119</ele>
        <time>2018-01-21T09:57:24.000Z</time>
      </trkpt>
      <trkpt lat="47.78062" lon="1.97636">
        <ele>123</ele>
        <time>2018-01-21T09:57:33.000Z</time>
      </trkpt>
      <trkpt lat="47.78059" lon="1.97629">
        <ele>124</ele>
        <time>2018-01-21T09:57:34.000Z</time>
      </trkpt>
      <trkpt lat="47.78039" lon="1.97583">
        <ele>127</ele>
        <time>2018-01-21T09:57:41.000Z</time>
      </trkpt>
      <trkpt lat="47.78019" lon="1.97547">
        <ele>130</ele>
        <time>2018-01-21T09:57:47.000Z</time>
      </trkpt>
      <trkpt lat="47.77991" lon="1.97492">
        <ele>134</ele>
        <time>2018-01-21T09:57:56.000Z</time>
      </trkpt>
      <trkpt lat="47.77988" lon="1.97486">
        <ele>134</ele>
        <time>2018-01-21T09:57:57.000Z</time>
      </trkpt>
      <trkpt lat="47.77963" lon="1.97422">
        <ele>133</ele>
        <time>2018-01-21T09:58:07.000Z</time>
      </trkpt>
      <trkpt lat="47.7796" lon="1.97416">
        <ele>133</ele>
        <time>2018-01-21T09:58:08.000Z</time>
      </trkpt>
      <trkpt lat="47.77932" lon="1.97356">
        <ele>133</ele>
        <time>2018-01-21T09:58:18.000Z</time>
      </trkpt>
      <trkpt lat="47.77929" lon="1.97351">
        <ele>133</ele>
        <time>2018-01-21T09:58:19.000Z</time>
      </trkpt>
      <trkpt lat="47.77905" lon="1.97288">
        <ele>132</ele>
        <time>2018-01-21T09:58:29.000Z</time>
      </trkpt>
      <trkpt lat="47.77902" lon="1.97281">
        <ele>131</ele>
        <time>2018-01-21T09:58:30.000Z</time>
      </trkpt>
      <trkpt lat="47.77898" lon="1.97268">
        <ele>131</ele>
        <time>2018-01-21T09:58:32.000Z</time>
      </trkpt>
      <trkpt lat="47.77879" lon="1.97207">
        <ele>130</ele>
        <time>2018-01-21T09:58:41.000Z</time>
      </trkpt>
      <trkpt lat="47.77877" lon="1.972">
        <ele>130</ele>
        <time>2018-01-21T09:58:42.000Z</time>
      </trkpt>
      <trkpt lat="47.77863" lon="1.97144">
        <ele>129</ele>
        <time>2018-01-21T09:58:50.000Z</time>
      </trkpt>
      <trkpt lat="47.77854" lon="1.97094">
        <ele>129</ele>
        <time>2018-01-21T09:58:57.000Z</time>
      </trkpt>
      <trkpt lat="47.77844" lon="1.97027">
        <ele>129</ele>
        <time>2018-01-21T09:59:06.000Z</time>
      </trkpt>
      <trkpt lat="47.77843" lon="1.97019">
        <ele>129</ele>
        <time>2018-01-21T09:59:07.000Z</time>
      </trkpt>
      <trkpt lat="47.77834" lon="1.96952">
        <ele>128</ele>
        <time>2018-01-21T09:59:16.000Z</time>
      </trkpt>
      <trkpt lat="47.77833" lon="1.96945">
        <ele>128</ele>
        <time>2018-01-21T09:59:17.000Z</time>
      </trkpt>
      <trkpt lat="47.77823" lon="1.96876">
        <ele>128</ele>
        <time>2018-01-21T09:59:27.000Z</time>
      </trkpt>
      <trkpt lat="47.77822" lon="1.96869">
        <ele>128</ele>
        <time>2018-01-21T09:59:28.000Z</time>
      </trkpt>
      <trkpt lat="47.77814" lon="1.96833">
        <ele>127</ele>
        <time>2018-01-21T09:59:35.000Z</time>
      </trkpt>
      <trkpt lat="47.778" lon="1.96821">
        <ele>127</ele>
        <time>2018-01-21T09:59:41.000Z</time>
      </trkpt>
      <trkpt lat="47.77785" lon="1.96817">
        <ele>126</ele>
        <time>2018-01-21T09:59:51.000Z</time>
      </trkpt>
      <trkpt lat="47.77791" lon="1.96819">
        <ele>126</ele>
        <time>2018-01-21T09:59:56.000Z</time>
      </trkpt>
      <trkpt lat="47.77812" lon="1.9683">
        <ele>125</ele>
        <time>2018-01-21T10:00:04.000Z</time>
      </trkpt>
      <trkpt lat="47.77819" lon="1.96843">
        <ele>125</ele>
        <time>2018-01-21T10:00:07.000Z</time>
      </trkpt>
      <trkpt lat="47.77829" lon="1.96899">
        <ele>124</ele>
        <time>2018-01-21T10:00:17.000Z</time>
      </trkpt>
      <trkpt lat="47.77839" lon="1.96967">
        <ele>124</ele>
        <time>2018-01-21T10:00:28.000Z</time>
      </trkpt>
      <trkpt lat="47.7784" lon="1.96974">
        <ele>124</ele>
        <time>2018-01-21T10:00:29.000Z</time>
      </trkpt>
      <trkpt lat="47.7785" lon="1.97045">
        <ele>124</ele>
        <time>2018-01-21T10:00:40.000Z</time>
      </trkpt>
      <trkpt lat="47.77851" lon="1.97052">
        <ele>124</ele>
        <time>2018-01-21T10:00:41.000Z</time>
      </trkpt>
      <trkpt lat="47.77852" lon="1.9706">
        <ele>123</ele>
        <time>2018-01-21T10:00:42.000Z</time>
      </trkpt>
      <trkpt lat="47.77862" lon="1.97128">
        <ele>124</ele>
        <time>2018-01-21T10:00:52.000Z</time>
      </trkpt>
      <trkpt lat="47.77863" lon="1.97134">
        <ele>124</ele>
        <time>2018-01-21T10:00:53.000Z</time>
      </trkpt>
      <trkpt lat="47.7788" lon="1.97201">
        <ele>123</ele>
        <time>2018-01-21T10:01:06.000Z</time>
      </trkpt>
      <trkpt lat="47.77881" lon="1.97206">
        <ele>123</ele>
        <time>2018-01-21T10:01:07.000Z</time>
      </trkpt>
      <trkpt lat="47.77902" lon="1.97271">
        <ele>122</ele>
        <time>2018-01-21T10:01:19.000Z</time>
      </trkpt>
      <trkpt lat="47.77904" lon="1.97277">
        <ele>122</ele>
        <time>2018-01-21T10:01:20.000Z</time>
      </trkpt>
      <trkpt lat="47.77929" lon="1.97339">
        <ele>121</ele>
        <time>2018-01-21T10:01:31.000Z</time>
      </trkpt>
      <trkpt lat="47.77931" lon="1.97344">
        <ele>121</ele>
        <time>2018-01-21T10:01:32.000Z</time>
      </trkpt>
      <trkpt lat="47.77959" lon="1.97404">
        <ele>121</ele>
        <time>2018-01-21T10:01:43.000Z</time>
      </trkpt>
      <trkpt lat="47.77961" lon="1.97409">
        <ele>121</ele>
        <time>2018-01-21T10:01:44.000Z</time>
      </trkpt>
      <trkpt lat="47.77988" lon="1.97469">
        <ele>120</ele>
        <time>2018-01-21T10:01:55.000Z</time>
      </trkpt>
      <trkpt lat="47.77991" lon="1.97474">
        <ele>120</ele>
        <time>2018-01-21T10:01:56.000Z</time>
      </trkpt>
      <trkpt lat="47.78008" lon="1.97512">
        <ele>119</ele>
        <time>2018-01-21T10:02:03.000Z</time>
      </trkpt>
      <trkpt lat="47.78037" lon="1.97565">
        <ele>117</ele>
        <time>2018-01-21T10:02:13.000Z</time>
      </trkpt>
      <trkpt lat="47.7804" lon="1.9757">
        <ele>117</ele>
        <time>2018-01-21T10:02:14.000Z</time>
      </trkpt>
      <trkpt lat="47.78065" lon="1.97627">
        <ele>117</ele>
        <time>2018-01-21T10:02:24.000Z</time>
      </trkpt>
      <trkpt lat="47.78068" lon="1.97634">
        <ele>117</ele>
        <time>2018-01-21T10:02:25.000Z</time>
      </trkpt>
      <trkpt lat="47.78074" lon="1.97652">
        <ele>117</ele>
        <time>2018-01-21T10:02:28.000Z</time>
      </trkpt>
      <trkpt lat="47.7809" lon="1.97715">
        <ele>118</ele>
        <time>2018-01-21T10:02:38.000Z</time>
      </trkpt>
      <trkpt lat="47.78092" lon="1.97722">
        <ele>118</ele>
        <time>2018-01-21T10:02:39.000Z</time>
      </trkpt>
      <trkpt lat="47.78112" lon="1.97785">
        <ele>118</ele>
        <time>2018-01-21T10:02:49.000Z</time>
      </trkpt>
      <trkpt lat="47.78114" lon="1.97791">
        <ele>118</ele>
        <time>2018-01-21T10:02:50.000Z</time>
      </trkpt>
      <trkpt lat="47.78125" lon="1.9782">
        <ele>117</ele>
        <time>2018-01-21T10:02:55.000Z</time>
      </trkpt>
      <trkpt lat="47.7815" lon="1.97883">
        <ele>115</ele>
        <time>2018-01-21T10:03:06.000Z</time>
      </trkpt>
      <trkpt lat="47.78153" lon="1.97889">
        <ele>115</ele>
        <time>2018-01-21T10:03:07.000Z</time>
      </trkpt>
      <trkpt lat="47.78166" lon="1.97924">
        <ele>114</ele>
        <time>2018-01-21T10:03:13.000Z</time>
      </trkpt>
      <trkpt lat="47.78185" lon="1.97988">
        <ele>115</ele>
        <time>2018-01-21T10:03:24.000Z</time>
      </trkpt>
      <trkpt lat="47.78188" lon="1.9799">
        <ele>115</ele>
        <time>2018-01-21T10:03:25.000Z</time>
      </trkpt>
      <trkpt lat="47.78194" lon="1.97988">
        <ele>115</ele>
        <time>2018-01-21T10:03:27.000Z</time>
      </trkpt>
      <trkpt lat="47.78216" lon="1.9797">
        <ele>116</ele>
        <time>2018-01-21T10:03:33.000Z</time>
      </trkpt>
      <trkpt lat="47.78255" lon="1.97934">
        <ele>116</ele>
        <time>2018-01-21T10:03:42.000Z</time>
      </trkpt>
      <trkpt lat="47.78259" lon="1.9793">
        <ele>116</ele>
        <time>2018-01-21T10:03:43.000Z</time>
      </trkpt>
      <trkpt lat="47.78299" lon="1.97891">
        <ele>118</ele>
        <time>2018-01-21T10:03:52.000Z</time>
      </trkpt>
      <trkpt lat="47.78303" lon="1.97886">
        <ele>118</ele>
        <time>2018-01-21T10:03:53.000Z</time>
      </trkpt>
      <trkpt lat="47.7832" lon="1.97865">
        <ele>119</ele>
        <time>2018-01-21T10:03:57.000Z</time>
      </trkpt>
      <trkpt lat="47.78356" lon="1.97815">
        <ele>121</ele>
        <time>2018-01-21T10:04:06.000Z</time>
      </trkpt>
      <trkpt lat="47.7836" lon="1.97809">
        <ele>121</ele>
        <time>2018-01-21T10:04:07.000Z</time>
      </trkpt>
      <trkpt lat="47.78381" lon="1.97774">
        <ele>122</ele>
        <time>2018-01-21T10:04:12.000Z</time>
      </trkpt>
      <trkpt lat="47.78413" lon="1.97712">
        <ele>122</ele>
        <time>2018-01-21T10:04:19.000Z</time>
      </trkpt>
      <trkpt lat="47.78418" lon="1.97702">
        <ele>122</ele>
        <time>2018-01-21T10:04:20.000Z</time>
      </trkpt>
      <trkpt lat="47.78431" lon="1.97674">
        <ele>122</ele>
        <time>2018-01-21T10:04:23.000Z</time>
      </trkpt>
      <trkpt lat="47.78459" lon="1.97614">
        <ele>123</ele>
        <time>2018-01-21T10:04:29.000Z</time>
      </trkpt>
      <trkpt lat="47.78464" lon="1.97604">
        <ele>123</ele>
        <time>2018-01-21T10:04:30.000Z</time>
      </trkpt>
      <trkpt lat="47.78495" lon="1.97548">
        <ele>124</ele>
        <time>2018-01-21T10:04:36.000Z</time>
      </trkpt>
      <trkpt lat="47.78501" lon="1.97539">
        <ele>125</ele>
        <time>2018-01-21T10:04:37.000Z</time>
      </trkpt>
      <trkpt lat="47.78532" lon="1.97485">
        <ele>126</ele>
        <time>2018-01-21T10:04:43.000Z</time>
      </trkpt>
      <trkpt lat="47.78537" lon="1.97477">
        <ele>127</ele>
        <time>2018-01-21T10:04:44.000Z</time>
      </trkpt>
      <trkpt lat="47.78551" lon="1.97458">
        <ele>127</ele>
        <time>2018-01-21T10:04:47.000Z</time>
      </trkpt>
      <trkpt lat="47.7856" lon="1.97451">
        <ele>127</ele>
        <time>2018-01-21T10:04:49.000Z</time>
      </trkpt>
      <trkpt lat="47.78598" lon="1.97416">
        <ele>126</ele>
        <time>2018-01-21T10:04:58.000Z</time>
      </trkpt>
      <trkpt lat="47.78602" lon="1.97413">
        <ele>126</ele>
        <time>2018-01-21T10:04:59.000Z</time>
      </trkpt>
      <trkpt lat="47.78623" lon="1.97397">
        <ele>125</ele>
        <time>2018-01-21T10:05:06.000Z</time>
      </trkpt>
      <trkpt lat="47.78639" lon="1.97389">
        <ele>125</ele>
        <time>2018-01-21T10:05:13.000Z</time>
      </trkpt>
      <trkpt lat="47.7865" lon="1.97378">
        <ele>124</ele>
        <time>2018-01-21T10:05:16.000Z</time>
      </trkpt>
      <trkpt lat="47.78691" lon="1.97343">
        <ele>121</ele>
        <time>2018-01-21T10:05:24.000Z</time>
      </trkpt>
      <trkpt lat="47.78697" lon="1.97338">
        <ele>121</ele>
        <time>2018-01-21T10:05:25.000Z</time>
      </trkpt>
      <trkpt lat="47.78708" lon="1.97332">
        <ele>120</ele>
        <time>2018-01-21T10:05:27.000Z</time>
      </trkpt>
      <trkpt lat="47.78749" lon="1.97301">
        <ele>119</ele>
        <time>2018-01-21T10:05:34.000Z</time>
      </trkpt>
      <trkpt lat="47.78755" lon="1.97297">
        <ele>119</ele>
        <time>2018-01-21T10:05:35.000Z</time>
      </trkpt>
      <trkpt lat="47.78801" lon="1.9726">
        <ele>118</ele>
        <time>2018-01-21T10:05:43.000Z</time>
      </trkpt>
      <trkpt lat="47.78807" lon="1.97256">
        <ele>118</ele>
        <time>2018-01-21T10:05:44.000Z</time>
      </trkpt>
      <trkpt lat="47.78851" lon="1.97224">
        <ele>117</ele>
        <time>2018-01-21T10:05:51.000Z</time>
      </trkpt>
      <trkpt lat="47.78857" lon="1.97219">
        <ele>117</ele>
        <time>2018-01-21T10:05:52.000Z</time>
      </trkpt>
      <trkpt lat="47.78899" lon="1.97187">
        <ele>116</ele>
        <time>2018-01-21T10:05:59.000Z</time>
      </trkpt>
      <trkpt lat="47.78905" lon="1.97183">
        <ele>115</ele>
        <time>2018-01-21T10:06:00.000Z</time>
      </trkpt>
      <trkpt lat="47.78947" lon="1.9715">
        <ele>116</ele>
        <time>2018-01-21T10:06:07.000Z</time>
      </trkpt>
      <trkpt lat="47.78953" lon="1.97145">
        <ele>116</ele>
        <time>2018-01-21T10:06:08.000Z</time>
      </trkpt>
      <trkpt lat="47.78995" lon="1.97113">
        <ele>116</ele>
        <time>2018-01-21T10:06:15.000Z</time>
      </trkpt>
      <trkpt lat="47.79" lon="1.97109">
        <ele>116</ele>
        <time>2018-01-21T10:06:16.000Z</time>
      </trkpt>
      <trkpt lat="47.79044" lon="1.97082">
        <ele>116</ele>
        <time>2018-01-21T10:06:25.000Z</time>
      </trkpt>
      <trkpt lat="47.79049" lon="1.9708">
        <ele>116</ele>
        <time>2018-01-21T10:06:26.000Z</time>
      </trkpt>
      <trkpt lat="47.79092" lon="1.9706">
        <ele>116</ele>
        <time>2018-01-21T10:06:34.000Z</time>
      </trkpt>
      <trkpt lat="47.79098" lon="1.97057">
        <ele>117</ele>
        <time>2018-01-21T10:06:35.000Z</time>
      </trkpt>
      <trkpt lat="47.79142" lon="1.97038">
        <ele>117</ele>
        <time>2018-01-21T10:06:42.000Z</time>
      </trkpt>
      <trkpt lat="47.79148" lon="1.97035">
        <ele>117</ele>
        <time>2018-01-21T10:06:43.000Z</time>
      </trkpt>
      <trkpt lat="47.79193" lon="1.97013">
        <ele>118</ele>
        <time>2018-01-21T10:06:50.000Z</time>
      </trkpt>
      <trkpt lat="47.792" lon="1.9701">
        <ele>118</ele>
        <time>2018-01-21T10:06:51.000Z</time>
      </trkpt>
      <trkpt lat="47.79245" lon="1.96991">
        <ele>118</ele>
        <time>2018-01-21T10:06:58.000Z</time>
      </trkpt>
      <trkpt lat="47.79251" lon="1.96988">
        <ele>118</ele>
        <time>2018-01-21T10:06:59.000Z</time>
      </trkpt>
      <trkpt lat="47.79264" lon="1.96984">
        <ele>118</ele>
        <time>2018-01-21T10:07:01.000Z</time>
      </trkpt>
      <trkpt lat="47.79311" lon="1.96964">
        <ele>118</ele>
        <time>2018-01-21T10:07:09.000Z</time>
      </trkpt>
      <trkpt lat="47.79316" lon="1.96961">
        <ele>118</ele>
        <time>2018-01-21T10:07:10.000Z</time>
      </trkpt>
      <trkpt lat="47.79365" lon="1.96937">
        <ele>119</ele>
        <time>2018-01-21T10:07:18.000Z</time>
      </trkpt>
      <trkpt lat="47.7937" lon="1.96934">
        <ele>119</ele>
        <time>2018-01-21T10:07:19.000Z</time>
      </trkpt>
      <trkpt lat="47.79419" lon="1.96912">
        <ele>120</ele>
        <time>2018-01-21T10:07:27.000Z</time>
      </trkpt>
      <trkpt lat="47.79425" lon="1.96909">
        <ele>120</ele>
        <time>2018-01-21T10:07:28.000Z</time>
      </trkpt>
      <trkpt lat="47.79469" lon="1.96888">
        <ele>120</ele>
        <time>2018-01-21T10:07:36.000Z</time>
      </trkpt>
      <trkpt lat="47.79475" lon="1.96886">
        <ele>120</ele>
        <time>2018-01-21T10:07:37.000Z</time>
      </trkpt>
      <trkpt lat="47.79521" lon="1.96863">
        <ele>119</ele>
        <time>2018-01-21T10:07:45.000Z</time>
      </trkpt>
      <trkpt lat="47.79527" lon="1.9686">
        <ele>119</ele>
        <time>2018-01-21T10:07:46.000Z</time>
      </trkpt>
      <trkpt lat="47.79574" lon="1.96837">
        <ele>118</ele>
        <time>2018-01-21T10:07:54.000Z</time>
      </trkpt>
      <trkpt lat="47.7958" lon="1.96834">
        <ele>118</ele>
        <time>2018-01-21T10:07:55.000Z</time>
      </trkpt>
      <trkpt lat="47.79628" lon="1.96811">
        <ele>118</ele>
        <time>2018-01-21T10:08:03.000Z</time>
      </trkpt>
      <trkpt lat="47.79634" lon="1.96808">
        <ele>117</ele>
        <time>2018-01-21T10:08:04.000Z</time>
      </trkpt>
      <trkpt lat="47.79681" lon="1.96789">
        <ele>116</ele>
        <time>2018-01-21T10:08:12.000Z</time>
      </trkpt>
      <trkpt lat="47.79686" lon="1.96787">
        <ele>116</ele>
        <time>2018-01-21T10:08:13.000Z</time>
      </trkpt>
      <trkpt lat="47.79732" lon="1.96772">
        <ele>116</ele>
        <time>2018-01-21T10:08:22.000Z</time>
      </trkpt>
      <trkpt lat="47.79737" lon="1.9677">
        <ele>116</ele>
        <time>2018-01-21T10:08:23.000Z</time>
      </trkpt>
      <trkpt lat="47.79783" lon="1.96762">
        <ele>116</ele>
        <time>2018-01-21T10:08:33.000Z</time>
      </trkpt>
      <trkpt lat="47.79787" lon="1.96761">
        <ele>116</ele>
        <time>2018-01-21T10:08:34.000Z</time>
      </trkpt>
      <trkpt lat="47.79833" lon="1.96749">
        <ele>118</ele>
        <time>2018-01-21T10:08:44.000Z</time>
      </trkpt>
      <trkpt lat="47.79838" lon="1.96748">
        <ele>118</ele>
        <time>2018-01-21T10:08:45.000Z</time>
      </trkpt>
      <trkpt lat="47.79886" lon="1.96737">
        <ele>119</ele>
        <time>2018-01-21T10:08:55.000Z</time>
      </trkpt>
      <trkpt lat="47.79891" lon="1.96736">
        <ele>119</ele>
        <time>2018-01-21T10:08:56.000Z</time>
      </trkpt>
      <trkpt lat="47.79939" lon="1.96723">
        <ele>119</ele>
        <time>2018-01-21T10:09:05.000Z</time>
      </trkpt>
      <trkpt lat="47.79945" lon="1.96721">
        <ele>118</ele>
        <time>2018-01-21T10:09:06.000Z</time>
      </trkpt>
      <trkpt lat="47.79992" lon="1.96704">
        <ele>117</ele>
        <time>2018-01-21T10:09:14.000Z</time>
      </trkpt>
      <trkpt lat="47.79999" lon="1.96701">
        <ele>116</ele>
        <time>2018-01-21T10:09:15.000Z</time>
      </trkpt>
      <trkpt lat="47.80045" lon="1.96686">
        <ele>113</ele>
        <time>2018-01-21T10:09:22.000Z</time>
      </trkpt>
      <trkpt lat="47.80051" lon="1.96684">
        <ele>113</ele>
        <time>2018-01-21T10:09:23.000Z</time>
      </trkpt>
      <trkpt lat="47.80099" lon="1.96669">
        <ele>110</ele>
        <time>2018-01-21T10:09:31.000Z</time>
      </trkpt>
      <trkpt lat="47.80103" lon="1.96667">
        <ele>110</ele>
        <time>2018-01-21T10:09:32.000Z</time>
      </trkpt>
      <trkpt lat="47.80114" lon="1.96665">
        <ele>110</ele>
        <time>2018-01-21T10:09:41.000Z</time>
      </trkpt>
      <trkpt lat="47.80159" lon="1.96649">
        <ele>118</ele>
        <time>2018-01-21T10:10:01.000Z</time>
      </trkpt>
      <trkpt lat="47.80165" lon="1.96646">
        <ele>118</ele>
        <time>2018-01-21T10:10:02.000Z</time>
      </trkpt>
      <trkpt lat="47.80209" lon="1.96631">
        <ele>120</ele>
        <time>2018-01-21T10:10:10.000Z</time>
      </trkpt>
      <trkpt lat="47.80215" lon="1.96629">
        <ele>120</ele>
        <time>2018-01-21T10:10:11.000Z</time>
      </trkpt>
      <trkpt lat="47.8026" lon="1.96612">
        <ele>120</ele>
        <time>2018-01-21T10:10:19.000Z</time>
      </trkpt>
      <trkpt lat="47.80266" lon="1.9661">
        <ele>120</ele>
        <time>2018-01-21T10:10:20.000Z</time>
      </trkpt>
      <trkpt lat="47.80315" lon="1.96591">
        <ele>117</ele>
        <time>2018-01-21T10:10:29.000Z</time>
      </trkpt>
      <trkpt lat="47.80321" lon="1.9659">
        <ele>117</ele>
        <time>2018-01-21T10:10:30.000Z</time>
      </trkpt>
      <trkpt lat="47.80369" lon="1.96573">
        <ele>114</ele>
        <time>2018-01-21T10:10:39.000Z</time>
      </trkpt>
      <trkpt lat="47.80375" lon="1.96571">
        <ele>114</ele>
        <time>2018-01-21T10:10:40.000Z</time>
      </trkpt>
      <trkpt lat="47.80423" lon="1.96554">
        <ele>112</ele>
        <time>2018-01-21T10:10:48.000Z</time>
      </trkpt>
      <trkpt lat="47.80428" lon="1.96552">
        <ele>111</ele>
        <time>2018-01-21T10:10:49.000Z</time>
      </trkpt>
      <trkpt lat="47.80476" lon="1.96535">
        <ele>107</ele>
        <time>2018-01-21T10:10:58.000Z</time>
      </trkpt>
      <trkpt lat="47.80481" lon="1.96533">
        <ele>106</ele>
        <time>2018-01-21T10:10:59.000Z</time>
      </trkpt>
      <trkpt lat="47.80527" lon="1.96511">
        <ele>105</ele>
        <time>2018-01-21T10:11:08.000Z</time>
      </trkpt>
      <trkpt lat="47.80531" lon="1.96509">
        <ele>105</ele>
        <time>2018-01-21T10:11:09.000Z</time>
      </trkpt>
      <trkpt lat="47.80575" lon="1.96493">
        <ele>106</ele>
        <time>2018-01-21T10:11:19.000Z</time>
      </trkpt>
      <trkpt lat="47.80578" lon="1.96491">
        <ele>107</ele>
        <time>2018-01-21T10:11:20.000Z</time>
      </trkpt>
      <trkpt lat="47.80608" lon="1.96469">
        <ele>109</ele>
        <time>2018-01-21T10:11:27.000Z</time>
      </trkpt>
      <trkpt lat="47.80635" lon="1.9645">
        <ele>110</ele>
        <time>2018-01-21T10:11:33.000Z</time>
      </trkpt>
      <trkpt lat="47.8068" lon="1.96432">
        <ele>110</ele>
        <time>2018-01-21T10:11:42.000Z</time>
      </trkpt>
      <trkpt lat="47.80685" lon="1.9643">
        <ele>110</ele>
        <time>2018-01-21T10:11:43.000Z</time>
      </trkpt>
      <trkpt lat="47.80732" lon="1.96409">
        <ele>108</ele>
        <time>2018-01-21T10:11:53.000Z</time>
      </trkpt>
      <trkpt lat="47.80737" lon="1.96407">
        <ele>109</ele>
        <time>2018-01-21T10:11:54.000Z</time>
      </trkpt>
      <trkpt lat="47.80779" lon="1.9639">
        <ele>110</ele>
        <time>2018-01-21T10:12:03.000Z</time>
      </trkpt>
      <trkpt lat="47.80781" lon="1.96394">
        <ele>110</ele>
        <time>2018-01-21T10:12:04.000Z</time>
      </trkpt>
      <trkpt lat="47.80783" lon="1.96398">
        <ele>110</ele>
        <time>2018-01-21T10:12:05.000Z</time>
      </trkpt>
      <trkpt lat="47.80785" lon="1.96409">
        <ele>110</ele>
        <time>2018-01-21T10:12:07.000Z</time>
      </trkpt>
      <trkpt lat="47.8079" lon="1.96445">
        <ele>111</ele>
        <time>2018-01-21T10:12:13.000Z</time>
      </trkpt>
      <trkpt lat="47.80796" lon="1.96452">
        <ele>112</ele>
        <time>2018-01-21T10:12:15.000Z</time>
      </trkpt>
      <trkpt lat="47.80809" lon="1.96454">
        <ele>112</ele>
        <time>2018-01-21T10:12:18.000Z</time>
      </trkpt>
      <trkpt lat="47.80859" lon="1.96449">
        <ele>113</ele>
        <time>2018-01-21T10:12:28.000Z</time>
      </trkpt>
      <trkpt lat="47.80864" lon="1.96448">
        <ele>113</ele>
        <time>2018-01-21T10:12:29.000Z</time>
      </trkpt>
      <trkpt lat="47.8091" lon="1.96445">
        <ele>114</ele>
        <time>2018-01-21T10:12:39.000Z</time>
      </trkpt>
      <trkpt lat="47.80913" lon="1.9645">
        <ele>114</ele>
        <time>2018-01-21T10:12:40.000Z</time>
      </trkpt>
      <trkpt lat="47.80914" lon="1.96457">
        <ele>114</ele>
        <time>2018-01-21T10:12:41.000Z</time>
      </trkpt>
      <trkpt lat="47.80918" lon="1.96524">
        <ele>114</ele>
        <time>2018-01-21T10:12:51.000Z</time>
      </trkpt>
      <trkpt lat="47.80918" lon="1.96531">
        <ele>114</ele>
        <time>2018-01-21T10:12:52.000Z</time>
      </trkpt>
      <trkpt lat="47.80919" lon="1.966">
        <ele>114</ele>
        <time>2018-01-21T10:13:02.000Z</time>
      </trkpt>
      <trkpt lat="47.80919" lon="1.96607">
        <ele>114</ele>
        <time>2018-01-21T10:13:03.000Z</time>
      </trkpt>
      <trkpt lat="47.80921" lon="1.96676">
        <ele>114</ele>
        <time>2018-01-21T10:13:13.000Z</time>
      </trkpt>
      <trkpt lat="47.80921" lon="1.96683">
        <ele>114</ele>
        <time>2018-01-21T10:13:14.000Z</time>
      </trkpt>
      <trkpt lat="47.80922" lon="1.96753">
        <ele>114</ele>
        <time>2018-01-21T10:13:23.000Z</time>
      </trkpt>
      <trkpt lat="47.80922" lon="1.9676">
        <ele>114</ele>
        <time>2018-01-21T10:13:24.000Z</time>
      </trkpt>
      <trkpt lat="47.80923" lon="1.96828">
        <ele>114</ele>
        <time>2018-01-21T10:13:33.000Z</time>
      </trkpt>
      <trkpt lat="47.80923" lon="1.96836">
        <ele>114</ele>
        <time>2018-01-21T10:13:34.000Z</time>
      </trkpt>
      <trkpt lat="47.80924" lon="1.96906">
        <ele>114</ele>
        <time>2018-01-21T10:13:43.000Z</time>
      </trkpt>
      <trkpt lat="47.80924" lon="1.96914">
        <ele>114</ele>
        <time>2018-01-21T10:13:44.000Z</time>
      </trkpt>
      <trkpt lat="47.80925" lon="1.96985">
        <ele>115</ele>
        <time>2018-01-21T10:13:54.000Z</time>
      </trkpt>
      <trkpt lat="47.80925" lon="1.96992">
        <ele>115</ele>
        <time>2018-01-21T10:13:55.000Z</time>
      </trkpt>
      <trkpt lat="47.80931" lon="1.9705">
        <ele>114</ele>
        <time>2018-01-21T10:14:04.000Z</time>
      </trkpt>
      <trkpt lat="47.80938" lon="1.97057">
        <ele>115</ele>
        <time>2018-01-21T10:14:06.000Z</time>
      </trkpt>
      <trkpt lat="47.80983" lon="1.97082">
        <ele>115</ele>
        <time>2018-01-21T10:14:16.000Z</time>
      </trkpt>
      <trkpt lat="47.80988" lon="1.97085">
        <ele>115</ele>
        <time>2018-01-21T10:14:17.000Z</time>
      </trkpt>
      <trkpt lat="47.81033" lon="1.97115">
        <ele>114</ele>
        <time>2018-01-21T10:14:27.000Z</time>
      </trkpt>
      <trkpt lat="47.81038" lon="1.97117">
        <ele>114</ele>
        <time>2018-01-21T10:14:28.000Z</time>
      </trkpt>
      <trkpt lat="47.81079" lon="1.97146">
        <ele>114</ele>
        <time>2018-01-21T10:14:37.000Z</time>
      </trkpt>
      <trkpt lat="47.81084" lon="1.97149">
        <ele>114</ele>
        <time>2018-01-21T10:14:38.000Z</time>
      </trkpt>
      <trkpt lat="47.81128" lon="1.97181">
        <ele>113</ele>
        <time>2018-01-21T10:14:47.000Z</time>
      </trkpt>
      <trkpt lat="47.81133" lon="1.97184">
        <ele>112</ele>
        <time>2018-01-21T10:14:48.000Z</time>
      </trkpt>
      <trkpt lat="47.81177" lon="1.97216">
        <ele>111</ele>
        <time>2018-01-21T10:14:57.000Z</time>
      </trkpt>
      <trkpt lat="47.81182" lon="1.97219">
        <ele>111</ele>
        <time>2018-01-21T10:14:58.000Z</time>
      </trkpt>
      <trkpt lat="47.81224" lon="1.97249">
        <ele>111</ele>
        <time>2018-01-21T10:15:07.000Z</time>
      </trkpt>
      <trkpt lat="47.81227" lon="1.97252">
        <ele>111</ele>
        <time>2018-01-21T10:15:08.000Z</time>
      </trkpt>
      <trkpt lat="47.81255" lon="1.97266">
        <ele>111</ele>
        <time>2018-01-21T10:15:14.000Z</time>
      </trkpt>
      <trkpt lat="47.81261" lon="1.97258">
        <ele>111</ele>
        <time>2018-01-21T10:15:16.000Z</time>
      </trkpt>
      <trkpt lat="47.81277" lon="1.97192">
        <ele>111</ele>
        <time>2018-01-21T10:15:25.000Z</time>
      </trkpt>
      <trkpt lat="47.81279" lon="1.97185">
        <ele>112</ele>
        <time>2018-01-21T10:15:26.000Z</time>
      </trkpt>
      <trkpt lat="47.81298" lon="1.97119">
        <ele>112</ele>
        <time>2018-01-21T10:15:35.000Z</time>
      </trkpt>
      <trkpt lat="47.813" lon="1.97112">
        <ele>112</ele>
        <time>2018-01-21T10:15:36.000Z</time>
      </trkpt>
      <trkpt lat="47.81321" lon="1.97044">
        <ele>113</ele>
        <time>2018-01-21T10:15:45.000Z</time>
      </trkpt>
      <trkpt lat="47.81322" lon="1.97036">
        <ele>113</ele>
        <time>2018-01-21T10:15:46.000Z</time>
      </trkpt>
      <trkpt lat="47.81341" lon="1.96968">
        <ele>114</ele>
        <time>2018-01-21T10:15:55.000Z</time>
      </trkpt>
      <trkpt lat="47.81343" lon="1.9696">
        <ele>114</ele>
        <time>2018-01-21T10:15:56.000Z</time>
      </trkpt>
      <trkpt lat="47.81361" lon="1.96891">
        <ele>114</ele>
        <time>2018-01-21T10:16:05.000Z</time>
      </trkpt>
      <trkpt lat="47.81363" lon="1.96883">
        <ele>114</ele>
        <time>2018-01-21T10:16:06.000Z</time>
      </trkpt>
      <trkpt lat="47.81379" lon="1.9684">
        <ele>114</ele>
        <time>2018-01-21T10:16:12.000Z</time>
      </trkpt>
      <trkpt lat="47.81414" lon="1.96794">
        <ele>113</ele>
        <time>2018-01-21T10:16:21.000Z</time>
      </trkpt>
      <trkpt lat="47.81418" lon="1.9679">
        <ele>114</ele>
        <time>2018-01-21T10:16:22.000Z</time>
      </trkpt>
      <trkpt lat="47.81458" lon="1.96746">
        <ele>114</ele>
        <time>2018-01-21T10:16:32.000Z</time>
      </trkpt>
      <trkpt lat="47.81461" lon="1.96742">
        <ele>114</ele>
        <time>2018-01-21T10:16:33.000Z</time>
      </trkpt>
      <trkpt lat="47.81498" lon="1.96701">
        <ele>116</ele>
        <time>2018-01-21T10:16:43.000Z</time>
      </trkpt>
      <trkpt lat="47.81502" lon="1.96696">
        <ele>116</ele>
        <time>2018-01-21T10:16:44.000Z</time>
      </trkpt>
      <trkpt lat="47.81538" lon="1.96656">
        <ele>117</ele>
        <time>2018-01-21T10:16:53.000Z</time>
      </trkpt>
      <trkpt lat="47.81543" lon="1.96651">
        <ele>117</ele>
        <time>2018-01-21T10:16:54.000Z</time>
      </trkpt>
      <trkpt lat="47.81559" lon="1.96636">
        <ele>117</ele>
        <time>2018-01-21T10:16:58.000Z</time>
      </trkpt>
      <trkpt lat="47.81575" lon="1.96622">
        <ele>118</ele>
        <time>2018-01-21T10:17:02.000Z</time>
      </trkpt>
      <trkpt lat="47.81577" lon="1.96613">
        <ele>118</ele>
        <time>2018-01-21T10:17:04.000Z</time>
      </trkpt>
      <trkpt lat="47.81573" lon="1.96606">
        <ele>118</ele>
        <time>2018-01-21T10:17:06.000Z</time>
      </trkpt>
      <trkpt lat="47.8153" lon="1.9658">
        <ele>116</ele>
        <time>2018-01-21T10:17:18.000Z</time>
      </trkpt>
      <trkpt lat="47.81526" lon="1.96577">
        <ele>116</ele>
        <time>2018-01-21T10:17:19.000Z</time>
      </trkpt>
      <trkpt lat="47.81482" lon="1.96547">
        <ele>115</ele>
        <time>2018-01-21T10:17:30.000Z</time>
      </trkpt>
      <trkpt lat="47.81479" lon="1.96544">
        <ele>115</ele>
        <time>2018-01-21T10:17:31.000Z</time>
      </trkpt>
      <trkpt lat="47.81435" lon="1.96517">
        <ele>114</ele>
        <time>2018-01-21T10:17:41.000Z</time>
      </trkpt>
      <trkpt lat="47.81431" lon="1.96514">
        <ele>114</ele>
        <time>2018-01-21T10:17:42.000Z</time>
      </trkpt>
      <trkpt lat="47.81389" lon="1.96488">
        <ele>114</ele>
        <time>2018-01-21T10:17:52.000Z</time>
      </trkpt>
      <trkpt lat="47.81384" lon="1.96485">
        <ele>114</ele>
        <time>2018-01-21T10:17:53.000Z</time>
      </trkpt>
      <trkpt lat="47.81342" lon="1.96459">
        <ele>114</ele>
        <time>2018-01-21T10:18:04.000Z</time>
      </trkpt>
      <trkpt lat="47.81338" lon="1.96457">
        <ele>114</ele>
        <time>2018-01-21T10:18:05.000Z</time>
      </trkpt>
      <trkpt lat="47.81321" lon="1.96443">
        <ele>114</ele>
        <time>2018-01-21T10:18:10.000Z</time>
      </trkpt>
      <trkpt lat="47.81315" lon="1.9643">
        <ele>114</ele>
        <time>2018-01-21T10:18:13.000Z</time>
      </trkpt>
      <trkpt lat="47.81312" lon="1.96358">
        <ele>114</ele>
        <time>2018-01-21T10:18:24.000Z</time>
      </trkpt>
      <trkpt lat="47.81312" lon="1.96351">
        <ele>114</ele>
        <time>2018-01-21T10:18:25.000Z</time>
      </trkpt>
      <trkpt lat="47.81308" lon="1.96281">
        <ele>115</ele>
        <time>2018-01-21T10:18:35.000Z</time>
      </trkpt>
      <trkpt lat="47.81308" lon="1.96273">
        <ele>115</ele>
        <time>2018-01-21T10:18:36.000Z</time>
      </trkpt>
      <trkpt lat="47.81308" lon="1.96205">
        <ele>114</ele>
        <time>2018-01-21T10:18:45.000Z</time>
      </trkpt>
      <trkpt lat="47.81308" lon="1.96198">
        <ele>114</ele>
        <time>2018-01-21T10:18:46.000Z</time>
      </trkpt>
      <trkpt lat="47.81309" lon="1.9618">
        <ele>115</ele>
        <time>2018-01-21T10:18:49.000Z</time>
      </trkpt>
      <trkpt lat="47.81315" lon="1.96172">
        <ele>115</ele>
        <time>2018-01-21T10:18:51.000Z</time>
      </trkpt>
      <trkpt lat="47.81331" lon="1.96161">
        <ele>114</ele>
        <time>2018-01-21T10:18:55.000Z</time>
      </trkpt>
      <trkpt lat="47.81343" lon="1.96163">
        <ele>114</ele>
        <time>2018-01-21T10:18:58.000Z</time>
      </trkpt>
      <trkpt lat="47.81354" lon="1.9617">
        <ele>114</ele>
        <time>2018-01-21T10:19:01.000Z</time>
      </trkpt>
      <trkpt lat="47.81369" lon="1.96164">
        <ele>115</ele>
        <time>2018-01-21T10:19:06.000Z</time>
      </trkpt>
      <trkpt lat="47.81392" lon="1.96176">
        <ele>118</ele>
        <time>2018-01-21T10:19:13.000Z</time>
      </trkpt>
      <trkpt lat="47.81429" lon="1.96197">
        <ele>121</ele>
        <time>2018-01-21T10:19:25.000Z</time>
      </trkpt>
      <trkpt lat="47.81436" lon="1.96204">
        <ele>121</ele>
        <time>2018-01-21T10:19:28.000Z</time>
      </trkpt>
      <trkpt lat="47.81441" lon="1.96207">
        <ele>121</ele>
        <time>2018-01-21T10:19:30.000Z</time>
      </trkpt>
      <trkpt lat="47.81459" lon="1.96222">
        <ele>122</ele>
        <time>2018-01-21T10:19:37.000Z</time>
      </trkpt>
      <trkpt lat="47.81467" lon="1.96228">
        <ele>123</ele>
        <time>2018-01-21T10:19:40.000Z</time>
      </trkpt>
      <trkpt lat="47.81498" lon="1.9625">
        <ele>131</ele>
        <time>2018-01-21T10:19:52.000Z</time>
      </trkpt>
      <trkpt lat="47.81508" lon="1.96257">
        <ele>132</ele>
        <time>2018-01-21T10:19:56.000Z</time>
      </trkpt>
      <trkpt lat="47.81513" lon="1.96261">
        <ele>132</ele>
        <time>2018-01-21T10:19:58.000Z</time>
      </trkpt>
      <trkpt lat="47.81533" lon="1.96274">
        <ele>136</ele>
        <time>2018-01-21T10:20:05.000Z</time>
      </trkpt>
      <trkpt lat="47.8154" lon="1.96281">
        <ele>137</ele>
        <time>2018-01-21T10:20:08.000Z</time>
      </trkpt>
      <trkpt lat="47.81543" lon="1.9629">
        <ele>136</ele>
        <time>2018-01-21T10:20:10.000Z</time>
      </trkpt>
      <trkpt lat="47.81545" lon="1.96306">
        <ele>133</ele>
        <time>2018-01-21T10:20:13.000Z</time>
      </trkpt>
      <trkpt lat="47.81551" lon="1.96313">
        <ele>131</ele>
        <time>2018-01-21T10:20:15.000Z</time>
      </trkpt>
      <trkpt lat="47.8159" lon="1.9635">
        <ele>125</ele>
        <time>2018-01-21T10:20:25.000Z</time>
      </trkpt>
      <trkpt lat="47.81594" lon="1.96354">
        <ele>124</ele>
        <time>2018-01-21T10:20:26.000Z</time>
      </trkpt>
      <trkpt lat="47.81627" lon="1.96381">
        <ele>121</ele>
        <time>2018-01-21T10:20:33.000Z</time>
      </trkpt>
      <trkpt lat="47.81668" lon="1.96415">
        <ele>118</ele>
        <time>2018-01-21T10:20:42.000Z</time>
      </trkpt>
      <trkpt lat="47.81672" lon="1.9642">
        <ele>118</ele>
        <time>2018-01-21T10:20:43.000Z</time>
      </trkpt>
      <trkpt lat="47.81681" lon="1.96427">
        <ele>118</ele>
        <time>2018-01-21T10:20:45.000Z</time>
      </trkpt>
      <trkpt lat="47.81725" lon="1.96462">
        <ele>117</ele>
        <time>2018-01-21T10:20:54.000Z</time>
      </trkpt>
      <trkpt lat="47.81731" lon="1.96466">
        <ele>116</ele>
        <time>2018-01-21T10:20:55.000Z</time>
      </trkpt>
      <trkpt lat="47.81776" lon="1.96499">
        <ele>115</ele>
        <time>2018-01-21T10:21:03.000Z</time>
      </trkpt>
      <trkpt lat="47.81783" lon="1.96503">
        <ele>115</ele>
        <time>2018-01-21T10:21:04.000Z</time>
      </trkpt>
      <trkpt lat="47.81827" lon="1.96539">
        <ele>114</ele>
        <time>2018-01-21T10:21:12.000Z</time>
      </trkpt>
      <trkpt lat="47.81833" lon="1.96544">
        <ele>114</ele>
        <time>2018-01-21T10:21:13.000Z</time>
      </trkpt>
      <trkpt lat="47.81873" lon="1.96578">
        <ele>112</ele>
        <time>2018-01-21T10:21:20.000Z</time>
      </trkpt>
      <trkpt lat="47.81879" lon="1.96583">
        <ele>112</ele>
        <time>2018-01-21T10:21:21.000Z</time>
      </trkpt>
      <trkpt lat="47.81923" lon="1.9661">
        <ele>111</ele>
        <time>2018-01-21T10:21:28.000Z</time>
      </trkpt>
      <trkpt lat="47.81928" lon="1.96614">
        <ele>111</ele>
        <time>2018-01-21T10:21:29.000Z</time>
      </trkpt>
      <trkpt lat="47.81946" lon="1.96624">
        <ele>110</ele>
        <time>2018-01-21T10:21:32.000Z</time>
      </trkpt>
      <trkpt lat="47.8199" lon="1.96643">
        <ele>110</ele>
        <time>2018-01-21T10:21:39.000Z</time>
      </trkpt>
      <trkpt lat="47.81996" lon="1.96646">
        <ele>109</ele>
        <time>2018-01-21T10:21:40.000Z</time>
      </trkpt>
      <trkpt lat="47.82044" lon="1.96669">
        <ele>109</ele>
        <time>2018-01-21T10:21:48.000Z</time>
      </trkpt>
      <trkpt lat="47.82049" lon="1.96671">
        <ele>108</ele>
        <time>2018-01-21T10:21:49.000Z</time>
      </trkpt>
      <trkpt lat="47.82067" lon="1.96674">
        <ele>108</ele>
        <time>2018-01-21T10:21:54.000Z</time>
      </trkpt>
      <trkpt lat="47.8207" lon="1.96666">
        <ele>108</ele>
        <time>2018-01-21T10:21:56.000Z</time>
      </trkpt>
      <trkpt lat="47.82068" lon="1.96648">
        <ele>107</ele>
        <time>2018-01-21T10:21:59.000Z</time>
      </trkpt>
      <trkpt lat="47.82067" lon="1.96629">
        <ele>106</ele>
        <time>2018-01-21T10:22:02.000Z</time>
      </trkpt>
      <trkpt lat="47.82066" lon="1.96601">
        <ele>104</ele>
        <time>2018-01-21T10:22:06.000Z</time>
      </trkpt>
      <trkpt lat="47.82063" lon="1.96581">
        <ele>104</ele>
        <time>2018-01-21T10:22:09.000Z</time>
      </trkpt>
      <trkpt lat="47.82058" lon="1.9651">
        <ele>107</ele>
        <time>2018-01-21T10:22:20.000Z</time>
      </trkpt>
      <trkpt lat="47.82057" lon="1.96504">
        <ele>107</ele>
        <time>2018-01-21T10:22:21.000Z</time>
      </trkpt>
      <trkpt lat="47.82052" lon="1.96465">
        <ele>109</ele>
        <time>2018-01-21T10:22:28.000Z</time>
      </trkpt>
      <trkpt lat="47.82047" lon="1.96431">
        <ele>110</ele>
        <time>2018-01-21T10:22:34.000Z</time>
      </trkpt>
      <trkpt lat="47.82045" lon="1.96418">
        <ele>110</ele>
        <time>2018-01-21T10:22:36.000Z</time>
      </trkpt>
      <trkpt lat="47.82047" lon="1.96401">
        <ele>110</ele>
        <time>2018-01-21T10:22:39.000Z</time>
      </trkpt>
      <trkpt lat="47.82047" lon="1.96376">
        <ele>110</ele>
        <time>2018-01-21T10:22:43.000Z</time>
      </trkpt>
      <trkpt lat="47.82045" lon="1.96359">
        <ele>111</ele>
        <time>2018-01-21T10:22:46.000Z</time>
      </trkpt>
      <trkpt lat="47.82044" lon="1.96289">
        <ele>110</ele>
        <time>2018-01-21T10:22:56.000Z</time>
      </trkpt>
      <trkpt lat="47.82043" lon="1.96282">
        <ele>110</ele>
        <time>2018-01-21T10:22:57.000Z</time>
      </trkpt>
      <trkpt lat="47.82042" lon="1.9627">
        <ele>110</ele>
        <time>2018-01-21T10:22:59.000Z</time>
      </trkpt>
      <trkpt lat="47.82039" lon="1.96234">
        <ele>110</ele>
        <time>2018-01-21T10:23:05.000Z</time>
      </trkpt>
      <trkpt lat="47.82035" lon="1.96192">
        <ele>109</ele>
        <time>2018-01-21T10:23:13.000Z</time>
      </trkpt>
      <trkpt lat="47.82032" lon="1.96171">
        <ele>108</ele>
        <time>2018-01-21T10:23:17.000Z</time>
      </trkpt>
      <trkpt lat="47.82031" lon="1.96142">
        <ele>108</ele>
        <time>2018-01-21T10:23:22.000Z</time>
      </trkpt>
      <trkpt lat="47.8203" lon="1.96109">
        <ele>108</ele>
        <time>2018-01-21T10:23:28.000Z</time>
      </trkpt>
      <trkpt lat="47.82028" lon="1.96065">
        <ele>108</ele>
        <time>2018-01-21T10:23:36.000Z</time>
      </trkpt>
      <trkpt lat="47.82028" lon="1.96054">
        <ele>107</ele>
        <time>2018-01-21T10:23:38.000Z</time>
      </trkpt>
      <trkpt lat="47.82026" lon="1.96045">
        <ele>107</ele>
        <time>2018-01-21T10:23:40.000Z</time>
      </trkpt>
      <trkpt lat="47.82025" lon="1.9603">
        <ele>106</ele>
        <time>2018-01-21T10:23:43.000Z</time>
      </trkpt>
      <trkpt lat="47.82027" lon="1.95996">
        <ele>103</ele>
        <time>2018-01-21T10:23:49.000Z</time>
      </trkpt>
      <trkpt lat="47.82026" lon="1.95985">
        <ele>102</ele>
        <time>2018-01-21T10:23:51.000Z</time>
      </trkpt>
      <trkpt lat="47.82025" lon="1.95915">
        <ele>94</ele>
        <time>2018-01-21T10:24:03.000Z</time>
      </trkpt>
      <trkpt lat="47.82027" lon="1.9591">
        <ele>93</ele>
        <time>2018-01-21T10:24:04.000Z</time>
      </trkpt>
      <trkpt lat="47.82028" lon="1.95903">
        <ele>92</ele>
        <time>2018-01-21T10:24:05.000Z</time>
      </trkpt>
      <trkpt lat="47.82029" lon="1.95848">
        <ele>88</ele>
        <time>2018-01-21T10:24:14.000Z</time>
      </trkpt>
      <trkpt lat="47.82051" lon="1.95805">
        <ele>89</ele>
        <time>2018-01-21T10:24:23.000Z</time>
      </trkpt>
      <trkpt lat="47.82083" lon="1.9575">
        <ele>97</ele>
        <time>2018-01-21T10:24:32.000Z</time>
      </trkpt>
      <trkpt lat="47.82087" lon="1.95744">
        <ele>97</ele>
        <time>2018-01-21T10:24:33.000Z</time>
      </trkpt>
      <trkpt lat="47.82117" lon="1.95704">
        <ele>100</ele>
        <time>2018-01-21T10:24:39.000Z</time>
      </trkpt>
      <trkpt lat="47.82122" lon="1.95699">
        <ele>100</ele>
        <time>2018-01-21T10:24:40.000Z</time>
      </trkpt>
      <trkpt lat="47.82167" lon="1.95666">
        <ele>102</ele>
        <time>2018-01-21T10:24:48.000Z</time>
      </trkpt>
      <trkpt lat="47.82173" lon="1.95663">
        <ele>102</ele>
        <time>2018-01-21T10:24:49.000Z</time>
      </trkpt>
      <trkpt lat="47.82182" lon="1.95659">
        <ele>102</ele>
        <time>2018-01-21T10:24:51.000Z</time>
      </trkpt>
      <trkpt lat="47.82201" lon="1.95658">
        <ele>103</ele>
        <time>2018-01-21T10:24:57.000Z</time>
      </trkpt>
      <trkpt lat="47.8221" lon="1.95648">
        <ele>104</ele>
        <time>2018-01-21T10:25:00.000Z</time>
      </trkpt>
      <trkpt lat="47.82244" lon="1.95598">
        <ele>106</ele>
        <time>2018-01-21T10:25:11.000Z</time>
      </trkpt>
      <trkpt lat="47.82247" lon="1.95594">
        <ele>107</ele>
        <time>2018-01-21T10:25:12.000Z</time>
      </trkpt>
      <trkpt lat="47.82283" lon="1.95545">
        <ele>110</ele>
        <time>2018-01-21T10:25:22.000Z</time>
      </trkpt>
      <trkpt lat="47.82287" lon="1.95541">
        <ele>110</ele>
        <time>2018-01-21T10:25:23.000Z</time>
      </trkpt>
      <trkpt lat="47.82306" lon="1.95512">
        <ele>108</ele>
        <time>2018-01-21T10:25:29.000Z</time>
      </trkpt>
      <trkpt lat="47.82308" lon="1.95497">
        <ele>108</ele>
        <time>2018-01-21T10:25:32.000Z</time>
      </trkpt>
      <trkpt lat="47.82308" lon="1.95482">
        <ele>108</ele>
        <time>2018-01-21T10:25:38.000Z</time>
      </trkpt>
      <trkpt lat="47.8235" lon="1.95445">
        <ele>107</ele>
        <time>2018-01-21T10:25:49.000Z</time>
      </trkpt>
      <trkpt lat="47.82354" lon="1.9544">
        <ele>107</ele>
        <time>2018-01-21T10:25:50.000Z</time>
      </trkpt>
      <trkpt lat="47.82379" lon="1.95414">
        <ele>109</ele>
        <time>2018-01-21T10:25:56.000Z</time>
      </trkpt>
      <trkpt lat="47.82416" lon="1.9537">
        <ele>111</ele>
        <time>2018-01-21T10:26:05.000Z</time>
      </trkpt>
      <trkpt lat="47.8242" lon="1.95364">
        <ele>111</ele>
        <time>2018-01-21T10:26:06.000Z</time>
      </trkpt>
      <trkpt lat="47.82452" lon="1.95312">
        <ele>113</ele>
        <time>2018-01-21T10:26:14.000Z</time>
      </trkpt>
      <trkpt lat="47.82456" lon="1.95305">
        <ele>113</ele>
        <time>2018-01-21T10:26:15.000Z</time>
      </trkpt>
      <trkpt lat="47.82484" lon="1.95247">
        <ele>113</ele>
        <time>2018-01-21T10:26:23.000Z</time>
      </trkpt>
      <trkpt lat="47.82488" lon="1.95241">
        <ele>113</ele>
        <time>2018-01-21T10:26:24.000Z</time>
      </trkpt>
      <trkpt lat="47.82521" lon="1.95186">
        <ele>115</ele>
        <time>2018-01-21T10:26:32.000Z</time>
      </trkpt>
      <trkpt lat="47.82525" lon="1.95179">
        <ele>115</ele>
        <time>2018-01-21T10:26:33.000Z</time>
      </trkpt>
      <trkpt lat="47.82557" lon="1.95127">
        <ele>116</ele>
        <time>2018-01-21T10:26:40.000Z</time>
      </trkpt>
      <trkpt lat="47.82562" lon="1.9512">
        <ele>116</ele>
        <time>2018-01-21T10:26:41.000Z</time>
      </trkpt>
      <trkpt lat="47.82595" lon="1.95068">
        <ele>115</ele>
        <time>2018-01-21T10:26:48.000Z</time>
      </trkpt>
      <trkpt lat="47.826" lon="1.9506">
        <ele>115</ele>
        <time>2018-01-21T10:26:49.000Z</time>
      </trkpt>
      <trkpt lat="47.82633" lon="1.95013">
        <ele>114</ele>
        <time>2018-01-21T10:26:56.000Z</time>
      </trkpt>
      <trkpt lat="47.82637" lon="1.95007">
        <ele>113</ele>
        <time>2018-01-21T10:26:57.000Z</time>
      </trkpt>
      <trkpt lat="47.82648" lon="1.94996">
        <ele>113</ele>
        <time>2018-01-21T10:27:00.000Z</time>
      </trkpt>
      <trkpt lat="47.82656" lon="1.95">
        <ele>113</ele>
        <time>2018-01-21T10:27:02.000Z</time>
      </trkpt>
      <trkpt lat="47.82697" lon="1.95037">
        <ele>112</ele>
        <time>2018-01-21T10:27:13.000Z</time>
      </trkpt>
      <trkpt lat="47.827" lon="1.9504">
        <ele>111</ele>
        <time>2018-01-21T10:27:14.000Z</time>
      </trkpt>
      <trkpt lat="47.82709" lon="1.95051">
        <ele>111</ele>
        <time>2018-01-21T10:27:21.000Z</time>
      </trkpt>
      <trkpt lat="47.8272" lon="1.95068">
        <ele>115</ele>
        <time>2018-01-21T10:27:33.000Z</time>
      </trkpt>
      <trkpt lat="47.82753" lon="1.95106">
        <ele>129</ele>
        <time>2018-01-21T10:27:44.000Z</time>
      </trkpt>
      <trkpt lat="47.82757" lon="1.9511">
        <ele>130</ele>
        <time>2018-01-21T10:27:45.000Z</time>
      </trkpt>
      <trkpt lat="47.82774" lon="1.95131">
        <ele>136</ele>
        <time>2018-01-21T10:27:51.000Z</time>
      </trkpt>
      <trkpt lat="47.82777" lon="1.95137">
        <ele>137</ele>
        <time>2018-01-21T10:27:53.000Z</time>
      </trkpt>
      <trkpt lat="47.82815" lon="1.95185">
        <ele>136</ele>
        <time>2018-01-21T10:28:06.000Z</time>
      </trkpt>
      <trkpt lat="47.82818" lon="1.9519">
        <ele>136</ele>
        <time>2018-01-21T10:28:07.000Z</time>
      </trkpt>
      <trkpt lat="47.82855" lon="1.95236">
        <ele>132</ele>
        <time>2018-01-21T10:28:17.000Z</time>
      </trkpt>
      <trkpt lat="47.82858" lon="1.9524">
        <ele>132</ele>
        <time>2018-01-21T10:28:18.000Z</time>
      </trkpt>
      <trkpt lat="47.82895" lon="1.95283">
        <ele>129</ele>
        <time>2018-01-21T10:28:28.000Z</time>
      </trkpt>
      <trkpt lat="47.82898" lon="1.95286">
        <ele>129</ele>
        <time>2018-01-21T10:28:29.000Z</time>
      </trkpt>
      <trkpt lat="47.82902" lon="1.95289">
        <ele>129</ele>
        <time>2018-01-21T10:28:30.000Z</time>
      </trkpt>
      <trkpt lat="47.82941" lon="1.95333">
        <ele>132</ele>
        <time>2018-01-21T10:28:41.000Z</time>
      </trkpt>
      <trkpt lat="47.82944" lon="1.95337">
        <ele>132</ele>
        <time>2018-01-21T10:28:42.000Z</time>
      </trkpt>
      <trkpt lat="47.82948" lon="1.95342">
        <ele>132</ele>
        <time>2018-01-21T10:28:43.000Z</time>
      </trkpt>
      <trkpt lat="47.82985" lon="1.95392">
        <ele>131</ele>
        <time>2018-01-21T10:28:53.000Z</time>
      </trkpt>
      <trkpt lat="47.82988" lon="1.95397">
        <ele>131</ele>
        <time>2018-01-21T10:28:54.000Z</time>
      </trkpt>
      <trkpt lat="47.83023" lon="1.95437">
        <ele>130</ele>
        <time>2018-01-21T10:29:03.000Z</time>
      </trkpt>
      <trkpt lat="47.83027" lon="1.9544">
        <ele>129</ele>
        <time>2018-01-21T10:29:04.000Z</time>
      </trkpt>
      <trkpt lat="47.83062" lon="1.95486">
        <ele>121</ele>
        <time>2018-01-21T10:29:14.000Z</time>
      </trkpt>
      <trkpt lat="47.83066" lon="1.95492">
        <ele>120</ele>
        <time>2018-01-21T10:29:15.000Z</time>
      </trkpt>
      <trkpt lat="47.8308" lon="1.95509">
        <ele>119</ele>
        <time>2018-01-21T10:29:19.000Z</time>
      </trkpt>
      <trkpt lat="47.83078" lon="1.95521">
        <ele>118</ele>
        <time>2018-01-21T10:29:21.000Z</time>
      </trkpt>
      <trkpt lat="47.83051" lon="1.95579">
        <ele>116</ele>
        <time>2018-01-21T10:29:30.000Z</time>
      </trkpt>
      <trkpt lat="47.83048" lon="1.95586">
        <ele>116</ele>
        <time>2018-01-21T10:29:31.000Z</time>
      </trkpt>
      <trkpt lat="47.8302" lon="1.95643">
        <ele>119</ele>
        <time>2018-01-21T10:29:40.000Z</time>
      </trkpt>
      <trkpt lat="47.83016" lon="1.95649">
        <ele>119</ele>
        <time>2018-01-21T10:29:41.000Z</time>
      </trkpt>
      <trkpt lat="47.82983" lon="1.95699">
        <ele>118</ele>
        <time>2018-01-21T10:29:51.000Z</time>
      </trkpt>
      <trkpt lat="47.82981" lon="1.95704">
        <ele>117</ele>
        <time>2018-01-21T10:29:52.000Z</time>
      </trkpt>
      <trkpt lat="47.82982" lon="1.95711">
        <ele>117</ele>
        <time>2018-01-21T10:29:55.000Z</time>
      </trkpt>
      <trkpt lat="47.8303" lon="1.95709">
        <ele>121</ele>
        <time>2018-01-21T10:30:07.000Z</time>
      </trkpt>
      <trkpt lat="47.83034" lon="1.9571">
        <ele>121</ele>
        <time>2018-01-21T10:30:08.000Z</time>
      </trkpt>
      <trkpt lat="47.83038" lon="1.95712">
        <ele>120</ele>
        <time>2018-01-21T10:30:09.000Z</time>
      </trkpt>
      <trkpt lat="47.83044" lon="1.95717">
        <ele>118</ele>
        <time>2018-01-21T10:30:11.000Z</time>
      </trkpt>
      <trkpt lat="47.83046" lon="1.95726">
        <ele>117</ele>
        <time>2018-01-21T10:30:14.000Z</time>
      </trkpt>
      <trkpt lat="47.83036" lon="1.95751">
        <ele>118</ele>
        <time>2018-01-21T10:30:19.000Z</time>
      </trkpt>
      <trkpt lat="47.83008" lon="1.95811">
        <ele>121</ele>
        <time>2018-01-21T10:30:30.000Z</time>
      </trkpt>
      <trkpt lat="47.83005" lon="1.95817">
        <ele>121</ele>
        <time>2018-01-21T10:30:31.000Z</time>
      </trkpt>
      <trkpt lat="47.82981" lon="1.95882">
        <ele>121</ele>
        <time>2018-01-21T10:30:39.000Z</time>
      </trkpt>
      <trkpt lat="47.82978" lon="1.95888">
        <ele>121</ele>
        <time>2018-01-21T10:30:40.000Z</time>
      </trkpt>
      <trkpt lat="47.82951" lon="1.9595">
        <ele>119</ele>
        <time>2018-01-21T10:30:50.000Z</time>
      </trkpt>
      <trkpt lat="47.82948" lon="1.95957">
        <ele>118</ele>
        <time>2018-01-21T10:30:51.000Z</time>
      </trkpt>
      <trkpt lat="47.82922" lon="1.96016">
        <ele>116</ele>
        <time>2018-01-21T10:31:00.000Z</time>
      </trkpt>
      <trkpt lat="47.82919" lon="1.96023">
        <ele>116</ele>
        <time>2018-01-21T10:31:01.000Z</time>
      </trkpt>
      <trkpt lat="47.8289" lon="1.96082">
        <ele>115</ele>
        <time>2018-01-21T10:31:10.000Z</time>
      </trkpt>
      <trkpt lat="47.82887" lon="1.96088">
        <ele>114</ele>
        <time>2018-01-21T10:31:11.000Z</time>
      </trkpt>
      <trkpt lat="47.82882" lon="1.96099">
        <ele>114</ele>
        <time>2018-01-21T10:31:13.000Z</time>
      </trkpt>
      <trkpt lat="47.82881" lon="1.9611">
        <ele>113</ele>
        <time>2018-01-21T10:31:15.000Z</time>
      </trkpt>
      <trkpt lat="47.82887" lon="1.96114">
        <ele>113</ele>
        <time>2018-01-21T10:31:17.000Z</time>
      </trkpt>
      <trkpt lat="47.82935" lon="1.96136">
        <ele>121</ele>
        <time>2018-01-21T10:31:26.000Z</time>
      </trkpt>
      <trkpt lat="47.82941" lon="1.96137">
        <ele>122</ele>
        <time>2018-01-21T10:31:27.000Z</time>
      </trkpt>
      <trkpt lat="47.82989" lon="1.96158">
        <ele>133</ele>
        <time>2018-01-21T10:31:36.000Z</time>
      </trkpt>
      <trkpt lat="47.82994" lon="1.9616">
        <ele>134</ele>
        <time>2018-01-21T10:31:37.000Z</time>
      </trkpt>
      <trkpt lat="47.83002" lon="1.96167">
        <ele>134</ele>
        <time>2018-01-21T10:31:39.000Z</time>
      </trkpt>
      <trkpt lat="47.83029" lon="1.96213">
        <ele>123</ele>
        <time>2018-01-21T10:31:50.000Z</time>
      </trkpt>
      <trkpt lat="47.83038" lon="1.96221">
        <ele>122</ele>
        <time>2018-01-21T10:31:53.000Z</time>
      </trkpt>
      <trkpt lat="47.83042" lon="1.96229">
        <ele>121</ele>
        <time>2018-01-21T10:31:55.000Z</time>
      </trkpt>
      <trkpt lat="47.83042" lon="1.96238">
        <ele>119</ele>
        <time>2018-01-21T10:31:57.000Z</time>
      </trkpt>
      <trkpt lat="47.83044" lon="1.96269">
        <ele>115</ele>
        <time>2018-01-21T10:32:02.000Z</time>
      </trkpt>
      <trkpt lat="47.83049" lon="1.96274">
        <ele>114</ele>
        <time>2018-01-21T10:32:04.000Z</time>
      </trkpt>
      <trkpt lat="47.83054" lon="1.96272">
        <ele>113</ele>
        <time>2018-01-21T10:32:06.000Z</time>
      </trkpt>
      <trkpt lat="47.83061" lon="1.96264">
        <ele>111</ele>
        <time>2018-01-21T10:32:09.000Z</time>
      </trkpt>
      <trkpt lat="47.83067" lon="1.96263">
        <ele>111</ele>
        <time>2018-01-21T10:32:11.000Z</time>
      </trkpt>
      <trkpt lat="47.83073" lon="1.96265">
        <ele>110</ele>
        <time>2018-01-21T10:32:13.000Z</time>
      </trkpt>
      <trkpt lat="47.83085" lon="1.96276">
        <ele>109</ele>
        <time>2018-01-21T10:32:17.000Z</time>
      </trkpt>
      <trkpt lat="47.83118" lon="1.96318">
        <ele>106</ele>
        <time>2018-01-21T10:32:30.000Z</time>
      </trkpt>
      <trkpt lat="47.83119" lon="1.96324">
        <ele>106</ele>
        <time>2018-01-21T10:32:31.000Z</time>
      </trkpt>
      <trkpt lat="47.8312" lon="1.9633">
        <ele>106</ele>
        <time>2018-01-21T10:32:32.000Z</time>
      </trkpt>
      <trkpt lat="47.83113" lon="1.96403">
        <ele>103</ele>
        <time>2018-01-21T10:32:42.000Z</time>
      </trkpt>
      <trkpt lat="47.83113" lon="1.9641">
        <ele>103</ele>
        <time>2018-01-21T10:32:43.000Z</time>
      </trkpt>
      <trkpt lat="47.83114" lon="1.96425">
        <ele>103</ele>
        <time>2018-01-21T10:32:45.000Z</time>
      </trkpt>
      <trkpt lat="47.8312" lon="1.96436">
        <ele>102</ele>
        <time>2018-01-21T10:32:47.000Z</time>
      </trkpt>
      <trkpt lat="47.83128" lon="1.96442">
        <ele>102</ele>
        <time>2018-01-21T10:32:49.000Z</time>
      </trkpt>
      <trkpt lat="47.83141" lon="1.96444">
        <ele>102</ele>
        <time>2018-01-21T10:32:52.000Z</time>
      </trkpt>
      <trkpt lat="47.83156" lon="1.96445">
        <ele>102</ele>
        <time>2018-01-21T10:32:56.000Z</time>
      </trkpt>
      <trkpt lat="47.83195" lon="1.96448">
        <ele>103</ele>
        <time>2018-01-21T10:33:07.000Z</time>
      </trkpt>
      <trkpt lat="47.8324" lon="1.96441">
        <ele>104</ele>
        <time>2018-01-21T10:33:19.000Z</time>
      </trkpt>
      <trkpt lat="47.83244" lon="1.96441">
        <ele>104</ele>
        <time>2018-01-21T10:33:20.000Z</time>
      </trkpt>
      <trkpt lat="47.83252" lon="1.96441">
        <ele>103</ele>
        <time>2018-01-21T10:33:22.000Z</time>
      </trkpt>
      <trkpt lat="47.83269" lon="1.96447">
        <ele>103</ele>
        <time>2018-01-21T10:33:27.000Z</time>
      </trkpt>
      <trkpt lat="47.83272" lon="1.96459">
        <ele>102</ele>
        <time>2018-01-21T10:33:31.000Z</time>
      </trkpt>
      <trkpt lat="47.83274" lon="1.9647">
        <ele>101</ele>
        <time>2018-01-21T10:33:35.000Z</time>
      </trkpt>
      <trkpt lat="47.83276" lon="1.96463">
        <ele>102</ele>
        <time>2018-01-21T10:39:23.000Z</time>
      </trkpt>
      <trkpt lat="47.83281" lon="1.96461">
        <ele>102</ele>
        <time>2018-01-21T10:39:29.000Z</time>
      </trkpt>
      <trkpt lat="47.83287" lon="1.96459">
        <ele>103</ele>
        <time>2018-01-21T10:39:38.000Z</time>
      </trkpt>
      <trkpt lat="47.83303" lon="1.96466">
        <ele>104</ele>
        <time>2018-01-21T10:39:45.000Z</time>
      </trkpt>
      <trkpt lat="47.83308" lon="1.96477">
        <ele>105</ele>
        <time>2018-01-21T10:39:48.000Z</time>
      </trkpt>
      <trkpt lat="47.83308" lon="1.96526">
        <ele>106</ele>
        <time>2018-01-21T10:40:15.000Z</time>
      </trkpt>
      <trkpt lat="47.83308" lon="1.96526">
        <ele>108</ele>
        <time>2018-01-21T10:43:15.000Z</time>
      </trkpt>
    </trkseg>
  </trk>
</gpx>